| time (UTC) | temp F | wind direction | speed MPH | gust MPH | rain 1hr in | rain 24hr in | rain mn in | humidity % | barometer mb |
| 20260508222700 | 51 | 138 | 2.0 | 5.0 | 0.00 | 0.00 | 0.00 | 73 | 1014.7 |
| 20260508222613 | 51 | 135 | 2.0 | 5.0 | 0.00 | 0.00 | 0.00 | 73 | 1014.7 |
| 20260508222513 | 51 | 135 | 2.0 | 5.0 | 0.00 | 0.00 | 0.00 | 73 | 1014.7 |
| 20260508222413 | 51 | 121 | 2.0 | 5.0 | 0.00 | 0.00 | 0.00 | 73 | 1014.6 |
| 20260508222313 | 51 | 121 | 2.0 | 5.0 | 0.00 | 0.00 | 0.00 | 73 | 1014.6 |
| 20260508222200 | 51 | 121 | 2.0 | 5.0 | 0.00 | 0.00 | 0.00 | 73 | 1014.6 |
| 20260508222112 | 51 | 119 | 2.0 | 5.0 | 0.00 | 0.00 | 0.00 | 73 | 1014.5 |
| 20260508222008 | 51 | 149 | 2.0 | 5.0 | 0.00 | 0.00 | 0.00 | 73 | 1014.5 |
| 20260508221927 | 51 | 142 | 2.0 | 4.0 | 0.00 | 0.00 | 0.00 | 73 | 1014.5 |
| 20260508221919 | 51 | 145 | 2.0 | 4.0 | 0.00 | 0.00 | 0.00 | 73 | 1014.5 |
| 20260508221915 | 51 | 144 | 2.0 | 4.0 | 0.00 | 0.00 | 0.00 | 73 | 1014.5 |
| 20260508221911 | 52 | 142 | 2.0 | 4.0 | 0.00 | 0.00 | 0.00 | 73 | 1014.5 |
| 20260508221609 | 52 | 142 | 2.0 | 4.0 | 0.00 | 0.00 | 0.00 | 73 | 1014.5 |
| 20260508221509 | 52 | 142 | 2.0 | 4.0 | 0.00 | 0.00 | 0.00 | 73 | 1014.5 |
| 20260508221409 | 52 | 142 | 2.0 | 4.0 | 0.00 | 0.00 | 0.00 | 73 | 1014.5 |
| 20260508221308 | 52 | 138 | 2.0 | 4.0 | 0.00 | 0.00 | 0.00 | 72 | 1014.5 |
| 20260508221200 | 52 | 132 | 2.0 | 4.0 | 0.00 | 0.00 | 0.00 | 72 | 1014.5 |
| 20260508221108 | 52 | 144 | 2.0 | 4.0 | 0.00 | 0.00 | 0.00 | 72 | 1014.5 |
| 20260508221008 | 52 | 144 | 2.0 | 4.0 | 0.00 | 0.00 | 0.00 | 72 | 1014.5 |
| 20260508220909 | 52 | 144 | 1.0 | 4.0 | 0.00 | 0.00 | 0.00 | 72 | 1014.5 |
| 20260508220809 | 52 | 142 | 1.0 | 4.0 | 0.00 | 0.00 | 0.00 | 72 | 1014.5 |
| 20260508220709 | 52 | 140 | 1.0 | 4.0 | 0.00 | 0.00 | 0.00 | 72 | 1014.5 |
| 20260508220700 | 52 | 139 | 1.0 | 4.0 | 0.00 | 0.00 | 0.00 | 72 | 1014.5 |
| 20260508220609 | 52 | 132 | 1.0 | 3.0 | 0.00 | 0.00 | 0.00 | 72 | 1014.5 |
| 20260508220508 | 52 | 131 | 1.0 | 3.0 | 0.00 | 0.00 | 0.00 | 72 | 1014.5 |
| 20260508220408 | 52 | 129 | 1.0 | 2.0 | 0.00 | 0.00 | 0.00 | 72 | 1014.5 |
| 20260508220308 | 52 | 129 | 1.0 | 3.0 | 0.00 | 0.00 | 0.00 | 72 | 1014.5 |
| 20260508220201 | 52 | 129 | 1.0 | 3.0 | 0.00 | 0.00 | 0.00 | 72 | 1014.5 |
| 20260508220107 | 52 | 129 | 1.0 | 3.0 | 0.00 | 0.00 | 0.00 | 71 | 1014.5 |
| 20260508220006 | 52 | 129 | 1.0 | 3.0 | 0.00 | 0.00 | 0.00 | 71 | 1014.5 |
| 20260508215906 | 52 | 129 | 1.0 | 3.0 | 0.00 | 0.00 | 0.00 | 71 | 1014.5 |
| 20260508215806 | 52 | 129 | 1.0 | 4.0 | 0.00 | 0.00 | 0.00 | 71 | 1014.5 |
| 20260508215701 | 52 | 128 | 1.0 | 4.0 | 0.00 | 0.00 | 0.00 | 71 | 1014.5 |
| 20260508215605 | 52 | 128 | 1.0 | 4.0 | 0.00 | 0.00 | 0.00 | 71 | 1014.4 |
| 20260508215505 | 52 | 128 | 1.0 | 4.0 | 0.00 | 0.00 | 0.00 | 71 | 1014.4 |
| 20260508215405 | 52 | 128 | 2.0 | 4.0 | 0.00 | 0.00 | 0.00 | 71 | 1014.4 |
| 20260508215306 | 52 | 134 | 1.0 | 4.0 | 0.00 | 0.00 | 0.00 | 71 | 1014.4 |
| 20260508215205 | 52 | 135 | 1.0 | 4.0 | 0.00 | 0.00 | 0.00 | 71 | 1014.4 |
| 20260508215201 | 52 | 134 | 1.0 | 4.0 | 0.00 | 0.00 | 0.00 | 71 | 1014.4 |
| 20260508215106 | 53 | 134 | 1.0 | 4.0 | 0.00 | 0.00 | 0.00 | 71 | 1014.4 |
| 20260508215006 | 53 | 134 | 1.0 | 4.0 | 0.00 | 0.00 | 0.00 | 70 | 1014.5 |
| 20260508214906 | 53 | 135 | 1.0 | 4.0 | 0.00 | 0.00 | 0.00 | 70 | 1014.5 |
| 20260508214805 | 53 | 133 | 1.0 | 4.0 | 0.00 | 0.00 | 0.00 | 70 | 1014.4 |
| 20260508214700 | 53 | 130 | 1.0 | 4.0 | 0.00 | 0.00 | 0.00 | 70 | 1014.5 |
| 20260508214605 | 53 | 130 | 1.0 | 4.0 | 0.00 | 0.00 | 0.00 | 70 | 1014.5 |
| 20260508214505 | 53 | 128 | 1.0 | 3.0 | 0.00 | 0.00 | 0.00 | 70 | 1014.5 |
| 20260508214405 | 53 | 127 | 1.0 | 3.0 | 0.00 | 0.00 | 0.00 | 70 | 1014.4 |
| 20260508214305 | 53 | 127 | 1.0 | 3.0 | 0.00 | 0.00 | 0.00 | 69 | 1014.4 |
| 20260508214201 | 53 | 127 | 1.0 | 3.0 | 0.00 | 0.00 | 0.00 | 69 | 1014.4 |
| 20260508214102 | 53 | 127 | 1.0 | 3.0 | 0.00 | 0.00 | 0.00 | 69 | 1014.4 |
| 20260508214002 | 53 | 127 | 1.0 | 3.0 | 0.00 | 0.00 | 0.00 | 69 | 1014.4 |
| 20260508213902 | 53 | 127 | 1.0 | 3.0 | 0.00 | 0.00 | 0.00 | 69 | 1014.4 |
| 20260508213802 | 53 | 126 | 1.0 | 3.0 | 0.00 | 0.00 | 0.00 | 68 | 1014.4 |
| 20260508213701 | 54 | 125 | 1.0 | 3.0 | 0.00 | 0.00 | 0.00 | 68 | 1014.4 |
| 20260508213601 | 54 | 124 | 1.0 | 4.0 | 0.00 | 0.00 | 0.00 | 68 | 1014.4 |
| 20260508213501 | 54 | 124 | 1.0 | 4.0 | 0.00 | 0.00 | 0.00 | 68 | 1014.4 |
| 20260508213401 | 54 | 124 | 1.0 | 4.0 | 0.00 | 0.00 | 0.00 | 68 | 1014.4 |
| 20260508213301 | 54 | 124 | 1.0 | 4.0 | 0.00 | 0.00 | 0.00 | 68 | 1014.4 |
| 20260508213201 | 54 | 143 | 1.0 | 4.0 | 0.00 | 0.00 | 0.00 | 67 | 1014.4 |
| 20260508213101 | 54 | 148 | 1.0 | 4.0 | 0.00 | 0.00 | 0.00 | 67 | 1014.4 |
| 20260508213001 | 54 | 148 | 1.0 | 4.0 | 0.00 | 0.00 | 0.00 | 67 | 1014.4 |
| 20260508212901 | 54 | 148 | 1.0 | 4.0 | 0.00 | 0.00 | 0.00 | 67 | 1014.4 |
| 20260508212801 | 55 | 148 | 1.0 | 4.0 | 0.00 | 0.00 | 0.00 | 67 | 1014.4 |
| 20260508212701 | 55 | 123 | 1.0 | 4.0 | 0.00 | 0.00 | 0.00 | 67 | 1014.4 |
| 20260508212601 | 55 | 104 | 1.0 | 7.0 | 0.00 | 0.00 | 0.00 | 66 | 1014.4 |
| 20260508212501 | 55 | 104 | 1.0 | 7.0 | 0.00 | 0.00 | 0.00 | 67 | 1014.4 |
| 20260508212400 | 55 | 103 | 1.0 | 7.0 | 0.00 | 0.00 | 0.00 | 67 | 1014.4 |
| 20260508212300 | 55 | 103 | 2.0 | 7.0 | 0.00 | 0.00 | 0.00 | 67 | 1014.4 |
| 20260508212201 | 55 | 103 | 2.0 | 7.0 | 0.00 | 0.00 | 0.00 | 67 | 1014.3 |
| 20260508212101 | 55 | 93 | 2.0 | 7.0 | 0.00 | 0.00 | 0.00 | 67 | 1014.3 |
| 20260508212001 | 55 | 90 | 2.0 | 7.0 | 0.00 | 0.00 | 0.00 | 67 | 1014.3 |
| 20260508211901 | 55 | 92 | 2.0 | 7.0 | 0.00 | 0.00 | 0.00 | 66 | 1014.3 |
| 20260508211801 | 55 | 98 | 2.0 | 7.0 | 0.00 | 0.00 | 0.00 | 66 | 1014.3 |
| 20260508211701 | 55 | 108 | 2.0 | 7.0 | 0.00 | 0.00 | 0.00 | 66 | 1014.4 |
| 20260508211605 | 55 | 96 | 1.0 | 7.0 | 0.00 | 0.00 | 0.00 | 66 | 1014.2 |
| 20260508211500 | 55 | 72 | 1.0 | 7.0 | 0.00 | 0.00 | 0.00 | 66 | 1014.3 |
| 20260508211400 | 55 | 89 | 2.0 | 7.0 | 0.00 | 0.00 | 0.00 | 66 | 1014.2 |
| 20260508211300 | 55 | 105 | 2.0 | 9.0 | 0.00 | 0.00 | 0.00 | 66 | 1014.3 |
| 20260508211200 | 55 | 94 | 2.0 | 9.0 | 0.00 | 0.00 | 0.00 | 66 | 1014.3 |
| 20260508211104 | 55 | 133 | 2.0 | 9.0 | 0.00 | 0.00 | 0.00 | 66 | 1014.3 |
| 20260508211000 | 55 | 89 | 2.0 | 9.0 | 0.00 | 0.00 | 0.00 | 66 | 1014.3 |
| 20260508210900 | 55 | 94 | 2.0 | 9.0 | 0.00 | 0.00 | 0.00 | 66 | 1014.4 |
| 20260508210801 | 55 | 74 | 2.0 | 9.0 | 0.00 | 0.00 | 0.00 | 66 | 1014.3 |
| 20260508210701 | 55 | 123 | 3.0 | 9.0 | 0.00 | 0.00 | 0.00 | 66 | 1014.3 |
| 20260508210603 | 55 | 105 | 3.0 | 9.0 | 0.00 | 0.00 | 0.00 | 66 | 1014.3 |
| 20260508210501 | 55 | 144 | 3.0 | 9.0 | 0.00 | 0.00 | 0.00 | 66 | 1014.3 |
| 20260508210401 | 55 | 104 | 3.0 | 9.0 | 0.00 | 0.00 | 0.00 | 66 | 1014.3 |
| 20260508210302 | 55 | 102 | 3.0 | 7.0 | 0.00 | 0.00 | 0.00 | 66 | 1014.3 |
| 20260508210201 | 55 | 83 | 3.0 | 7.0 | 0.00 | 0.00 | 0.00 | 66 | 1014.3 |
| 20260508210001 | 56 | 70 | 3.0 | 8.0 | 0.00 | 0.00 | 0.00 | 66 | 1014.3 |
| 20260508205901 | 56 | 90 | 3.0 | 8.0 | 0.00 | 0.00 | 0.00 | 66 | 1014.3 |
| 20260508205801 | 56 | 86 | 3.0 | 8.0 | 0.00 | 0.00 | 0.00 | 66 | 1014.3 |
| 20260508205701 | 56 | 117 | 3.0 | 8.0 | 0.00 | 0.00 | 0.00 | 66 | 1014.3 |
| 20260508205601 | 56 | 97 | 3.0 | 8.0 | 0.00 | 0.00 | 0.00 | 65 | 1014.3 |
| 20260508205501 | 56 | 89 | 3.0 | 8.0 | 0.00 | 0.00 | 0.00 | 65 | 1014.3 |
| 20260508205420 | 56 | 93 | 3.0 | 9.0 | 0.00 | 0.00 | 0.00 | 65 | 1014.3 |
| 20260508205416 | 56 | 128 | 3.0 | 9.0 | 0.00 | 0.00 | 0.00 | 65 | 1014.3 |
| 20260508205411 | 56 | 119 | 3.0 | 9.0 | 0.00 | 0.00 | 0.00 | 65 | 1014.3 |
| 20260508205149 | 56 | 65 | 3.0 | 9.0 | 0.00 | 0.00 | 0.00 | 65 | 1014.2 |
| 20260508205142 | 56 | 65 | 3.0 | 9.0 | 0.00 | 0.00 | 0.00 | 65 | 1014.3 |
| 20260508205134 | 56 | 116 | 3.0 | 9.0 | 0.00 | 0.00 | 0.00 | 65 | 1014.3 |
| 20260508204919 | 56 | 71 | 3.0 | 9.0 | 0.00 | 0.00 | 0.00 | 65 | 1014.2 |
| 20260508204915 | 56 | 118 | 3.0 | 9.0 | 0.00 | 0.00 | 0.00 | 64 | 1014.3 |
| 20260508204910 | 56 | 65 | 3.0 | 9.0 | 0.00 | 0.00 | 0.00 | 65 | 1014.2 |
| 20260508204600 | 56 | 92 | 3.0 | 9.0 | 0.00 | 0.00 | 0.00 | 64 | 1014.2 |
| 20260508204501 | 56 | 129 | 3.0 | 9.0 | 0.00 | 0.00 | 0.00 | 65 | 1014.2 |
| 20260508204401 | 56 | 111 | 3.0 | 9.0 | 0.00 | 0.00 | 0.00 | 65 | 1014.2 |
| 20260508204301 | 56 | 84 | 3.0 | 9.0 | 0.00 | 0.00 | 0.00 | 64 | 1014.2 |
| 20260508204200 | 56 | 61 | 3.0 | 9.0 | 0.00 | 0.00 | 0.00 | 64 | 1014.2 |
| 20260508204100 | 56 | 102 | 3.0 | 9.0 | 0.00 | 0.00 | 0.00 | 64 | 1014.2 |
| 20260508204000 | 56 | 94 | 3.0 | 9.0 | 0.00 | 0.00 | 0.00 | 64 | 1014.2 |
| 20260508203901 | 56 | 82 | 3.0 | 9.0 | 0.00 | 0.00 | 0.00 | 64 | 1014.2 |
| 20260508203801 | 56 | 96 | 3.0 | 9.0 | 0.00 | 0.00 | 0.00 | 65 | 1014.1 |
| 20260508203702 | 56 | 63 | 3.0 | 9.0 | 0.00 | 0.00 | 0.00 | 64 | 1014.2 |
| 20260508203602 | 56 | 96 | 3.0 | 9.0 | 0.00 | 0.00 | 0.00 | 64 | 1014.2 |
| 20260508203502 | 56 | 73 | 3.0 | 9.0 | 0.00 | 0.00 | 0.00 | 64 | 1014.2 |
| 20260508203401 | 56 | 70 | 4.0 | 9.0 | 0.00 | 0.00 | 0.00 | 64 | 1014.2 |
| 20260508203301 | 56 | 79 | 4.0 | 10.0 | 0.00 | 0.00 | 0.00 | 64 | 1014.2 |
| 20260508203201 | 56 | 117 | 4.0 | 10.0 | 0.00 | 0.00 | 0.00 | 64 | 1014.2 |
| 20260508203101 | 56 | 67 | 4.0 | 10.0 | 0.00 | 0.00 | 0.00 | 64 | 1014.2 |
| 20260508203001 | 56 | 127 | 4.0 | 10.0 | 0.00 | 0.00 | 0.00 | 64 | 1014.2 |
| 20260508202901 | 56 | 76 | 4.0 | 10.0 | 0.00 | 0.00 | 0.00 | 64 | 1014.2 |
| 20260508202801 | 56 | 69 | 4.0 | 10.0 | 0.00 | 0.00 | 0.00 | 64 | 1014.2 |
| 20260508202701 | 56 | 80 | 4.0 | 10.0 | 0.00 | 0.00 | 0.00 | 64 | 1014.2 |
| 20260508202600 | 57 | 65 | 3.0 | 10.0 | 0.00 | 0.00 | 0.00 | 64 | 1014.1 |
| 20260508202501 | 57 | 68 | 3.0 | 10.0 | 0.00 | 0.00 | 0.00 | 64 | 1014.2 |
| 20260508202401 | 57 | 20 | 3.0 | 10.0 | 0.00 | 0.00 | 0.00 | 64 | 1014.2 |
| 20260508202301 | 57 | 116 | 3.0 | 10.0 | 0.00 | 0.00 | 0.00 | 64 | 1014.2 |
| 20260508202201 | 57 | 88 | 3.0 | 10.0 | 0.00 | 0.00 | 0.00 | 64 | 1014.2 |
| 20260508202100 | 57 | 82 | 3.0 | 11.0 | 0.00 | 0.00 | 0.00 | 64 | 1014.1 |
| 20260508202000 | 57 | 109 | 4.0 | 11.0 | 0.00 | 0.00 | 0.00 | 64 | 1014.1 |
| 20260508201900 | 57 | 73 | 3.0 | 11.0 | 0.00 | 0.00 | 0.00 | 63 | 1014.1 |
| 20260508201800 | 57 | 114 | 3.0 | 11.0 | 0.00 | 0.00 | 0.00 | 64 | 1014.2 |
| 20260508201701 | 57 | 125 | 4.0 | 11.0 | 0.00 | 0.00 | 0.00 | 64 | 1014.2 |
| 20260508201601 | 57 | 84 | 4.0 | 11.0 | 0.00 | 0.00 | 0.00 | 63 | 1014.2 |
| 20260508201501 | 57 | 57 | 4.0 | 11.0 | 0.00 | 0.00 | 0.00 | 63 | 1014.2 |
| 20260508201401 | 57 | 125 | 4.0 | 11.0 | 0.00 | 0.00 | 0.00 | 63 | 1014.1 |
| 20260508201300 | 57 | 60 | 4.0 | 11.0 | 0.00 | 0.00 | 0.00 | 64 | 1014.1 |
| 20260508201200 | 57 | 96 | 4.0 | 11.0 | 0.00 | 0.00 | 0.00 | 64 | 1014.1 |
| 20260508201100 | 57 | 69 | 4.0 | 9.0 | 0.00 | 0.00 | 0.00 | 63 | 1014.1 |
| 20260508201001 | 57 | 53 | 4.0 | 11.0 | 0.00 | 0.00 | 0.00 | 63 | 1014.1 |
| 20260508200901 | 57 | 65 | 4.0 | 11.0 | 0.00 | 0.00 | 0.00 | 63 | 1014.1 |
| 20260508200801 | 57 | 78 | 4.0 | 11.0 | 0.00 | 0.00 | 0.00 | 63 | 1014.1 |
| 20260508200702 | 57 | 72 | 4.0 | 11.0 | 0.00 | 0.00 | 0.00 | 63 | 1014.1 |
| 20260508200602 | 57 | 71 | 4.0 | 11.0 | 0.00 | 0.00 | 0.00 | 63 | 1014.2 |
| 20260508200502 | 57 | 57 | 4.0 | 11.0 | 0.00 | 0.00 | 0.00 | 63 | 1014.2 |
| 20260508200421 | 57 | 78 | 4.0 | 11.0 | 0.00 | 0.00 | 0.00 | 63 | 1014.2 |
| 20260508200417 | 57 | 104 | 4.0 | 11.0 | 0.00 | 0.00 | 0.00 | 63 | 1014.2 |
| 20260508200413 | 57 | 75 | 3.0 | 11.0 | 0.00 | 0.00 | 0.00 | 63 | 1014.1 |
| 20260508200001 | 57 | 55 | 3.0 | 11.0 | 0.00 | 0.00 | 0.00 | 63 | 1014.1 |
| 20260508195901 | 57 | 77 | 3.0 | 11.0 | 0.00 | 0.00 | 0.00 | 63 | 1014.1 |
| 20260508195801 | 57 | 96 | 4.0 | 11.0 | 0.00 | 0.00 | 0.00 | 63 | 1014.1 |
| 20260508195701 | 58 | 84 | 4.0 | 11.0 | 0.00 | 0.00 | 0.00 | 63 | 1014.1 |
| 20260508195601 | 57 | 88 | 4.0 | 11.0 | 0.00 | 0.00 | 0.00 | 63 | 1014.1 |
| 20260508195501 | 58 | 105 | 4.0 | 11.0 | 0.00 | 0.00 | 0.00 | 63 | 1014.1 |
| 20260508195400 | 58 | 59 | 4.0 | 11.0 | 0.00 | 0.00 | 0.00 | 63 | 1013.9 |
| 20260508195300 | 58 | 69 | 4.0 | 9.0 | 0.00 | 0.00 | 0.00 | 63 | 1013.9 |
| 20260508195201 | 58 | 73 | 4.0 | 9.0 | 0.00 | 0.00 | 0.00 | 63 | 1014.1 |
| 20260508195101 | 58 | 87 | 3.0 | 9.0 | 0.00 | 0.00 | 0.00 | 63 | 1013.9 |
| 20260508195000 | 58 | 88 | 3.0 | 9.0 | 0.00 | 0.00 | 0.00 | 63 | 1013.9 |
| 20260508194900 | 58 | 71 | 3.0 | 9.0 | 0.00 | 0.00 | 0.00 | 63 | 1013.9 |
| 20260508194800 | 58 | 72 | 3.0 | 10.0 | 0.00 | 0.00 | 0.00 | 63 | 1013.9 |
| 20260508194701 | 58 | 74 | 3.0 | 10.0 | 0.00 | 0.00 | 0.00 | 62 | 1013.9 |
| 20260508194601 | 58 | 62 | 3.0 | 10.0 | 0.00 | 0.00 | 0.00 | 63 | 1013.9 |
| 20260508194500 | 58 | 82 | 4.0 | 10.0 | 0.00 | 0.00 | 0.00 | 62 | 1013.9 |
| 20260508194419 | 58 | 103 | 4.0 | 10.0 | 0.00 | 0.00 | 0.00 | 63 | 1013.9 |
| 20260508194415 | 58 | 101 | 4.0 | 10.0 | 0.00 | 0.00 | 0.00 | 62 | 1013.9 |
| 20260508194411 | 58 | 88 | 4.0 | 10.0 | 0.00 | 0.00 | 0.00 | 62 | 1013.9 |
| 20260508194102 | 58 | 111 | 4.0 | 10.0 | 0.00 | 0.00 | 0.00 | 62 | 1013.9 |
| 20260508194001 | 58 | 74 | 4.0 | 10.0 | 0.00 | 0.00 | 0.00 | 62 | 1013.9 |
| 20260508193920 | 58 | 65 | 4.0 | 10.0 | 0.00 | 0.00 | 0.00 | 62 | 1013.8 |
| 20260508193916 | 58 | 74 | 4.0 | 10.0 | 0.00 | 0.00 | 0.00 | 62 | 1013.8 |
| 20260508193912 | 58 | 80 | 4.0 | 10.0 | 0.00 | 0.00 | 0.00 | 62 | 1013.8 |
| 20260508193601 | 58 | 46 | 4.0 | 11.0 | 0.00 | 0.00 | 0.00 | 62 | 1013.8 |
| 20260508193501 | 58 | 94 | 4.0 | 11.0 | 0.00 | 0.00 | 0.00 | 62 | 1013.7 |
| 20260508193401 | 58 | 137 | 4.0 | 11.0 | 0.00 | 0.00 | 0.00 | 62 | 1013.8 |
| 20260508193301 | 58 | 81 | 4.0 | 11.0 | 0.00 | 0.00 | 0.00 | 62 | 1013.8 |
| 20260508193201 | 58 | 77 | 4.0 | 11.0 | 0.00 | 0.00 | 0.00 | 62 | 1013.7 |
| 20260508193101 | 58 | 91 | 4.0 | 11.0 | 0.00 | 0.00 | 0.00 | 62 | 1013.6 |
| 20260508193001 | 58 | 51 | 4.0 | 11.0 | 0.00 | 0.00 | 0.00 | 62 | 1013.7 |
| 20260508192920 | 58 | 66 | 4.0 | 11.0 | 0.00 | 0.00 | 0.00 | 62 | 1013.6 |
| 20260508192916 | 58 | 84 | 4.0 | 11.0 | 0.00 | 0.00 | 0.00 | 62 | 1013.6 |
| 20260508192912 | 58 | 64 | 4.0 | 11.0 | 0.00 | 0.00 | 0.00 | 62 | 1013.7 |
| 20260508192601 | 58 | 91 | 4.0 | 11.0 | 0.00 | 0.00 | 0.00 | 62 | 1013.6 |
| 20260508192501 | 58 | 101 | 4.0 | 11.0 | 0.00 | 0.00 | 0.00 | 62 | 1013.6 |
| 20260508192401 | 58 | 86 | 4.0 | 11.0 | 0.00 | 0.00 | 0.00 | 62 | 1013.6 |
| 20260508192301 | 58 | 74 | 4.0 | 11.0 | 0.00 | 0.00 | 0.00 | 62 | 1013.6 |
| 20260508192200 | 59 | 94 | 3.0 | 11.0 | 0.00 | 0.00 | 0.00 | 62 | 1013.6 |
| 20260508192100 | 59 | 77 | 3.0 | 12.0 | 0.00 | 0.00 | 0.00 | 62 | 1013.6 |
| 20260508192006 | 59 | 55 | 3.0 | 12.0 | 0.00 | 0.00 | 0.00 | 62 | 1013.6 |
| 20260508191901 | 59 | 109 | 3.0 | 12.0 | 0.00 | 0.00 | 0.00 | 61 | 1013.6 |
| 20260508191801 | 59 | 84 | 3.0 | 12.0 | 0.00 | 0.00 | 0.00 | 61 | 1013.6 |
| 20260508191701 | 59 | 91 | 3.0 | 12.0 | 0.00 | 0.00 | 0.00 | 61 | 1013.6 |
| 20260508191600 | 59 | 63 | 3.0 | 12.0 | 0.00 | 0.00 | 0.00 | 62 | 1013.5 |
| 20260508191500 | 59 | 83 | 3.0 | 12.0 | 0.00 | 0.00 | 0.00 | 61 | 1013.6 |
| 20260508191401 | 59 | 98 | 4.0 | 12.0 | 0.00 | 0.00 | 0.00 | 61 | 1013.5 |
| 20260508191301 | 59 | 105 | 4.0 | 12.0 | 0.00 | 0.00 | 0.00 | 61 | 1013.5 |
| 20260508191201 | 59 | 78 | 4.0 | 12.0 | 0.00 | 0.00 | 0.00 | 61 | 1013.4 |
| 20260508191101 | 59 | 99 | 4.0 | 9.0 | 0.00 | 0.00 | 0.00 | 61 | 1013.5 |
| 20260508191001 | 59 | 68 | 4.0 | 9.0 | 0.00 | 0.00 | 0.00 | 61 | 1013.4 |
| 20260508190901 | 59 | 72 | 4.0 | 9.0 | 0.00 | 0.00 | 0.00 | 61 | 1013.4 |
| 20260508190801 | 59 | 48 | 4.0 | 9.0 | 0.00 | 0.00 | 0.00 | 61 | 1013.4 |
| 20260508190701 | 59 | 53 | 4.0 | 9.0 | 0.00 | 0.00 | 0.00 | 61 | 1013.4 |
| 20260508190601 | 59 | 111 | 4.0 | 9.0 | 0.00 | 0.00 | 0.00 | 61 | 1013.4 |
| 20260508190501 | 59 | 76 | 4.0 | 9.0 | 0.00 | 0.00 | 0.00 | 61 | 1013.3 |
| 20260508190421 | 59 | 68 | 4.0 | 9.0 | 0.00 | 0.00 | 0.00 | 61 | 1013.4 |
| 20260508190417 | 59 | 78 | 4.0 | 9.0 | 0.00 | 0.00 | 0.00 | 61 | 1013.3 |
| 20260508190413 | 59 | 90 | 4.0 | 9.0 | 0.00 | 0.00 | 0.00 | 61 | 1013.3 |
| 20260508190001 | 59 | 71 | 4.0 | 9.0 | 0.00 | 0.00 | 0.00 | 60 | 1013.3 |
| 20260508185901 | 59 | 109 | 4.0 | 9.0 | 0.00 | 0.00 | 0.00 | 61 | 1013.3 |
| 20260508185801 | 60 | 61 | 4.0 | 9.0 | 0.00 | 0.00 | 0.00 | 60 | 1013.3 |
| 20260508185700 | 60 | 69 | 4.0 | 9.0 | 0.00 | 0.00 | 0.00 | 60 | 1013.3 |
| 20260508185600 | 60 | 88 | 4.0 | 9.0 | 0.00 | 0.00 | 0.00 | 60 | 1013.3 |
| 20260508185500 | 60 | 78 | 4.0 | 10.0 | 0.00 | 0.00 | 0.00 | 60 | 1013.2 |
| 20260508185401 | 60 | 45 | 4.0 | 10.0 | 0.00 | 0.00 | 0.00 | 60 | 1013.2 |
| 20260508185301 | 60 | 101 | 4.0 | 10.0 | 0.00 | 0.00 | 0.00 | 60 | 1013.2 |
| 20260508185201 | 60 | 111 | 4.0 | 10.0 | 0.00 | 0.00 | 0.00 | 60 | 1013.2 |
| 20260508185101 | 60 | 78 | 4.0 | 10.0 | 0.00 | 0.00 | 0.00 | 60 | 1013.2 |
| 20260508185001 | 60 | 69 | 4.0 | 10.0 | 0.00 | 0.00 | 0.00 | 60 | 1013.2 |
| 20260508184920 | 60 | 78 | 4.0 | 10.0 | 0.00 | 0.00 | 0.00 | 60 | 1013.2 |
| 20260508184916 | 60 | 69 | 4.0 | 10.0 | 0.00 | 0.00 | 0.00 | 60 | 1013.2 |
| 20260508184912 | 60 | 65 | 4.0 | 10.0 | 0.00 | 0.00 | 0.00 | 59 | 1013.1 |
| 20260508184649 | 60 | 57 | 3.0 | 9.0 | 0.00 | 0.00 | 0.00 | 59 | 1013.1 |
| 20260508184644 | 60 | 86 | 3.0 | 10.0 | 0.00 | 0.00 | 0.00 | 59 | 1013.1 |
| 20260508184640 | 60 | 83 | 3.0 | 10.0 | 0.00 | 0.00 | 0.00 | 59 | 1013.1 |
| 20260508184421 | 60 | 72 | 3.0 | 9.0 | 0.00 | 0.00 | 0.00 | 59 | 1013.1 |
| 20260508184417 | 60 | 66 | 3.0 | 9.0 | 0.00 | 0.00 | 0.00 | 59 | 1013.1 |
| 20260508184413 | 60 | 57 | 3.0 | 9.0 | 0.00 | 0.00 | 0.00 | 59 | 1013.1 |
| 20260508184100 | 60 | 72 | 3.0 | 10.0 | 0.00 | 0.00 | 0.00 | 59 | 1013.1 |
| 20260508184001 | 60 | 76 | 3.0 | 10.0 | 0.00 | 0.00 | 0.00 | 59 | 1013.0 |
| 20260508183901 | 60 | 99 | 3.0 | 10.0 | 0.00 | 0.00 | 0.00 | 59 | 1013.1 |
| 20260508183802 | 60 | 96 | 3.0 | 10.0 | 0.00 | 0.00 | 0.00 | 58 | 1013.1 |
| 20260508183701 | 60 | 77 | 3.0 | 10.0 | 0.00 | 0.00 | 0.00 | 58 | 1013.1 |
| 20260508183601 | 61 | 75 | 3.0 | 10.0 | 0.00 | 0.00 | 0.00 | 58 | 1013.0 |
| 20260508183501 | 61 | 91 | 3.0 | 10.0 | 0.00 | 0.00 | 0.00 | 58 | 1013.1 |
| 20260508183401 | 61 | 103 | 3.0 | 10.0 | 0.00 | 0.00 | 0.00 | 58 | 1013.1 |
| 20260508183301 | 61 | 72 | 3.0 | 10.0 | 0.00 | 0.00 | 0.00 | 58 | 1013.1 |
| 20260508183201 | 61 | 69 | 3.0 | 10.0 | 0.00 | 0.00 | 0.00 | 58 | 1013.1 |
| 20260508183101 | 61 | 65 | 3.0 | 8.0 | 0.00 | 0.00 | 0.00 | 58 | 1013.1 |
| 20260508183001 | 61 | 76 | 3.0 | 9.0 | 0.00 | 0.00 | 0.00 | 58 | 1013.1 |
| 20260508182901 | 61 | 88 | 3.0 | 9.0 | 0.00 | 0.00 | 0.00 | 58 | 1013.0 |
| 20260508182801 | 61 | 84 | 3.0 | 9.0 | 0.00 | 0.00 | 0.00 | 57 | 1013.0 |
| 20260508182701 | 61 | 80 | 3.0 | 9.0 | 0.00 | 0.00 | 0.00 | 57 | 1013.0 |
| 20260508182601 | 61 | 65 | 3.0 | 9.0 | 0.00 | 0.00 | 0.00 | 57 | 1013.0 |
| 20260508182500 | 61 | 69 | 4.0 | 9.0 | 0.00 | 0.00 | 0.00 | 57 | 1013.0 |
| 20260508182401 | 62 | 104 | 3.0 | 9.0 | 0.00 | 0.00 | 0.00 | 57 | 1013.0 |
| 20260508182300 | 62 | 76 | 3.0 | 9.0 | 0.00 | 0.00 | 0.00 | 57 | 1012.9 |
| 20260508182200 | 62 | 115 | 3.0 | 9.0 | 0.00 | 0.00 | 0.00 | 57 | 1013.0 |
| 20260508182100 | 62 | 69 | 3.0 | 9.0 | 0.00 | 0.00 | 0.00 | 57 | 1012.9 |
| 20260508182001 | 62 | 78 | 3.0 | 9.0 | 0.00 | 0.00 | 0.00 | 57 | 1012.9 |
| 20260508181900 | 62 | 79 | 3.0 | 9.0 | 0.00 | 0.00 | 0.00 | 57 | 1012.9 |
| 20260508181801 | 62 | 63 | 3.0 | 9.0 | 0.00 | 0.00 | 0.00 | 57 | 1012.9 |
| 20260508181701 | 62 | 64 | 3.0 | 9.0 | 0.00 | 0.00 | 0.00 | 57 | 1012.9 |
| 20260508181601 | 62 | 55 | 3.0 | 9.0 | 0.00 | 0.00 | 0.00 | 56 | 1012.9 |
| 20260508181501 | 62 | 42 | 3.0 | 9.0 | 0.00 | 0.00 | 0.00 | 56 | 1012.9 |
| 20260508181401 | 62 | 57 | 3.0 | 9.0 | 0.00 | 0.00 | 0.00 | 56 | 1012.8 |
| 20260508181301 | 62 | 70 | 3.0 | 9.0 | 0.00 | 0.00 | 0.00 | 56 | 1012.8 |
| 20260508181200 | 62 | 92 | 3.0 | 8.0 | 0.00 | 0.00 | 0.00 | 56 | 1012.8 |
| 20260508181101 | 62 | 92 | 3.0 | 8.0 | 0.00 | 0.00 | 0.00 | 56 | 1012.8 |
| 20260508181001 | 62 | 65 | 3.0 | 8.0 | 0.00 | 0.00 | 0.00 | 56 | 1012.8 |
| 20260508180901 | 62 | 91 | 3.0 | 8.0 | 0.00 | 0.00 | 0.00 | 56 | 1012.8 |
| 20260508180801 | 62 | 82 | 3.0 | 8.0 | 0.00 | 0.00 | 0.00 | 56 | 1012.7 |
| 20260508180701 | 62 | 78 | 3.0 | 8.0 | 0.00 | 0.00 | 0.00 | 56 | 1012.8 |
| 20260508180601 | 62 | 46 | 3.0 | 8.0 | 0.00 | 0.00 | 0.00 | 56 | 1012.8 |
| 20260508180501 | 62 | 38 | 3.0 | 8.0 | 0.00 | 0.00 | 0.00 | 56 | 1012.8 |
| 20260508180400 | 62 | 83 | 3.0 | 8.0 | 0.00 | 0.00 | 0.00 | 56 | 1012.7 |
| 20260508180301 | 63 | 86 | 2.0 | 8.0 | 0.00 | 0.00 | 0.00 | 55 | 1012.7 |
| 20260508180201 | 63 | 74 | 2.0 | 8.0 | 0.00 | 0.00 | 0.00 | 55 | 1012.7 |
| 20260508180101 | 63 | 85 | 2.0 | 8.0 | 0.00 | 0.00 | 0.00 | 55 | 1012.7 |
| 20260508180001 | 63 | 76 | 2.0 | 8.0 | 0.00 | 0.00 | 0.00 | 55 | 1012.7 |
| 20260508175901 | 63 | 93 | 2.0 | 8.0 | 0.00 | 0.00 | 0.00 | 55 | 1012.7 |
| 20260508175801 | 63 | 106 | 2.0 | 8.0 | 0.00 | 0.00 | 0.00 | 55 | 1012.7 |
| 20260508175700 | 63 | 97 | 2.0 | 8.0 | 0.00 | 0.00 | 0.00 | 55 | 1012.7 |
| 20260508175600 | 63 | 124 | 2.0 | 8.0 | 0.00 | 0.00 | 0.00 | 55 | 1012.7 |
| 20260508175500 | 63 | 77 | 2.0 | 8.0 | 0.00 | 0.00 | 0.00 | 54 | 1012.7 |
| 20260508175405 | 63 | 111 | 2.0 | 7.0 | 0.00 | 0.00 | 0.00 | 55 | 1012.7 |
| 20260508175300 | 63 | 89 | 2.0 | 8.0 | 0.00 | 0.00 | 0.00 | 54 | 1012.7 |
| 20260508175200 | 63 | 98 | 2.0 | 8.0 | 0.00 | 0.00 | 0.00 | 55 | 1012.6 |
| 20260508175101 | 63 | 84 | 2.0 | 9.0 | 0.00 | 0.00 | 0.00 | 55 | 1012.7 |
| 20260508175001 | 63 | 68 | 3.0 | 9.0 | 0.00 | 0.00 | 0.00 | 55 | 1012.7 |
| 20260508174904 | 63 | 61 | 3.0 | 9.0 | 0.00 | 0.00 | 0.00 | 54 | 1012.6 |
| 20260508174800 | 64 | 97 | 3.0 | 9.0 | 0.00 | 0.00 | 0.00 | 54 | 1012.7 |
| 20260508174700 | 64 | 98 | 3.0 | 9.0 | 0.00 | 0.00 | 0.00 | 54 | 1012.6 |
| 20260508174600 | 64 | 90 | 3.0 | 9.0 | 0.00 | 0.00 | 0.00 | 53 | 1012.6 |
| 20260508174500 | 64 | 126 | 3.0 | 9.0 | 0.00 | 0.00 | 0.00 | 54 | 1012.6 |
| 20260508174401 | 64 | 100 | 3.0 | 9.0 | 0.00 | 0.00 | 0.00 | 54 | 1012.6 |
| 20260508174303 | 64 | 85 | 3.0 | 9.0 | 0.00 | 0.00 | 0.00 | 54 | 1012.5 |
| 20260508174200 | 64 | 73 | 4.0 | 11.0 | 0.00 | 0.00 | 0.00 | 53 | 1012.5 |
| 20260508174100 | 64 | 82 | 4.0 | 11.0 | 0.00 | 0.00 | 0.00 | 53 | 1012.5 |
| 20260508174001 | 64 | 78 | 3.0 | 11.0 | 0.00 | 0.00 | 0.00 | 54 | 1012.5 |
| 20260508173901 | 64 | 92 | 3.0 | 11.0 | 0.00 | 0.00 | 0.00 | 53 | 1012.5 |
| 20260508173800 | 64 | 86 | 3.0 | 11.0 | 0.00 | 0.00 | 0.00 | 53 | 1012.5 |
| 20260508173701 | 64 | 76 | 3.0 | 11.0 | 0.00 | 0.00 | 0.00 | 54 | 1012.5 |
| 20260508173601 | 64 | 98 | 3.0 | 11.0 | 0.00 | 0.00 | 0.00 | 54 | 1012.5 |
| 20260508173501 | 64 | 97 | 3.0 | 11.0 | 0.00 | 0.00 | 0.00 | 53 | 1012.5 |
| 20260508173401 | 64 | 57 | 3.0 | 11.0 | 0.00 | 0.00 | 0.00 | 53 | 1012.5 |
| 20260508173301 | 64 | 78 | 3.0 | 11.0 | 0.00 | 0.00 | 0.00 | 54 | 1012.5 |
| 20260508173201 | 64 | 86 | 2.0 | 7.0 | 0.00 | 0.00 | 0.00 | 54 | 1012.4 |
| 20260508173101 | 64 | 96 | 3.0 | 9.0 | 0.00 | 0.00 | 0.00 | 53 | 1012.5 |
| 20260508173001 | 64 | 105 | 3.0 | 9.0 | 0.00 | 0.00 | 0.00 | 53 | 1012.5 |
| 20260508172900 | 64 | 74 | 3.0 | 9.0 | 0.00 | 0.00 | 0.00 | 53 | 1012.4 |
| 20260508172801 | 64 | 43 | 3.0 | 9.0 | 0.00 | 0.00 | 0.00 | 54 | 1012.5 |
| 20260508172701 | 64 | 92 | 3.0 | 9.0 | 0.00 | 0.00 | 0.00 | 55 | 1012.5 |
| 20260508172601 | 64 | 96 | 3.0 | 9.0 | 0.00 | 0.00 | 0.00 | 54 | 1012.4 |
| 20260508172501 | 64 | 65 | 3.0 | 9.0 | 0.00 | 0.00 | 0.00 | 53 | 1012.4 |
| 20260508172400 | 64 | 90 | 3.0 | 9.0 | 0.00 | 0.00 | 0.00 | 53 | 1012.4 |
| 20260508172300 | 64 | 111 | 3.0 | 9.0 | 0.00 | 0.00 | 0.00 | 53 | 1012.4 |
| 20260508172200 | 64 | 85 | 2.0 | 9.0 | 0.00 | 0.00 | 0.00 | 53 | 1012.4 |
| 20260508172100 | 64 | 123 | 2.0 | 7.0 | 0.00 | 0.00 | 0.00 | 53 | 1012.4 |
| 20260508172000 | 64 | 96 | 2.0 | 7.0 | 0.00 | 0.00 | 0.00 | 53 | 1012.4 |
| 20260508171923 | 64 | 50 | 2.0 | 7.0 | 0.00 | 0.00 | 0.00 | 53 | 1012.4 |
| 20260508171915 | 64 | 104 | 2.0 | 7.0 | 0.00 | 0.00 | 0.00 | 53 | 1012.4 |
| 20260508171911 | 64 | 69 | 2.0 | 7.0 | 0.00 | 0.00 | 0.00 | 53 | 1012.4 |
| 20260508171601 | 64 | 61 | 2.0 | 7.0 | 0.00 | 0.00 | 0.00 | 53 | 1012.3 |
| 20260508171501 | 64 | 71 | 2.0 | 7.0 | 0.00 | 0.00 | 0.00 | 53 | 1012.3 |
| 20260508171400 | 64 | 80 | 2.0 | 7.0 | 0.00 | 0.00 | 0.00 | 54 | 1012.4 |
| 20260508171301 | 64 | 84 | 2.0 | 7.0 | 0.00 | 0.00 | 0.00 | 53 | 1012.3 |
| 20260508171201 | 64 | 93 | 2.0 | 7.0 | 0.00 | 0.00 | 0.00 | 53 | 1012.3 |
| 20260508171101 | 64 | 69 | 2.0 | 11.0 | 0.00 | 0.00 | 0.00 | 53 | 1012.3 |
| 20260508171001 | 64 | 40 | 2.0 | 11.0 | 0.00 | 0.00 | 0.00 | 53 | 1012.3 |
| 20260508170801 | 64 | 94 | 3.0 | 11.0 | 0.00 | 0.00 | 0.00 | 52 | 1012.3 |
| 20260508170701 | 64 | 118 | 3.0 | 11.0 | 0.00 | 0.00 | 0.00 | 52 | 1012.3 |
| 20260508170600 | 64 | 100 | 3.0 | 11.0 | 0.00 | 0.00 | 0.00 | 53 | 1012.3 |
| 20260508170500 | 64 | 129 | 3.0 | 11.0 | 0.00 | 0.00 | 0.00 | 54 | 1012.3 |
| 20260508170400 | 64 | 96 | 3.0 | 11.0 | 0.00 | 0.00 | 0.00 | 54 | 1012.3 |
| 20260508170300 | 64 | 98 | 3.0 | 11.0 | 0.00 | 0.00 | 0.00 | 54 | 1012.1 |
| 20260508170201 | 64 | 114 | 3.0 | 11.0 | 0.00 | 0.00 | 0.00 | 53 | 1012.1 |
| 20260508170001 | 64 | 56 | 3.0 | 9.0 | 0.00 | 0.00 | 0.00 | 53 | 1012.1 |
| 20260508165923 | 64 | 98 | 3.0 | 9.0 | 0.00 | 0.00 | 0.00 | 53 | 1012.1 |
| 20260508165915 | 64 | 58 | 3.0 | 9.0 | 0.00 | 0.00 | 0.00 | 53 | 1012.1 |
| 20260508165911 | 64 | 102 | 3.0 | 9.0 | 0.00 | 0.00 | 0.00 | 53 | 1012.1 |
| 20260508165600 | 64 | 133 | 3.0 | 9.0 | 0.00 | 0.00 | 0.00 | 53 | 1012.1 |
| 20260508165501 | 64 | 90 | 3.0 | 9.0 | 0.00 | 0.00 | 0.00 | 54 | 1012.1 |
| 20260508165400 | 64 | 121 | 3.0 | 9.0 | 0.00 | 0.00 | 0.00 | 53 | 1012.3 |
| 20260508165300 | 64 | 74 | 3.0 | 9.0 | 0.00 | 0.00 | 0.00 | 53 | 1012.1 |
| 20260508165201 | 64 | 78 | 3.0 | 9.0 | 0.00 | 0.00 | 0.00 | 53 | 1012.1 |
| 20260508165101 | 64 | 74 | 3.0 | 9.0 | 0.00 | 0.00 | 0.00 | 53 | 1012.1 |
| 20260508165001 | 64 | 86 | 3.0 | 9.0 | 0.00 | 0.00 | 0.00 | 53 | 1012.1 |
| 20260508164901 | 64 | 89 | 3.0 | 9.0 | 0.00 | 0.00 | 0.00 | 52 | 1012.1 |
| 20260508164800 | 64 | 63 | 2.0 | 9.0 | 0.00 | 0.00 | 0.00 | 53 | 1012.1 |
| 20260508164701 | 64 | 119 | 2.0 | 9.0 | 0.00 | 0.00 | 0.00 | 53 | 1012.1 |
| 20260508164601 | 64 | 18 | 2.0 | 8.0 | 0.00 | 0.00 | 0.00 | 53 | 1012.1 |
| 20260508164501 | 64 | 126 | 2.0 | 8.0 | 0.00 | 0.00 | 0.00 | 53 | 1012.0 |
| 20260508164401 | 64 | 120 | 2.0 | 8.0 | 0.00 | 0.00 | 0.00 | 52 | 1012.0 |
| 20260508164302 | 64 | 100 | 2.0 | 8.0 | 0.00 | 0.00 | 0.00 | 52 | 1012.0 |
| 20260508164202 | 64 | 98 | 2.0 | 9.0 | 0.00 | 0.00 | 0.00 | 52 | 1012.1 |
| 20260508164100 | 64 | 96 | 3.0 | 9.0 | 0.00 | 0.00 | 0.00 | 52 | 1012.1 |
| 20260508164000 | 64 | 126 | 2.0 | 9.0 | 0.00 | 0.00 | 0.00 | 52 | 1012.1 |
| 20260508163901 | 64 | 84 | 2.0 | 9.0 | 0.00 | 0.00 | 0.00 | 52 | 1012.1 |
| 20260508163801 | 64 | 94 | 2.0 | 9.0 | 0.00 | 0.00 | 0.00 | 51 | 1012.1 |
| 20260508163701 | 64 | 74 | 2.0 | 9.0 | 0.00 | 0.00 | 0.00 | 52 | 1012.1 |
| 20260508163601 | 65 | 77 | 2.0 | 9.0 | 0.00 | 0.00 | 0.00 | 53 | 1012.1 |
| 20260508163501 | 64 | 93 | 3.0 | 9.0 | 0.00 | 0.00 | 0.00 | 52 | 1012.3 |
| 20260508163400 | 65 | 71 | 3.0 | 9.0 | 0.00 | 0.00 | 0.00 | 53 | 1012.3 |
| 20260508163300 | 65 | 63 | 2.0 | 9.0 | 0.00 | 0.00 | 0.00 | 52 | 1012.1 |
| 20260508163201 | 65 | 77 | 2.0 | 7.0 | 0.00 | 0.00 | 0.00 | 53 | 1012.1 |
| 20260508163101 | 65 | 93 | 2.0 | 7.0 | 0.00 | 0.00 | 0.00 | 52 | 1012.1 |
| 20260508163001 | 65 | 115 | 2.0 | 7.0 | 0.00 | 0.00 | 0.00 | 52 | 1012.1 |
| 20260508162901 | 65 | 87 | 2.0 | 7.0 | 0.00 | 0.00 | 0.00 | 51 | 1012.1 |
| 20260508162801 | 65 | 120 | 2.0 | 7.0 | 0.00 | 0.00 | 0.00 | 52 | 1012.1 |
| 20260508162701 | 65 | 88 | 2.0 | 7.0 | 0.00 | 0.00 | 0.00 | 51 | 1012.1 |
| 20260508162600 | 65 | 83 | 2.0 | 7.0 | 0.00 | 0.00 | 0.00 | 51 | 1012.1 |
| 20260508162500 | 65 | 89 | 2.0 | 8.0 | 0.00 | 0.00 | 0.00 | 52 | 1012.1 |
| 20260508162400 | 65 | 110 | 2.0 | 8.0 | 0.00 | 0.00 | 0.00 | 52 | 1012.1 |
| 20260508162300 | 65 | 109 | 2.0 | 8.0 | 0.00 | 0.00 | 0.00 | 52 | 1012.3 |
| 20260508162200 | 65 | 111 | 2.0 | 8.0 | 0.00 | 0.00 | 0.00 | 52 | 1012.1 |
| 20260508162101 | 65 | 102 | 2.0 | 8.0 | 0.00 | 0.00 | 0.00 | 51 | 1012.3 |
| 20260508162001 | 65 | 92 | 2.0 | 8.0 | 0.00 | 0.00 | 0.00 | 52 | 1012.3 |
| 20260508161901 | 65 | 92 | 2.0 | 8.0 | 0.00 | 0.00 | 0.00 | 52 | 1012.3 |
| 20260508161805 | 65 | 96 | 2.0 | 8.0 | 0.00 | 0.00 | 0.00 | 52 | 1012.1 |
| 20260508161700 | 65 | 93 | 2.0 | 8.0 | 0.00 | 0.00 | 0.00 | 51 | 1012.1 |
| 20260508161600 | 65 | 94 | 2.0 | 8.0 | 0.00 | 0.00 | 0.00 | 51 | 1012.1 |
| 20260508161500 | 65 | 107 | 2.0 | 7.0 | 0.00 | 0.00 | 0.00 | 52 | 1012.1 |
| 20260508161401 | 65 | 113 | 2.0 | 7.0 | 0.00 | 0.00 | 0.00 | 52 | 1012.1 |
| 20260508161301 | 65 | 113 | 2.0 | 9.0 | 0.00 | 0.00 | 0.00 | 52 | 1012.1 |
| 20260508161201 | 65 | 91 | 2.0 | 9.0 | 0.00 | 0.00 | 0.00 | 52 | 1012.1 |
| 20260508161101 | 65 | 90 | 2.0 | 9.0 | 0.00 | 0.00 | 0.00 | 51 | 1012.1 |
| 20260508161001 | 65 | 110 | 2.0 | 9.0 | 0.00 | 0.00 | 0.00 | 52 | 1012.1 |
| 20260508160901 | 65 | 73 | 2.0 | 9.0 | 0.00 | 0.00 | 0.00 | 51 | 1012.1 |
| 20260508160802 | 65 | 88 | 2.0 | 9.0 | 0.00 | 0.00 | 0.00 | 51 | 1012.1 |
| 20260508160700 | 65 | 96 | 2.0 | 9.0 | 0.00 | 0.00 | 0.00 | 52 | 1012.1 |
| 20260508160601 | 65 | 93 | 2.0 | 9.0 | 0.00 | 0.00 | 0.00 | 51 | 1012.0 |
| 20260508160500 | 65 | 90 | 2.0 | 9.0 | 0.00 | 0.00 | 0.00 | 50 | 1012.0 |
| 20260508160400 | 65 | 105 | 2.0 | 9.0 | 0.00 | 0.00 | 0.00 | 51 | 1012.0 |
| 20260508160301 | 65 | 82 | 2.0 | 9.0 | 0.00 | 0.00 | 0.00 | 51 | 1012.1 |
| 20260508160200 | 65 | 98 | 2.0 | 9.0 | 0.00 | 0.00 | 0.00 | 51 | 1012.1 |
| 20260508160001 | 65 | 91 | 3.0 | 9.0 | 0.00 | 0.00 | 0.00 | 51 | 1012.1 |
| 20260508155923 | 66 | 98 | 2.0 | 9.0 | 0.00 | 0.00 | 0.00 | 50 | 1012.1 |
| 20260508155915 | 66 | 80 | 3.0 | 9.0 | 0.00 | 0.00 | 0.00 | 52 | 1012.1 |
| 20260508155903 | 66 | 67 | 3.0 | 9.0 | 0.00 | 0.00 | 0.00 | 50 | 1012.1 |
| 20260508155643 | 66 | 109 | 3.0 | 9.0 | 0.00 | 0.00 | 0.00 | 52 | 1012.1 |
| 20260508155424 | 66 | 78 | 3.0 | 9.0 | 0.00 | 0.00 | 0.00 | 50 | 1012.0 |
| 20260508155420 | 66 | 88 | 3.0 | 9.0 | 0.00 | 0.00 | 0.00 | 51 | 1012.0 |
| 20260508155412 | 66 | 98 | 2.0 | 9.0 | 0.00 | 0.00 | 0.00 | 50 | 1012.1 |
| 20260508155101 | 66 | 83 | 2.0 | 9.0 | 0.00 | 0.00 | 0.00 | 49 | 1012.1 |
| 20260508155001 | 66 | 92 | 2.0 | 9.0 | 0.00 | 0.00 | 0.00 | 50 | 1012.1 |
| 20260508154900 | 66 | 112 | 2.0 | 9.0 | 0.00 | 0.00 | 0.00 | 51 | 1012.0 |
| 20260508154800 | 66 | 110 | 2.0 | 7.0 | 0.00 | 0.00 | 0.00 | 50 | 1012.1 |
| 20260508154700 | 66 | 113 | 2.0 | 5.0 | 0.00 | 0.00 | 0.00 | 50 | 1012.1 |
| 20260508154600 | 66 | 92 | 2.0 | 7.0 | 0.00 | 0.00 | 0.00 | 50 | 1012.1 |
| 20260508154500 | 66 | 75 | 2.0 | 7.0 | 0.00 | 0.00 | 0.00 | 50 | 1012.1 |
| 20260508154401 | 66 | 88 | 2.0 | 7.0 | 0.00 | 0.00 | 0.00 | 50 | 1012.1 |
| 20260508154301 | 66 | 46 | 2.0 | 7.0 | 0.00 | 0.00 | 0.00 | 50 | 1012.1 |
| 20260508154201 | 67 | 102 | 2.0 | 7.0 | 0.00 | 0.00 | 0.00 | 51 | 1012.1 |
| 20260508154153 | 67 | 71 | 3.0 | 7.0 | 0.00 | 0.00 | 0.00 | 49 | 1012.1 |
| 20260508154146 | 67 | 93 | 3.0 | 7.0 | 0.00 | 0.00 | 0.00 | 51 | 1012.1 |
| 20260508154142 | 67 | 109 | 3.0 | 7.0 | 0.00 | 0.00 | 0.00 | 49 | 1012.1 |
| 20260508153925 | 67 | 92 | 3.0 | 7.0 | 0.00 | 0.00 | 0.00 | 49 | 1012.1 |
| 20260508153921 | 67 | 100 | 3.0 | 7.0 | 0.00 | 0.00 | 0.00 | 49 | 1012.1 |
| 20260508153913 | 67 | 71 | 3.0 | 7.0 | 0.00 | 0.00 | 0.00 | 49 | 1012.1 |
| 20260508153600 | 67 | 89 | 3.0 | 6.0 | 0.00 | 0.00 | 0.00 | 48 | 1012.1 |
| 20260508153500 | 67 | 80 | 3.0 | 6.0 | 0.00 | 0.00 | 0.00 | 49 | 1012.1 |
| 20260508153400 | 67 | 83 | 3.0 | 6.0 | 0.00 | 0.00 | 0.00 | 50 | 1012.1 |
| 20260508153300 | 67 | 63 | 2.0 | 6.0 | 0.00 | 0.00 | 0.00 | 49 | 1012.1 |
| 20260508153201 | 67 | 114 | 3.0 | 6.0 | 0.00 | 0.00 | 0.00 | 49 | 1012.1 |
| 20260508153101 | 67 | 71 | 3.0 | 6.0 | 0.00 | 0.00 | 0.00 | 49 | 1012.1 |
| 20260508153001 | 67 | 47 | 3.0 | 8.0 | 0.00 | 0.00 | 0.00 | 49 | 1012.3 |
| 20260508152901 | 67 | 65 | 3.0 | 8.0 | 0.00 | 0.00 | 0.00 | 48 | 1012.3 |
| 20260508152801 | 67 | 101 | 3.0 | 8.0 | 0.00 | 0.00 | 0.00 | 49 | 1012.3 |
| 20260508152701 | 67 | 85 | 3.0 | 8.0 | 0.00 | 0.00 | 0.00 | 49 | 1012.3 |
| 20260508152601 | 67 | 95 | 3.0 | 8.0 | 0.00 | 0.00 | 0.00 | 49 | 1012.3 |
| 20260508152501 | 67 | 99 | 3.0 | 8.0 | 0.00 | 0.00 | 0.00 | 49 | 1012.3 |
| 20260508152400 | 67 | 130 | 3.0 | 8.0 | 0.00 | 0.00 | 0.00 | 49 | 1012.3 |
| 20260508152300 | 67 | 59 | 3.0 | 8.0 | 0.00 | 0.00 | 0.00 | 49 | 1012.3 |
| 20260508152201 | 67 | 97 | 3.0 | 8.0 | 0.00 | 0.00 | 0.00 | 49 | 1012.3 |
| 20260508152101 | 67 | 102 | 3.0 | 8.0 | 0.00 | 0.00 | 0.00 | 49 | 1012.3 |
| 20260508152001 | 67 | 355 | 3.0 | 6.0 | 0.00 | 0.00 | 0.00 | 49 | 1012.3 |
| 20260508151901 | 67 | 329 | 3.0 | 6.0 | 0.00 | 0.00 | 0.00 | 50 | 1012.4 |
| 20260508151800 | 67 | 50 | 3.0 | 6.0 | 0.00 | 0.00 | 0.00 | 50 | 1012.4 |
| 20260508151700 | 67 | 29 | 3.0 | 7.0 | 0.00 | 0.00 | 0.00 | 50 | 1012.4 |
| 20260508151600 | 67 | 5 | 3.0 | 8.0 | 0.00 | 0.00 | 0.00 | 49 | 1012.4 |
| 20260508151500 | 67 | 49 | 3.0 | 8.0 | 0.00 | 0.00 | 0.00 | 49 | 1012.4 |
| 20260508151400 | 67 | 16 | 3.0 | 8.0 | 0.00 | 0.00 | 0.00 | 50 | 1012.4 |
| 20260508151300 | 67 | 331 | 3.0 | 8.0 | 0.00 | 0.00 | 0.00 | 50 | 1012.5 |
| 20260508151201 | 67 | 24 | 3.0 | 8.0 | 0.00 | 0.00 | 0.00 | 52 | 1012.4 |
| 20260508151101 | 67 | 46 | 4.0 | 12.0 | 0.00 | 0.00 | 0.00 | 51 | 1012.5 |
| 20260508151001 | 67 | 47 | 4.0 | 12.0 | 0.00 | 0.00 | 0.00 | 51 | 1012.5 |
| 20260508150901 | 66 | 37 | 4.0 | 12.0 | 0.00 | 0.00 | 0.00 | 52 | 1012.5 |
| 20260508150801 | 66 | 5 | 4.0 | 12.0 | 0.00 | 0.00 | 0.00 | 51 | 1012.5 |
| 20260508150700 | 66 | 59 | 4.0 | 12.0 | 0.00 | 0.00 | 0.00 | 51 | 1012.5 |
| 20260508150601 | 66 | 91 | 4.0 | 12.0 | 0.00 | 0.00 | 0.00 | 52 | 1012.5 |
| 20260508150500 | 66 | 108 | 4.0 | 12.0 | 0.00 | 0.00 | 0.00 | 52 | 1012.5 |
| 20260508150401 | 66 | 76 | 4.0 | 12.0 | 0.00 | 0.00 | 0.00 | 52 | 1012.6 |
| 20260508150300 | 66 | 69 | 3.0 | 12.0 | 0.00 | 0.00 | 0.00 | 52 | 1012.6 |
| 20260508150201 | 66 | 145 | 3.0 | 12.0 | 0.00 | 0.00 | 0.00 | 53 | 1012.5 |
| 20260508150101 | 66 | 78 | 3.0 | 9.0 | 0.00 | 0.00 | 0.00 | 53 | 1012.5 |
| 20260508150001 | 66 | 31 | 2.0 | 9.0 | 0.00 | 0.00 | 0.00 | 53 | 1012.5 |
| 20260508145900 | 66 | 90 | 2.0 | 9.0 | 0.00 | 0.00 | 0.00 | 53 | 1012.6 |
| 20260508145800 | 66 | 87 | 2.0 | 9.0 | 0.00 | 0.00 | 0.00 | 52 | 1012.6 |
| 20260508145701 | 66 | 61 | 2.0 | 7.0 | 0.00 | 0.00 | 0.00 | 50 | 1012.6 |
| 20260508145600 | 66 | 117 | 2.0 | 9.0 | 0.00 | 0.00 | 0.00 | 50 | 1012.6 |
| 20260508145500 | 66 | 103 | 2.0 | 9.0 | 0.00 | 0.00 | 0.00 | 50 | 1012.6 |
| 20260508145425 | 66 | 110 | 2.0 | 9.0 | 0.00 | 0.00 | 0.00 | 50 | 1012.6 |
| 20260508145421 | 66 | 111 | 2.0 | 10.0 | 0.00 | 0.00 | 0.00 | 51 | 1012.6 |
| 20260508145411 | 66 | 109 | 3.0 | 10.0 | 0.00 | 0.00 | 0.00 | 50 | 1012.6 |
| 20260508145100 | 67 | 109 | 3.0 | 10.0 | 0.00 | 0.00 | 0.00 | 50 | 1012.6 |
| 20260508145001 | 67 | 112 | 3.0 | 10.0 | 0.00 | 0.00 | 0.00 | 49 | 1012.6 |
| 20260508144901 | 67 | 109 | 3.0 | 10.0 | 0.00 | 0.00 | 0.00 | 49 | 1012.6 |
| 20260508144801 | 67 | 93 | 3.0 | 10.0 | 0.00 | 0.00 | 0.00 | 49 | 1012.6 |
| 20260508144700 | 67 | 95 | 3.0 | 10.0 | 0.00 | 0.00 | 0.00 | 49 | 1012.6 |
| 20260508144601 | 67 | 59 | 3.0 | 10.0 | 0.00 | 0.00 | 0.00 | 49 | 1012.6 |
| 20260508144501 | 67 | 77 | 3.0 | 10.0 | 0.00 | 0.00 | 0.00 | 50 | 1012.6 |
| 20260508144401 | 67 | 88 | 2.0 | 10.0 | 0.00 | 0.00 | 0.00 | 49 | 1012.6 |
| 20260508144302 | 67 | 84 | 2.0 | 7.0 | 0.00 | 0.00 | 0.00 | 49 | 1012.6 |
| 20260508144201 | 68 | 73 | 2.0 | 7.0 | 0.00 | 0.00 | 0.00 | 49 | 1012.6 |
| 20260508144100 | 68 | 73 | 2.0 | 7.0 | 0.00 | 0.00 | 0.00 | 48 | 1012.6 |
| 20260508144000 | 68 | 72 | 2.0 | 7.0 | 0.00 | 0.00 | 0.00 | 48 | 1012.6 |
| 20260508143900 | 68 | 58 | 3.0 | 7.0 | 0.00 | 0.00 | 0.00 | 51 | 1012.6 |
| 20260508143801 | 68 | 37 | 3.0 | 7.0 | 0.00 | 0.00 | 0.00 | 49 | 1012.6 |
| 20260508143700 | 68 | 30 | 3.0 | 7.0 | 0.00 | 0.00 | 0.00 | 51 | 1012.6 |
| 20260508143601 | 68 | 70 | 2.0 | 7.0 | 0.00 | 0.00 | 0.00 | 50 | 1012.6 |
| 20260508143500 | 68 | 82 | 2.0 | 7.0 | 0.00 | 0.00 | 0.00 | 50 | 1012.6 |
| 20260508143400 | 68 | 78 | 2.0 | 7.0 | 0.00 | 0.00 | 0.00 | 49 | 1012.6 |
| 20260508143301 | 68 | 73 | 2.0 | 7.0 | 0.00 | 0.00 | 0.00 | 48 | 1012.6 |
| 20260508143200 | 68 | 54 | 2.0 | 7.0 | 0.00 | 0.00 | 0.00 | 49 | 1012.6 |
| 20260508143101 | 68 | 11 | 2.0 | 7.0 | 0.00 | 0.00 | 0.00 | 51 | 1012.7 |
| 20260508143001 | 68 | 63 | 2.0 | 7.0 | 0.00 | 0.00 | 0.00 | 50 | 1012.7 |
| 20260508142901 | 68 | 57 | 2.0 | 7.0 | 0.00 | 0.00 | 0.00 | 49 | 1012.7 |
| 20260508142801 | 68 | 37 | 2.0 | 7.0 | 0.00 | 0.00 | 0.00 | 49 | 1012.7 |
| 20260508142700 | 68 | 120 | 2.0 | 7.0 | 0.00 | 0.00 | 0.00 | 49 | 1012.7 |
| 20260508142601 | 67 | 129 | 2.0 | 7.0 | 0.00 | 0.00 | 0.00 | 50 | 1012.7 |
| 20260508142500 | 67 | 78 | 2.0 | 7.0 | 0.00 | 0.00 | 0.00 | 50 | 1012.7 |
| 20260508142400 | 67 | 77 | 2.0 | 7.0 | 0.00 | 0.00 | 0.00 | 51 | 1012.7 |
| 20260508142300 | 67 | 69 | 2.0 | 7.0 | 0.00 | 0.00 | 0.00 | 50 | 1012.6 |
| 20260508142205 | 67 | 74 | 2.0 | 6.0 | 0.00 | 0.00 | 0.00 | 50 | 1012.7 |
| 20260508142100 | 67 | 65 | 2.0 | 6.0 | 0.00 | 0.00 | 0.00 | 50 | 1012.7 |
| 20260508142000 | 67 | 79 | 2.0 | 6.0 | 0.00 | 0.00 | 0.00 | 49 | 1012.7 |
| 20260508141900 | 67 | 98 | 2.0 | 6.0 | 0.00 | 0.00 | 0.00 | 49 | 1012.6 |
| 20260508141800 | 67 | 98 | 2.0 | 6.0 | 0.00 | 0.00 | 0.00 | 49 | 1012.7 |
| 20260508141703 | 67 | 99 | 2.0 | 6.0 | 0.00 | 0.00 | 0.00 | 50 | 1012.7 |
| 20260508141601 | 67 | 94 | 2.0 | 6.0 | 0.00 | 0.00 | 0.00 | 51 | 1012.7 |
| 20260508141501 | 67 | 57 | 2.0 | 5.0 | 0.00 | 0.00 | 0.00 | 50 | 1012.7 |
| 20260508141401 | 67 | 128 | 2.0 | 5.0 | 0.00 | 0.00 | 0.00 | 49 | 1012.7 |
| 20260508141300 | 67 | 103 | 2.0 | 6.0 | 0.00 | 0.00 | 0.00 | 49 | 1012.7 |
| 20260508141201 | 67 | 103 | 2.0 | 6.0 | 0.00 | 0.00 | 0.00 | 50 | 1012.7 |
| 20260508141100 | 67 | 83 | 2.0 | 7.0 | 0.00 | 0.00 | 0.00 | 51 | 1012.7 |
| 20260508141000 | 67 | 59 | 2.0 | 10.0 | 0.00 | 0.00 | 0.00 | 54 | 1012.7 |
| 20260508140901 | 67 | 42 | 2.0 | 10.0 | 0.00 | 0.00 | 0.00 | 52 | 1012.7 |
| 20260508140801 | 66 | 68 | 2.0 | 10.0 | 0.00 | 0.00 | 0.00 | 52 | 1012.8 |
| 20260508140700 | 66 | 68 | 2.0 | 10.0 | 0.00 | 0.00 | 0.00 | 52 | 1012.7 |
| 20260508140601 | 66 | 78 | 2.0 | 10.0 | 0.00 | 0.00 | 0.00 | 53 | 1012.8 |
| 20260508140501 | 66 | 78 | 2.0 | 10.0 | 0.00 | 0.00 | 0.00 | 52 | 1012.8 |
| 20260508140421 | 66 | 80 | 3.0 | 10.0 | 0.00 | 0.00 | 0.00 | 51 | 1012.8 |
| 20260508140417 | 66 | 108 | 2.0 | 10.0 | 0.00 | 0.00 | 0.00 | 50 | 1012.8 |
| 20260508140413 | 66 | 98 | 2.0 | 10.0 | 0.00 | 0.00 | 0.00 | 51 | 1012.8 |
| 20260508140101 | 66 | 84 | 2.0 | 10.0 | 0.00 | 0.00 | 0.00 | 51 | 1012.9 |
| 20260508140001 | 67 | 84 | 2.0 | 7.0 | 0.00 | 0.00 | 0.00 | 51 | 1012.9 |
| 20260508135900 | 67 | 90 | 3.0 | 7.0 | 0.00 | 0.00 | 0.00 | 50 | 1012.9 |
| 20260508135800 | 67 | 64 | 3.0 | 7.0 | 0.00 | 0.00 | 0.00 | 52 | 1012.9 |
| 20260508135700 | 67 | 56 | 3.0 | 7.0 | 0.00 | 0.00 | 0.00 | 53 | 1012.9 |
| 20260508135601 | 67 | 51 | 3.0 | 7.0 | 0.00 | 0.00 | 0.00 | 52 | 1012.9 |
| 20260508135501 | 66 | 81 | 3.0 | 8.0 | 0.00 | 0.00 | 0.00 | 51 | 1012.9 |
| 20260508135400 | 67 | 112 | 3.0 | 8.0 | 0.00 | 0.00 | 0.00 | 50 | 1012.9 |
| 20260508135300 | 67 | 72 | 3.0 | 8.0 | 0.00 | 0.00 | 0.00 | 51 | 1012.9 |
| 20260508135200 | 67 | 71 | 3.0 | 8.0 | 0.00 | 0.00 | 0.00 | 51 | 1012.9 |
| 20260508135100 | 67 | 111 | 3.0 | 8.0 | 0.00 | 0.00 | 0.00 | 51 | 1012.9 |
| 20260508135000 | 67 | 74 | 4.0 | 9.0 | 0.00 | 0.00 | 0.00 | 51 | 1012.9 |
| 20260508134900 | 67 | 107 | 4.0 | 9.0 | 0.00 | 0.00 | 0.00 | 51 | 1012.9 |
| 20260508134800 | 67 | 90 | 4.0 | 10.0 | 0.00 | 0.00 | 0.00 | 51 | 1012.9 |
| 20260508134700 | 67 | 52 | 4.0 | 10.0 | 0.00 | 0.00 | 0.00 | 52 | 1012.9 |
| 20260508134601 | 67 | 5 | 4.0 | 10.0 | 0.00 | 0.00 | 0.00 | 51 | 1013.0 |
| 20260508134500 | 67 | 49 | 4.0 | 10.0 | 0.00 | 0.00 | 0.00 | 51 | 1013.0 |
| 20260508134401 | 67 | 59 | 3.0 | 10.0 | 0.00 | 0.00 | 0.00 | 52 | 1013.0 |
| 20260508134300 | 67 | 44 | 3.0 | 10.0 | 0.00 | 0.00 | 0.00 | 50 | 1013.0 |
| 20260508134201 | 67 | 75 | 3.0 | 10.0 | 0.00 | 0.00 | 0.00 | 50 | 1013.0 |
| 20260508134102 | 67 | 91 | 3.0 | 10.0 | 0.00 | 0.00 | 0.00 | 51 | 1013.0 |
| 20260508134001 | 67 | 94 | 3.0 | 10.0 | 0.00 | 0.00 | 0.00 | 52 | 1013.0 |
| 20260508133901 | 67 | 77 | 3.0 | 10.0 | 0.00 | 0.00 | 0.00 | 52 | 1013.0 |
| 20260508133801 | 67 | 69 | 3.0 | 10.0 | 0.00 | 0.00 | 0.00 | 51 | 1013.0 |
| 20260508133701 | 67 | 187 | 3.0 | 10.0 | 0.00 | 0.00 | 0.00 | 52 | 1013.0 |
| 20260508133601 | 66 | 57 | 2.0 | 10.0 | 0.00 | 0.00 | 0.00 | 53 | 1013.0 |
| 20260508133501 | 66 | 48 | 2.0 | 7.0 | 0.00 | 0.00 | 0.00 | 53 | 1013.0 |
| 20260508133401 | 66 | 323 | 2.0 | 7.0 | 0.00 | 0.00 | 0.00 | 51 | 1013.0 |
| 20260508133301 | 66 | 115 | 2.0 | 7.0 | 0.00 | 0.00 | 0.00 | 51 | 1013.0 |
| 20260508133201 | 66 | 118 | 2.0 | 7.0 | 0.00 | 0.00 | 0.00 | 51 | 1012.9 |
| 20260508133100 | 66 | 142 | 2.0 | 6.0 | 0.00 | 0.00 | 0.00 | 50 | 1013.0 |
| 20260508133000 | 66 | 117 | 2.0 | 6.0 | 0.00 | 0.00 | 0.00 | 51 | 1013.1 |
| 20260508132901 | 66 | 86 | 2.0 | 6.0 | 0.00 | 0.00 | 0.00 | 49 | 1013.1 |
| 20260508132801 | 66 | 86 | 2.0 | 6.0 | 0.00 | 0.00 | 0.00 | 51 | 1013.0 |
| 20260508132701 | 66 | 94 | 2.0 | 6.0 | 0.00 | 0.00 | 0.00 | 51 | 1013.1 |
| 20260508132601 | 66 | 92 | 2.0 | 6.0 | 0.00 | 0.00 | 0.00 | 50 | 1013.0 |
| 20260508132501 | 66 | 100 | 2.0 | 6.0 | 0.00 | 0.00 | 0.00 | 50 | 1013.1 |
| 20260508132401 | 66 | 98 | 1.0 | 6.0 | 0.00 | 0.00 | 0.00 | 52 | 1013.0 |
| 20260508132300 | 66 | 92 | 1.0 | 6.0 | 0.00 | 0.00 | 0.00 | 50 | 1013.0 |
| 20260508132200 | 66 | 112 | 1.0 | 6.0 | 0.00 | 0.00 | 0.00 | 52 | 1013.0 |
| 20260508132100 | 66 | 112 | 2.0 | 6.0 | 0.00 | 0.00 | 0.00 | 53 | 1013.1 |
| 20260508132000 | 66 | 117 | 1.0 | 6.0 | 0.00 | 0.00 | 0.00 | 51 | 1013.0 |
| 20260508131859 | 66 | 105 | 2.0 | 6.0 | 0.00 | 0.00 | 0.00 | 52 | 1013.0 |
| 20260508131754 | 66 | 133 | 2.0 | 7.0 | 0.00 | 0.00 | 0.00 | 52 | 1013.1 |
| 20260508131701 | 66 | 56 | 2.0 | 8.0 | 0.00 | 0.00 | 0.00 | 51 | 1013.1 |
| 20260508131652 | 66 | 56 | 2.0 | 8.0 | 0.00 | 0.00 | 0.00 | 51 | 1013.1 |
| 20260508131552 | 66 | 55 | 2.0 | 8.0 | 0.00 | 0.00 | 0.00 | 51 | 1013.1 |
| 20260508131452 | 66 | 76 | 2.0 | 8.0 | 0.00 | 0.00 | 0.00 | 51 | 1013.1 |
| 20260508131351 | 66 | 76 | 3.0 | 8.0 | 0.00 | 0.00 | 0.00 | 52 | 1013.1 |
| 20260508131246 | 66 | 67 | 3.0 | 8.0 | 0.00 | 0.00 | 0.00 | 52 | 1013.1 |
| 20260508131201 | 67 | 93 | 3.0 | 8.0 | 0.00 | 0.00 | 0.00 | 53 | 1013.1 |
| 20260508131146 | 67 | 97 | 3.0 | 8.0 | 0.00 | 0.00 | 0.00 | 52 | 1013.1 |
| 20260508131047 | 67 | 82 | 4.0 | 8.0 | 0.00 | 0.00 | 0.00 | 53 | 1013.1 |
| 20260508130946 | 67 | 119 | 4.0 | 10.0 | 0.00 | 0.00 | 0.00 | 52 | 1013.1 |
| 20260508130926 | 67 | 117 | 4.0 | 11.0 | 0.00 | 0.00 | 0.00 | 51 | 1013.1 |
| 20260508130916 | 67 | 93 | 4.0 | 11.0 | 0.00 | 0.00 | 0.00 | 52 | 1013.1 |
| 20260508130912 | 67 | 55 | 4.0 | 11.0 | 0.00 | 0.00 | 0.00 | 52 | 1013.1 |
| 20260508130642 | 67 | 57 | 4.0 | 11.0 | 0.00 | 0.00 | 0.00 | 50 | 1013.1 |
| 20260508130541 | 67 | 76 | 4.0 | 11.0 | 0.00 | 0.00 | 0.00 | 51 | 1013.2 |
| 20260508130440 | 67 | 53 | 4.0 | 11.0 | 0.00 | 0.00 | 0.00 | 52 | 1013.2 |
| 20260508130339 | 67 | 75 | 4.0 | 11.0 | 0.00 | 0.00 | 0.00 | 52 | 1013.2 |
| 20260508130236 | 67 | 30 | 4.0 | 11.0 | 0.00 | 0.00 | 0.00 | 53 | 1013.2 |
| 20260508130200 | 67 | 50 | 4.0 | 11.0 | 0.00 | 0.00 | 0.00 | 53 | 1013.2 |
| 20260508130136 | 67 | 90 | 4.0 | 11.0 | 0.00 | 0.00 | 0.00 | 53 | 1013.2 |
| 20260508130036 | 67 | 60 | 4.0 | 11.0 | 0.00 | 0.00 | 0.00 | 53 | 1013.2 |
| 20260508125936 | 67 | 51 | 4.0 | 11.0 | 0.00 | 0.00 | 0.00 | 54 | 1013.2 |
| 20260508125929 | 66 | 17 | 3.0 | 11.0 | 0.00 | 0.00 | 0.00 | 56 | 1013.3 |
| 20260508125916 | 66 | 78 | 4.0 | 11.0 | 0.00 | 0.00 | 0.00 | 55 | 1013.3 |
| 20260508125912 | 66 | 14 | 3.0 | 11.0 | 0.00 | 0.00 | 0.00 | 54 | 1013.3 |
| 20260508125635 | 66 | 49 | 3.0 | 11.0 | 0.00 | 0.00 | 0.00 | 56 | 1013.3 |
| 20260508125535 | 66 | 46 | 3.0 | 10.0 | 0.00 | 0.00 | 0.00 | 55 | 1013.3 |
| 20260508125434 | 65 | 12 | 3.0 | 9.0 | 0.00 | 0.00 | 0.00 | 55 | 1013.3 |
| 20260508125334 | 65 | 66 | 3.0 | 10.0 | 0.00 | 0.00 | 0.00 | 54 | 1013.3 |
| 20260508125234 | 65 | 119 | 4.0 | 11.0 | 0.00 | 0.00 | 0.00 | 55 | 1013.3 |
| 20260508125200 | 65 | 12 | 4.0 | 12.0 | 0.00 | 0.00 | 0.00 | 56 | 1013.3 |
| 20260508125132 | 65 | 34 | 3.0 | 12.0 | 0.00 | 0.00 | 0.00 | 56 | 1013.3 |
| 20260508125030 | 65 | 321 | 3.0 | 12.0 | 0.00 | 0.00 | 0.00 | 56 | 1013.3 |
| 20260508124831 | 65 | 76 | 3.0 | 12.0 | 0.00 | 0.00 | 0.00 | 55 | 1013.4 |
| 20260508124702 | 65 | 38 | 3.0 | 12.0 | 0.00 | 0.00 | 0.00 | 55 | 1013.4 |
| 20260508124629 | 65 | 335 | 3.0 | 12.0 | 0.00 | 0.00 | 0.00 | 55 | 1013.4 |
| 20260508124529 | 65 | 69 | 3.0 | 12.0 | 0.00 | 0.00 | 0.00 | 55 | 1013.4 |
| 20260508124429 | 64 | 88 | 3.0 | 12.0 | 0.00 | 0.00 | 0.00 | 55 | 1013.4 |
| 20260508124329 | 64 | 5 | 2.0 | 12.0 | 0.00 | 0.00 | 0.00 | 56 | 1013.4 |
| 20260508124229 | 64 | 78 | 2.0 | 12.0 | 0.00 | 0.00 | 0.00 | 55 | 1013.4 |
| 20260508124201 | 64 | 66 | 2.0 | 10.0 | 0.00 | 0.00 | 0.00 | 55 | 1013.4 |
| 20260508124129 | 65 | 86 | 2.0 | 5.0 | 0.00 | 0.00 | 0.00 | 55 | 1013.4 |
| 20260508124029 | 65 | 86 | 2.0 | 5.0 | 0.00 | 0.00 | 0.00 | 53 | 1013.5 |
| 20260508123929 | 65 | 107 | 2.0 | 6.0 | 0.00 | 0.00 | 0.00 | 53 | 1013.4 |
| 20260508123829 | 65 | 98 | 2.0 | 6.0 | 0.00 | 0.00 | 0.00 | 53 | 1013.4 |
| 20260508123729 | 65 | 88 | 2.0 | 7.0 | 0.00 | 0.00 | 0.00 | 54 | 1013.4 |
| 20260508123701 | 65 | 90 | 2.0 | 7.0 | 0.00 | 0.00 | 0.00 | 54 | 1013.4 |
| 20260508123629 | 65 | 36 | 3.0 | 8.0 | 0.00 | 0.00 | 0.00 | 56 | 1013.4 |
| 20260508123529 | 65 | 72 | 3.0 | 9.0 | 0.00 | 0.00 | 0.00 | 55 | 1013.4 |
| 20260508123429 | 65 | 80 | 3.0 | 9.0 | 0.00 | 0.00 | 0.00 | 53 | 1013.4 |
| 20260508123329 | 65 | 115 | 3.0 | 9.0 | 0.00 | 0.00 | 0.00 | 53 | 1013.4 |
| 20260508123229 | 65 | 171 | 3.0 | 9.0 | 0.00 | 0.00 | 0.00 | 53 | 1013.4 |
| 20260508123201 | 65 | 172 | 3.0 | 9.0 | 0.00 | 0.00 | 0.00 | 53 | 1013.4 |
| 20260508123128 | 65 | 133 | 3.0 | 9.0 | 0.00 | 0.00 | 0.00 | 54 | 1013.4 |
| 20260508123029 | 65 | 99 | 3.0 | 9.0 | 0.00 | 0.00 | 0.00 | 54 | 1013.4 |
| 20260508122929 | 65 | 105 | 3.0 | 9.0 | 0.00 | 0.00 | 0.00 | 53 | 1013.4 |
| 20260508122828 | 65 | 105 | 3.0 | 9.0 | 0.00 | 0.00 | 0.00 | 55 | 1013.4 |
| 20260508122728 | 65 | 91 | 3.0 | 9.0 | 0.00 | 0.00 | 0.00 | 56 | 1013.3 |
| 20260508122701 | 65 | 92 | 3.0 | 9.0 | 0.00 | 0.00 | 0.00 | 56 | 1013.3 |
| 20260508122628 | 65 | 355 | 2.0 | 9.0 | 0.00 | 0.00 | 0.00 | 57 | 1013.4 |
| 20260508122529 | 64 | 328 | 2.0 | 9.0 | 0.00 | 0.00 | 0.00 | 55 | 1013.4 |
| 20260508122429 | 64 | 348 | 2.0 | 9.0 | 0.00 | 0.00 | 0.00 | 55 | 1013.4 |
| 20260508122329 | 64 | 348 | 3.0 | 9.0 | 0.00 | 0.00 | 0.00 | 57 | 1013.4 |
| 20260508122228 | 64 | 348 | 2.0 | 9.0 | 0.00 | 0.00 | 0.00 | 58 | 1013.5 |
| 20260508122200 | 64 | 5 | 2.0 | 9.0 | 0.00 | 0.00 | 0.00 | 58 | 1013.5 |
| 20260508122128 | 64 | 34 | 2.0 | 9.0 | 0.00 | 0.00 | 0.00 | 56 | 1013.4 |
| 20260508122026 | 64 | 32 | 2.0 | 9.0 | 0.00 | 0.00 | 0.00 | 54 | 1013.5 |
| 20260508121927 | 64 | 46 | 2.0 | 5.0 | 0.00 | 0.00 | 0.00 | 54 | 1013.5 |
| 20260508121922 | 64 | 16 | 2.0 | 8.0 | 0.00 | 0.00 | 0.00 | 54 | 1013.5 |
| 20260508121917 | 64 | 310 | 2.0 | 5.0 | 0.00 | 0.00 | 0.00 | 56 | 1013.5 |
| 20260508121913 | 64 | 16 | 2.0 | 5.0 | 0.00 | 0.00 | 0.00 | 55 | 1013.5 |
| 20260508121618 | 64 | 88 | 2.0 | 8.0 | 0.00 | 0.00 | 0.00 | 55 | 1013.5 |
| 20260508121518 | 64 | 100 | 2.0 | 8.0 | 0.00 | 0.00 | 0.00 | 54 | 1013.5 |
| 20260508121417 | 64 | 96 | 2.0 | 8.0 | 0.00 | 0.00 | 0.00 | 53 | 1013.5 |
| 20260508121312 | 64 | 69 | 2.0 | 8.0 | 0.00 | 0.00 | 0.00 | 54 | 1013.5 |
| 20260508121201 | 64 | 105 | 2.0 | 8.0 | 0.00 | 0.00 | 0.00 | 54 | 1013.5 |
| 20260508121113 | 64 | 113 | 2.0 | 8.0 | 0.00 | 0.00 | 0.00 | 55 | 1013.5 |
| 20260508121012 | 64 | 100 | 2.0 | 8.0 | 0.00 | 0.00 | 0.00 | 56 | 1013.5 |
| 20260508120923 | 64 | 57 | 2.0 | 8.0 | 0.00 | 0.00 | 0.00 | 58 | 1013.5 |
| 20260508120919 | 64 | 94 | 2.0 | 8.0 | 0.00 | 0.00 | 0.00 | 55 | 1013.4 |
| 20260508120915 | 64 | 104 | 2.0 | 8.0 | 0.00 | 0.00 | 0.00 | 56 | 1013.4 |
| 20260508120911 | 64 | 109 | 2.0 | 8.0 | 0.00 | 0.00 | 0.00 | 58 | 1013.5 |
| 20260508120606 | 64 | 105 | 2.0 | 8.0 | 0.00 | 0.00 | 0.00 | 57 | 1013.4 |
| 20260508120506 | 64 | 64 | 2.0 | 8.0 | 0.00 | 0.00 | 0.00 | 56 | 1013.4 |
| 20260508120405 | 64 | 94 | 2.0 | 8.0 | 0.00 | 0.00 | 0.00 | 57 | 1013.5 |
| 20260508120304 | 64 | 67 | 2.0 | 8.0 | 0.00 | 0.00 | 0.00 | 58 | 1013.4 |
| 20260508120201 | 64 | 246 | 2.0 | 8.0 | 0.00 | 0.00 | 0.00 | 57 | 1013.4 |
| 20260508120002 | 64 | 247 | 2.0 | 10.0 | 0.00 | 0.00 | 0.00 | 57 | 1013.5 |
| 20260508115902 | 64 | 110 | 2.0 | 10.0 | 0.00 | 0.00 | 0.00 | 56 | 1013.5 |
| 20260508115802 | 64 | 99 | 2.0 | 10.0 | 0.00 | 0.00 | 0.00 | 58 | 1013.5 |
| 20260508115701 | 64 | 110 | 2.0 | 10.0 | 0.00 | 0.00 | 0.00 | 57 | 1013.4 |
| 20260508115602 | 64 | 78 | 2.0 | 10.0 | 0.00 | 0.00 | 0.00 | 56 | 1013.5 |
| 20260508115502 | 63 | 63 | 2.0 | 10.0 | 0.00 | 0.00 | 0.00 | 58 | 1013.4 |
| 20260508115402 | 63 | 111 | 2.0 | 10.0 | 0.00 | 0.00 | 0.00 | 57 | 1013.5 |
| 20260508115306 | 63 | 96 | 2.0 | 10.0 | 0.00 | 0.00 | 0.00 | 57 | 1013.4 |
| 20260508115201 | 63 | 107 | 2.0 | 10.0 | 0.00 | 0.00 | 0.00 | 58 | 1013.5 |
| 20260508115102 | 63 | 78 | 2.0 | 8.0 | 0.00 | 0.00 | 0.00 | 57 | 1013.4 |
| 20260508115002 | 63 | 342 | 2.0 | 8.0 | 0.00 | 0.00 | 0.00 | 58 | 1013.4 |
| 20260508114921 | 63 | 93 | 2.0 | 8.0 | 0.00 | 0.00 | 0.00 | 59 | 1013.4 |
| 20260508114917 | 63 | 89 | 3.0 | 8.0 | 0.00 | 0.00 | 0.00 | 60 | 1013.4 |
| 20260508114913 | 63 | 107 | 2.0 | 8.0 | 0.00 | 0.00 | 0.00 | 60 | 1013.4 |
| 20260508114600 | 63 | 91 | 2.0 | 7.0 | 0.00 | 0.00 | 0.00 | 58 | 1013.4 |
| 20260508114500 | 63 | 73 | 3.0 | 8.0 | 0.00 | 0.00 | 0.00 | 59 | 1013.4 |
| 20260508114400 | 63 | 91 | 2.0 | 8.0 | 0.00 | 0.00 | 0.00 | 57 | 1013.4 |
| 20260508114300 | 63 | 109 | 2.0 | 8.0 | 0.00 | 0.00 | 0.00 | 59 | 1013.4 |
| 20260508114204 | 63 | 107 | 2.0 | 8.0 | 0.00 | 0.00 | 0.00 | 62 | 1013.4 |
| 20260508114159 | 63 | 107 | 2.0 | 8.0 | 0.00 | 0.00 | 0.00 | 62 | 1013.4 |
| 20260508114056 | 63 | 81 | 2.0 | 8.0 | 0.00 | 0.00 | 0.00 | 61 | 1013.4 |
| 20260508113956 | 63 | 54 | 2.0 | 8.0 | 0.00 | 0.00 | 0.00 | 60 | 1013.4 |
| 20260508113856 | 62 | 54 | 2.0 | 8.0 | 0.00 | 0.00 | 0.00 | 59 | 1013.5 |
| 20260508113756 | 62 | 130 | 2.0 | 8.0 | 0.00 | 0.00 | 0.00 | 61 | 1013.5 |
| 20260508113701 | 62 | 78 | 2.0 | 8.0 | 0.00 | 0.00 | 0.00 | 60 | 1013.5 |
| 20260508113654 | 62 | 117 | 2.0 | 8.0 | 0.00 | 0.00 | 0.00 | 60 | 1013.4 |
| 20260508113550 | 62 | 78 | 2.0 | 8.0 | 0.00 | 0.00 | 0.00 | 60 | 1013.5 |
| 20260508113448 | 62 | 119 | 3.0 | 8.0 | 0.00 | 0.00 | 0.00 | 60 | 1013.4 |
| 20260508113348 | 62 | 101 | 3.0 | 8.0 | 0.00 | 0.00 | 0.00 | 59 | 1013.5 |
| 20260508113248 | 62 | 90 | 3.0 | 8.0 | 0.00 | 0.00 | 0.00 | 61 | 1013.5 |
| 20260508113201 | 62 | 104 | 3.0 | 8.0 | 0.00 | 0.00 | 0.00 | 61 | 1013.5 |
| 20260508113148 | 62 | 77 | 3.0 | 8.0 | 0.00 | 0.00 | 0.00 | 61 | 1013.5 |
| 20260508113044 | 62 | 156 | 3.0 | 8.0 | 0.00 | 0.00 | 0.00 | 60 | 1013.5 |
| 20260508112944 | 62 | 146 | 3.0 | 8.0 | 0.00 | 0.00 | 0.00 | 60 | 1013.5 |
| 20260508112844 | 62 | 96 | 3.0 | 8.0 | 0.00 | 0.00 | 0.00 | 60 | 1013.5 |
| 20260508112744 | 62 | 96 | 4.0 | 8.0 | 0.00 | 0.00 | 0.00 | 59 | 1013.5 |
| 20260508112702 | 62 | 111 | 4.0 | 8.0 | 0.00 | 0.00 | 0.00 | 59 | 1013.5 |
| 20260508112642 | 62 | 72 | 3.0 | 8.0 | 0.00 | 0.00 | 0.00 | 60 | 1013.6 |
| 20260508112538 | 62 | 105 | 3.0 | 9.0 | 0.00 | 0.00 | 0.00 | 60 | 1013.5 |
| 20260508112438 | 62 | 79 | 3.0 | 9.0 | 0.00 | 0.00 | 0.00 | 60 | 1013.5 |
| 20260508112338 | 63 | 114 | 3.0 | 9.0 | 0.00 | 0.00 | 0.00 | 60 | 1013.6 |
| 20260508112238 | 63 | 91 | 4.0 | 9.0 | 0.00 | 0.00 | 0.00 | 60 | 1013.6 |
| 20260508112201 | 63 | 124 | 4.0 | 12.0 | 0.00 | 0.00 | 0.00 | 60 | 1013.6 |
| 20260508112135 | 63 | 90 | 4.0 | 12.0 | 0.00 | 0.00 | 0.00 | 60 | 1013.6 |
| 20260508112034 | 62 | 56 | 3.0 | 12.0 | 0.00 | 0.00 | 0.00 | 59 | 1013.6 |
| 20260508111929 | 62 | 65 | 3.0 | 12.0 | 0.00 | 0.00 | 0.00 | 60 | 1013.6 |
| 20260508111829 | 62 | 69 | 3.0 | 12.0 | 0.00 | 0.00 | 0.00 | 60 | 1013.6 |
| 20260508111729 | 62 | 57 | 3.0 | 12.0 | 0.00 | 0.00 | 0.00 | 62 | 1013.6 |
| 20260508111701 | 62 | 96 | 3.0 | 12.0 | 0.00 | 0.00 | 0.00 | 62 | 1013.6 |
| 20260508111630 | 62 | 82 | 3.0 | 12.0 | 0.00 | 0.00 | 0.00 | 60 | 1013.6 |
| 20260508111524 | 62 | 103 | 3.0 | 12.0 | 0.00 | 0.00 | 0.00 | 60 | 1013.6 |
| 20260508111430 | 62 | 141 | 2.0 | 7.0 | 0.00 | 0.00 | 0.00 | 61 | 1013.6 |
| 20260508111424 | 62 | 109 | 3.0 | 12.0 | 0.00 | 0.00 | 0.00 | 60 | 1013.6 |
| 20260508111416 | 62 | 125 | 2.0 | 12.0 | 0.00 | 0.00 | 0.00 | 61 | 1013.6 |
| 20260508111412 | 62 | 82 | 2.0 | 12.0 | 0.00 | 0.00 | 0.00 | 60 | 1013.6 |
| 20260508111123 | 62 | 151 | 2.0 | 7.0 | 0.00 | 0.00 | 0.00 | 61 | 1013.7 |
| 20260508111024 | 62 | 96 | 2.0 | 5.0 | 0.00 | 0.00 | 0.00 | 59 | 1013.7 |
| 20260508110930 | 62 | 73 | 2.0 | 7.0 | 0.00 | 0.00 | 0.00 | 63 | 1013.7 |
| 20260508110922 | 62 | 59 | 2.0 | 7.0 | 0.00 | 0.00 | 0.00 | 60 | 1013.7 |
| 20260508110917 | 62 | 97 | 2.0 | 7.0 | 0.00 | 0.00 | 0.00 | 62 | 1013.7 |
| 20260508110913 | 62 | 80 | 2.0 | 7.0 | 0.00 | 0.00 | 0.00 | 62 | 1013.7 |
| 20260508110617 | 62 | 76 | 2.0 | 7.0 | 0.00 | 0.00 | 0.00 | 62 | 1013.7 |
| 20260508110512 | 62 | 149 | 2.0 | 7.0 | 0.00 | 0.00 | 0.00 | 61 | 1013.7 |
| 20260508110412 | 62 | 103 | 2.0 | 7.0 | 0.00 | 0.00 | 0.00 | 60 | 1013.8 |
| 20260508110312 | 62 | 88 | 2.0 | 7.0 | 0.00 | 0.00 | 0.00 | 61 | 1013.8 |
| 20260508110200 | 62 | 67 | 2.0 | 7.0 | 0.00 | 0.00 | 0.00 | 62 | 1013.7 |
| 20260508110111 | 62 | 86 | 2.0 | 7.0 | 0.00 | 0.00 | 0.00 | 63 | 1013.7 |
| 20260508110007 | 61 | 69 | 2.0 | 7.0 | 0.00 | 0.00 | 0.00 | 62 | 1013.7 |
| 20260508105905 | 61 | 97 | 2.0 | 7.0 | 0.00 | 0.00 | 0.00 | 61 | 1013.7 |
| 20260508105806 | 61 | 49 | 2.0 | 7.0 | 0.00 | 0.00 | 0.00 | 62 | 1013.7 |
| 20260508105706 | 61 | 92 | 2.0 | 7.0 | 0.00 | 0.00 | 0.00 | 60 | 1013.7 |
| 20260508105701 | 61 | 105 | 2.0 | 7.0 | 0.00 | 0.00 | 0.00 | 60 | 1013.7 |
| 20260508105606 | 61 | 90 | 2.0 | 7.0 | 0.00 | 0.00 | 0.00 | 61 | 1013.8 |
| 20260508105506 | 61 | 113 | 2.0 | 7.0 | 0.00 | 0.00 | 0.00 | 63 | 1013.8 |
| 20260508105306 | 61 | 82 | 2.0 | 11.0 | 0.00 | 0.00 | 0.00 | 64 | 1013.7 |
| 20260508105201 | 61 | 90 | 2.0 | 11.0 | 0.00 | 0.00 | 0.00 | 65 | 1013.8 |
| 20260508105102 | 61 | 101 | 2.0 | 11.0 | 0.00 | 0.00 | 0.00 | 64 | 1013.7 |
| 20260508105004 | 61 | 105 | 2.0 | 11.0 | 0.00 | 0.00 | 0.00 | 63 | 1013.8 |
| 20260508104921 | 61 | 105 | 3.0 | 11.0 | 0.00 | 0.00 | 0.00 | 63 | 1013.8 |
| 20260508104917 | 61 | 98 | 2.0 | 11.0 | 0.00 | 0.00 | 0.00 | 65 | 1013.8 |
| 20260508104913 | 61 | 79 | 2.0 | 11.0 | 0.00 | 0.00 | 0.00 | 64 | 1013.8 |
| 20260508104604 | 61 | 81 | 2.0 | 11.0 | 0.00 | 0.00 | 0.00 | 62 | 1013.8 |
| 20260508104501 | 61 | 86 | 2.0 | 11.0 | 0.00 | 0.00 | 0.00 | 62 | 1013.8 |
| 20260508104401 | 61 | 103 | 2.0 | 9.0 | 0.00 | 0.00 | 0.00 | 63 | 1013.8 |
| 20260508104301 | 61 | 84 | 2.0 | 9.0 | 0.00 | 0.00 | 0.00 | 64 | 1013.8 |
| 20260508104201 | 61 | 112 | 3.0 | 9.0 | 0.00 | 0.00 | 0.00 | 63 | 1013.8 |
| 20260508104101 | 61 | 83 | 3.0 | 9.0 | 0.00 | 0.00 | 0.00 | 63 | 1013.8 |
| 20260508104001 | 61 | 77 | 3.0 | 9.0 | 0.00 | 0.00 | 0.00 | 63 | 1013.9 |
| 20260508103901 | 61 | 96 | 3.0 | 9.0 | 0.00 | 0.00 | 0.00 | 64 | 1013.8 |
| 20260508103801 | 61 | 55 | 3.0 | 9.0 | 0.00 | 0.00 | 0.00 | 63 | 1013.9 |
| 20260508103700 | 61 | 115 | 3.0 | 9.0 | 0.00 | 0.00 | 0.00 | 63 | 1013.9 |
| 20260508103600 | 61 | 78 | 3.0 | 9.0 | 0.00 | 0.00 | 0.00 | 63 | 1013.9 |
| 20260508103501 | 61 | 121 | 2.0 | 9.0 | 0.00 | 0.00 | 0.00 | 64 | 1013.9 |
| 20260508103401 | 61 | 104 | 2.0 | 9.0 | 0.00 | 0.00 | 0.00 | 64 | 1013.9 |
| 20260508103300 | 61 | 30 | 2.0 | 9.0 | 0.00 | 0.00 | 0.00 | 64 | 1013.9 |
| 20260508103200 | 61 | 69 | 2.0 | 9.0 | 0.00 | 0.00 | 0.00 | 64 | 1013.9 |
| 20260508103101 | 61 | 110 | 2.0 | 9.0 | 0.00 | 0.00 | 0.00 | 66 | 1013.9 |
| 20260508103001 | 61 | 140 | 2.0 | 8.0 | 0.00 | 0.00 | 0.00 | 65 | 1013.9 |
| 20260508102901 | 61 | 81 | 2.0 | 8.0 | 0.00 | 0.00 | 0.00 | 65 | 1013.9 |
| 20260508102801 | 61 | 91 | 2.0 | 8.0 | 0.00 | 0.00 | 0.00 | 66 | 1013.9 |
| 20260508102700 | 61 | 115 | 3.0 | 12.0 | 0.00 | 0.00 | 0.00 | 66 | 1013.9 |
| 20260508102600 | 61 | 98 | 3.0 | 12.0 | 0.00 | 0.00 | 0.00 | 64 | 1013.9 |
| 20260508102501 | 60 | 94 | 3.0 | 12.0 | 0.00 | 0.00 | 0.00 | 65 | 1013.9 |
| 20260508102401 | 60 | 75 | 3.0 | 12.0 | 0.00 | 0.00 | 0.00 | 64 | 1013.9 |
| 20260508102301 | 60 | 138 | 3.0 | 12.0 | 0.00 | 0.00 | 0.00 | 67 | 1013.9 |
| 20260508102200 | 60 | 109 | 3.0 | 12.0 | 0.00 | 0.00 | 0.00 | 65 | 1013.9 |
| 20260508102100 | 60 | 91 | 4.0 | 12.0 | 0.00 | 0.00 | 0.00 | 65 | 1014.1 |
| 20260508102002 | 60 | 76 | 4.0 | 12.0 | 0.00 | 0.00 | 0.00 | 64 | 1014.1 |
| 20260508101902 | 60 | 132 | 3.0 | 12.0 | 0.00 | 0.00 | 0.00 | 65 | 1013.9 |
| 20260508101801 | 60 | 101 | 3.0 | 12.0 | 0.00 | 0.00 | 0.00 | 64 | 1014.1 |
| 20260508101701 | 60 | 70 | 3.0 | 11.0 | 0.00 | 0.00 | 0.00 | 65 | 1014.1 |
| 20260508101601 | 60 | 144 | 3.0 | 9.0 | 0.00 | 0.00 | 0.00 | 66 | 1014.1 |
| 20260508101501 | 60 | 92 | 3.0 | 9.0 | 0.00 | 0.00 | 0.00 | 66 | 1014.1 |
| 20260508101401 | 60 | 108 | 3.0 | 9.0 | 0.00 | 0.00 | 0.00 | 68 | 1014.1 |
| 20260508101301 | 60 | 119 | 2.0 | 9.0 | 0.00 | 0.00 | 0.00 | 68 | 1014.2 |
| 20260508101202 | 60 | 91 | 2.0 | 9.0 | 0.00 | 0.00 | 0.00 | 69 | 1014.1 |
| 20260508101101 | 60 | 110 | 2.0 | 9.0 | 0.00 | 0.00 | 0.00 | 68 | 1014.2 |
| 20260508101001 | 59 | 86 | 2.0 | 9.0 | 0.00 | 0.00 | 0.00 | 68 | 1014.2 |
| 20260508100901 | 59 | 101 | 2.0 | 9.0 | 0.00 | 0.00 | 0.00 | 67 | 1014.2 |
| 20260508100801 | 59 | 108 | 2.0 | 9.0 | 0.00 | 0.00 | 0.00 | 67 | 1014.2 |
| 20260508100701 | 59 | 93 | 2.0 | 9.0 | 0.00 | 0.00 | 0.00 | 67 | 1014.2 |
| 20260508100601 | 59 | 79 | 1.0 | 5.0 | 0.00 | 0.00 | 0.00 | 69 | 1014.2 |
| 20260508100507 | 59 | 103 | 1.0 | 4.0 | 0.00 | 0.00 | 0.00 | 69 | 1014.2 |
| 20260508100401 | 59 | 134 | 1.0 | 4.0 | 0.00 | 0.00 | 0.00 | 69 | 1014.2 |
| 20260508100300 | 58 | 97 | 1.0 | 4.0 | 0.00 | 0.00 | 0.00 | 68 | 1014.2 |
| 20260508100200 | 58 | 110 | 2.0 | 4.0 | 0.00 | 0.00 | 0.00 | 70 | 1014.2 |
| 20260508100100 | 58 | 114 | 2.0 | 9.0 | 0.00 | 0.00 | 0.00 | 69 | 1014.2 |
| 20260508100007 | 58 | 105 | 2.0 | 9.0 | 0.00 | 0.00 | 0.00 | 69 | 1014.3 |
| 20260508095900 | 58 | 92 | 2.0 | 9.0 | 0.00 | 0.00 | 0.00 | 68 | 1014.2 |
| 20260508095800 | 58 | 98 | 2.0 | 9.0 | 0.00 | 0.00 | 0.00 | 68 | 1014.3 |
| 20260508095701 | 58 | 98 | 3.0 | 9.0 | 0.00 | 0.00 | 0.00 | 68 | 1014.3 |
| 20260508095601 | 58 | 98 | 3.0 | 9.0 | 0.00 | 0.00 | 0.00 | 68 | 1014.3 |
| 20260508095501 | 58 | 109 | 3.0 | 9.0 | 0.00 | 0.00 | 0.00 | 70 | 1014.3 |
| 20260508095401 | 58 | 77 | 3.0 | 9.0 | 0.00 | 0.00 | 0.00 | 69 | 1014.3 |
| 20260508095301 | 58 | 77 | 3.0 | 9.0 | 0.00 | 0.00 | 0.00 | 69 | 1014.3 |
| 20260508095200 | 58 | 105 | 3.0 | 9.0 | 0.00 | 0.00 | 0.00 | 69 | 1014.3 |
| 20260508095101 | 58 | 38 | 3.0 | 9.0 | 0.00 | 0.00 | 0.00 | 69 | 1014.4 |
| 20260508095001 | 58 | 108 | 3.0 | 8.0 | 0.00 | 0.00 | 0.00 | 68 | 1014.3 |
| 20260508094901 | 58 | 77 | 3.0 | 8.0 | 0.00 | 0.00 | 0.00 | 69 | 1014.3 |
| 20260508094801 | 58 | 76 | 3.0 | 8.0 | 0.00 | 0.00 | 0.00 | 69 | 1014.3 |
| 20260508094701 | 58 | 74 | 2.0 | 8.0 | 0.00 | 0.00 | 0.00 | 70 | 1014.3 |
| 20260508094601 | 58 | 76 | 2.0 | 8.0 | 0.00 | 0.00 | 0.00 | 70 | 1014.3 |
| 20260508094501 | 58 | 136 | 2.0 | 8.0 | 0.00 | 0.00 | 0.00 | 70 | 1014.2 |
| 20260508094401 | 58 | 67 | 2.0 | 8.0 | 0.00 | 0.00 | 0.00 | 70 | 1014.3 |
| 20260508094301 | 58 | 42 | 2.0 | 7.0 | 0.00 | 0.00 | 0.00 | 69 | 1014.3 |
| 20260508094201 | 58 | 127 | 2.0 | 8.0 | 0.00 | 0.00 | 0.00 | 69 | 1014.3 |
| 20260508094101 | 58 | 84 | 2.0 | 8.0 | 0.00 | 0.00 | 0.00 | 69 | 1014.3 |
| 20260508094001 | 58 | 53 | 2.0 | 8.0 | 0.00 | 0.00 | 0.00 | 69 | 1014.3 |
| 20260508093902 | 58 | 94 | 2.0 | 8.0 | 0.00 | 0.00 | 0.00 | 68 | 1014.2 |
| 20260508093801 | 58 | 87 | 2.0 | 8.0 | 0.00 | 0.00 | 0.00 | 70 | 1014.3 |
| 20260508093701 | 58 | 107 | 2.0 | 8.0 | 0.00 | 0.00 | 0.00 | 69 | 1014.3 |
| 20260508093601 | 58 | 67 | 2.0 | 8.0 | 0.00 | 0.00 | 0.00 | 70 | 1014.3 |
| 20260508093501 | 58 | 72 | 2.0 | 8.0 | 0.00 | 0.00 | 0.00 | 71 | 1014.3 |
| 20260508093401 | 58 | 100 | 2.0 | 8.0 | 0.00 | 0.00 | 0.00 | 70 | 1014.3 |
| 20260508093300 | 58 | 47 | 2.0 | 8.0 | 0.00 | 0.00 | 0.00 | 70 | 1014.3 |
| 20260508093200 | 58 | 197 | 2.0 | 8.0 | 0.00 | 0.00 | 0.00 | 71 | 1014.3 |
| 20260508093100 | 58 | 85 | 2.0 | 8.0 | 0.00 | 0.00 | 0.00 | 72 | 1014.3 |
| 20260508093000 | 57 | 122 | 2.0 | 8.0 | 0.00 | 0.00 | 0.00 | 72 | 1014.3 |
| 20260508092901 | 57 | 123 | 2.0 | 8.0 | 0.00 | 0.00 | 0.00 | 72 | 1014.3 |
| 20260508092801 | 57 | 124 | 2.0 | 8.0 | 0.00 | 0.00 | 0.00 | 71 | 1014.3 |
| 20260508092701 | 57 | 119 | 2.0 | 8.0 | 0.00 | 0.00 | 0.00 | 69 | 1014.3 |
| 20260508092600 | 57 | 134 | 3.0 | 8.0 | 0.00 | 0.00 | 0.00 | 70 | 1014.3 |
| 20260508092500 | 57 | 127 | 3.0 | 9.0 | 0.00 | 0.00 | 0.00 | 69 | 1014.3 |
| 20260508092401 | 57 | 126 | 3.0 | 9.0 | 0.00 | 0.00 | 0.00 | 70 | 1014.3 |
| 20260508092301 | 57 | 46 | 3.0 | 9.0 | 0.00 | 0.00 | 0.00 | 70 | 1014.3 |
| 20260508092201 | 57 | 109 | 2.0 | 9.0 | 0.00 | 0.00 | 0.00 | 72 | 1014.3 |
| 20260508092101 | 57 | 68 | 2.0 | 9.0 | 0.00 | 0.00 | 0.00 | 72 | 1014.2 |
| 20260508092001 | 57 | 53 | 2.0 | 9.0 | 0.00 | 0.00 | 0.00 | 73 | 1014.2 |
| 20260508091901 | 57 | 61 | 2.0 | 9.0 | 0.00 | 0.00 | 0.00 | 71 | 1014.2 |
| 20260508091801 | 57 | 80 | 2.0 | 9.0 | 0.00 | 0.00 | 0.00 | 71 | 1014.2 |
| 20260508091702 | 57 | 69 | 2.0 | 9.0 | 0.00 | 0.00 | 0.00 | 74 | 1014.2 |
| 20260508091602 | 57 | 72 | 2.0 | 9.0 | 0.00 | 0.00 | 0.00 | 75 | 1014.2 |
| 20260508091501 | 57 | 96 | 3.0 | 8.0 | 0.00 | 0.00 | 0.00 | 74 | 1014.2 |
| 20260508091401 | 56 | 73 | 3.0 | 8.0 | 0.00 | 0.00 | 0.00 | 74 | 1014.2 |
| 20260508091301 | 56 | 75 | 3.0 | 8.0 | 0.00 | 0.00 | 0.00 | 73 | 1014.2 |
| 20260508091201 | 56 | 71 | 3.0 | 8.0 | 0.00 | 0.00 | 0.00 | 74 | 1014.2 |
| 20260508091100 | 56 | 69 | 2.0 | 8.0 | 0.00 | 0.00 | 0.00 | 74 | 1014.2 |
| 20260508091001 | 56 | 63 | 2.0 | 8.0 | 0.00 | 0.01 | 0.00 | 73 | 1014.2 |
| 20260508090859 | 56 | 75 | 2.0 | 8.0 | 0.00 | 0.01 | 0.00 | 73 | 1014.2 |
| 20260508090753 | 56 | 77 | 2.0 | 8.0 | 0.00 | 0.01 | 0.00 | 73 | 1014.2 |
| 20260508090701 | 56 | 88 | 2.0 | 8.0 | 0.00 | 0.01 | 0.00 | 74 | 1014.2 |
| 20260508090654 | 56 | 69 | 2.0 | 8.0 | 0.00 | 0.01 | 0.00 | 74 | 1014.2 |
| 20260508090554 | 56 | 26 | 3.0 | 8.0 | 0.00 | 0.01 | 0.00 | 74 | 1014.3 |
| 20260508090454 | 56 | 68 | 2.0 | 8.0 | 0.00 | 0.01 | 0.00 | 74 | 1014.3 |
| 20260508090354 | 56 | 74 | 2.0 | 8.0 | 0.00 | 0.01 | 0.00 | 74 | 1014.3 |
| 20260508090248 | 56 | 71 | 2.0 | 8.0 | 0.00 | 0.01 | 0.00 | 73 | 1014.3 |
| 20260508090201 | 56 | 73 | 2.0 | 8.0 | 0.00 | 0.01 | 0.00 | 75 | 1014.3 |
| 20260508090147 | 56 | 73 | 2.0 | 8.0 | 0.00 | 0.01 | 0.00 | 75 | 1014.3 |
| 20260508090047 | 56 | 78 | 2.0 | 8.0 | 0.00 | 0.01 | 0.00 | 74 | 1014.3 |
| 20260508085948 | 56 | 73 | 2.0 | 8.0 | 0.00 | 0.01 | 0.00 | 74 | 1014.3 |
| 20260508085847 | 56 | 80 | 2.0 | 8.0 | 0.00 | 0.01 | 0.00 | 74 | 1014.3 |
| 20260508085742 | 55 | 82 | 2.0 | 8.0 | 0.00 | 0.01 | 0.00 | 75 | 1014.3 |
| 20260508085700 | 55 | 77 | 2.0 | 8.0 | 0.00 | 0.01 | 0.00 | 76 | 1014.3 |
| 20260508085642 | 55 | 73 | 2.0 | 8.0 | 0.00 | 0.01 | 0.00 | 76 | 1014.3 |
| 20260508085542 | 55 | 67 | 2.0 | 5.0 | 0.00 | 0.01 | 0.00 | 78 | 1014.3 |
| 20260508085442 | 55 | 74 | 2.0 | 5.0 | 0.00 | 0.01 | 0.00 | 75 | 1014.3 |
| 20260508085341 | 55 | 79 | 2.0 | 5.0 | 0.00 | 0.01 | 0.00 | 75 | 1014.3 |
| 20260508085240 | 55 | 59 | 2.0 | 5.0 | 0.00 | 0.01 | 0.00 | 75 | 1014.3 |
| 20260508085201 | 55 | 62 | 2.0 | 5.0 | 0.00 | 0.01 | 0.00 | 77 | 1014.3 |
| 20260508085140 | 55 | 72 | 1.0 | 5.0 | 0.00 | 0.01 | 0.00 | 77 | 1014.3 |
| 20260508085040 | 55 | 61 | 2.0 | 5.0 | 0.00 | 0.01 | 0.00 | 78 | 1014.3 |
| 20260508084939 | 54 | 61 | 2.0 | 5.0 | 0.00 | 0.01 | 0.00 | 78 | 1014.3 |
| 20260508084916 | 54 | 61 | 2.0 | 5.0 | 0.00 | 0.01 | 0.00 | 78 | 1014.3 |
| 20260508084912 | 54 | 65 | 2.0 | 5.0 | 0.00 | 0.01 | 0.00 | 78 | 1014.3 |
| 20260508084639 | 54 | 65 | 2.0 | 5.0 | 0.00 | 0.01 | 0.00 | 78 | 1014.3 |
| 20260508084537 | 54 | 53 | 2.0 | 5.0 | 0.00 | 0.01 | 0.00 | 78 | 1014.3 |
| 20260508084437 | 54 | 54 | 2.0 | 7.0 | 0.00 | 0.01 | 0.00 | 78 | 1014.3 |
| 20260508084338 | 54 | 52 | 1.0 | 7.0 | 0.00 | 0.01 | 0.00 | 78 | 1014.3 |
| 20260508084238 | 54 | 73 | 2.0 | 9.0 | 0.00 | 0.01 | 0.00 | 77 | 1014.3 |
| 20260508084201 | 54 | 70 | 2.0 | 9.0 | 0.00 | 0.01 | 0.00 | 77 | 1014.3 |
| 20260508084136 | 54 | 71 | 2.0 | 9.0 | 0.00 | 0.01 | 0.00 | 77 | 1014.3 |
| 20260508084036 | 54 | 70 | 2.0 | 9.0 | 0.00 | 0.01 | 0.00 | 77 | 1014.3 |
| 20260508083935 | 54 | 76 | 2.0 | 9.0 | 0.00 | 0.01 | 0.00 | 77 | 1014.3 |
| 20260508083835 | 54 | 58 | 2.0 | 9.0 | 0.00 | 0.01 | 0.00 | 78 | 1014.3 |
| 20260508083735 | 54 | 69 | 2.0 | 9.0 | 0.00 | 0.01 | 0.00 | 77 | 1014.3 |
| 20260508083701 | 54 | 69 | 2.0 | 9.0 | 0.00 | 0.01 | 0.00 | 77 | 1014.3 |
| 20260508083636 | 54 | 69 | 3.0 | 9.0 | 0.00 | 0.01 | 0.00 | 76 | 1014.2 |
| 20260508083530 | 54 | 84 | 2.0 | 9.0 | 0.00 | 0.01 | 0.00 | 77 | 1014.3 |
| 20260508083430 | 54 | 74 | 3.0 | 9.0 | 0.00 | 0.01 | 0.00 | 76 | 1014.3 |
| 20260508083330 | 54 | 73 | 3.0 | 9.0 | 0.00 | 0.01 | 0.00 | 76 | 1014.3 |
| 20260508083230 | 54 | 79 | 3.0 | 9.0 | 0.00 | 0.01 | 0.00 | 76 | 1014.3 |
| 20260508083200 | 54 | 78 | 3.0 | 9.0 | 0.00 | 0.01 | 0.00 | 76 | 1014.3 |
| 20260508083130 | 54 | 69 | 3.0 | 9.0 | 0.00 | 0.01 | 0.00 | 77 | 1014.3 |
| 20260508083030 | 54 | 26 | 3.0 | 9.0 | 0.00 | 0.01 | 0.00 | 78 | 1014.3 |
| 20260508082929 | 54 | 79 | 3.0 | 9.0 | 0.00 | 0.01 | 0.00 | 78 | 1014.2 |
| 20260508082829 | 54 | 77 | 3.0 | 9.0 | 0.00 | 0.01 | 0.00 | 78 | 1014.2 |
| 20260508082729 | 54 | 69 | 3.0 | 9.0 | 0.00 | 0.01 | 0.00 | 79 | 1014.2 |
| 20260508082701 | 54 | 79 | 3.0 | 9.0 | 0.00 | 0.01 | 0.00 | 78 | 1014.2 |
| 20260508082629 | 54 | 78 | 3.0 | 9.0 | 0.00 | 0.01 | 0.00 | 78 | 1014.2 |
| 20260508082530 | 54 | 64 | 3.0 | 9.0 | 0.00 | 0.01 | 0.00 | 78 | 1014.2 |
| 20260508082429 | 54 | 71 | 3.0 | 9.0 | 0.00 | 0.01 | 0.00 | 78 | 1014.2 |
| 20260508082329 | 54 | 53 | 3.0 | 9.0 | 0.00 | 0.01 | 0.00 | 77 | 1014.2 |
| 20260508082229 | 54 | 67 | 3.0 | 9.0 | 0.00 | 0.01 | 0.00 | 77 | 1014.1 |
| 20260508082202 | 54 | 56 | 3.0 | 9.0 | 0.00 | 0.01 | 0.00 | 77 | 1014.1 |
| 20260508082129 | 54 | 80 | 2.0 | 9.0 | 0.00 | 0.01 | 0.00 | 77 | 1014.1 |
| 20260508082029 | 54 | 55 | 2.0 | 8.0 | 0.00 | 0.01 | 0.00 | 77 | 1014.1 |
| 20260508081929 | 54 | 75 | 3.0 | 8.0 | 0.00 | 0.01 | 0.00 | 76 | 1014.2 |
| 20260508081830 | 54 | 77 | 3.0 | 8.0 | 0.00 | 0.01 | 0.00 | 77 | 1014.2 |
| 20260508081729 | 54 | 73 | 3.0 | 8.0 | 0.00 | 0.01 | 0.00 | 77 | 1014.2 |
| 20260508081701 | 54 | 74 | 3.0 | 8.0 | 0.00 | 0.01 | 0.00 | 77 | 1014.2 |
| 20260508081629 | 54 | 73 | 3.0 | 8.0 | 0.00 | 0.01 | 0.00 | 77 | 1014.2 |
| 20260508081529 | 54 | 84 | 3.0 | 8.0 | 0.00 | 0.01 | 0.00 | 77 | 1014.2 |
| 20260508081431 | 54 | 55 | 3.0 | 8.0 | 0.00 | 0.01 | 0.00 | 77 | 1014.1 |
| 20260508081427 | 54 | 66 | 3.0 | 10.0 | 0.00 | 0.01 | 0.00 | 78 | 1014.2 |
| 20260508081417 | 54 | 78 | 3.0 | 8.0 | 0.00 | 0.01 | 0.00 | 77 | 1014.2 |
| 20260508081413 | 54 | 90 | 3.0 | 10.0 | 0.00 | 0.01 | 0.00 | 77 | 1014.2 |
| 20260508081129 | 54 | 82 | 3.0 | 10.0 | 0.00 | 0.01 | 0.00 | 78 | 1014.2 |
| 20260508081029 | 54 | 73 | 3.0 | 10.0 | 0.00 | 0.01 | 0.00 | 78 | 1014.2 |
| 20260508080929 | 54 | 71 | 3.0 | 10.0 | 0.00 | 0.01 | 0.00 | 78 | 1014.3 |
| 20260508080828 | 54 | 84 | 3.0 | 10.0 | 0.00 | 0.01 | 0.00 | 78 | 1014.3 |
| 20260508080728 | 54 | 82 | 3.0 | 10.0 | 0.00 | 0.01 | 0.00 | 77 | 1014.3 |
| 20260508080701 | 54 | 81 | 3.0 | 10.0 | 0.00 | 0.01 | 0.00 | 78 | 1014.3 |
| 20260508080629 | 54 | 76 | 3.0 | 10.0 | 0.00 | 0.01 | 0.00 | 78 | 1014.3 |
| 20260508080529 | 54 | 76 | 3.0 | 10.0 | 0.00 | 0.01 | 0.00 | 78 | 1014.3 |
| 20260508080429 | 54 | 89 | 3.0 | 10.0 | 0.00 | 0.01 | 0.00 | 78 | 1014.3 |
| 20260508080329 | 54 | 83 | 2.0 | 10.0 | 0.00 | 0.01 | 0.00 | 79 | 1014.3 |
| 20260508080229 | 53 | 68 | 2.0 | 9.0 | 0.00 | 0.01 | 0.00 | 78 | 1014.3 |
| 20260508080200 | 53 | 72 | 2.0 | 8.0 | 0.00 | 0.01 | 0.00 | 78 | 1014.3 |
| 20260508080129 | 53 | 82 | 2.0 | 8.0 | 0.00 | 0.01 | 0.00 | 80 | 1014.3 |
| 20260508080028 | 53 | 71 | 2.0 | 8.0 | 0.00 | 0.01 | 0.00 | 80 | 1014.3 |
| 20260508075928 | 53 | 78 | 2.0 | 8.0 | 0.00 | 0.01 | 0.00 | 81 | 1014.3 |
| 20260508075827 | 53 | 67 | 2.0 | 8.0 | 0.00 | 0.01 | 0.00 | 80 | 1014.3 |
| 20260508075725 | 53 | 75 | 2.0 | 5.0 | 0.00 | 0.01 | 0.00 | 81 | 1014.3 |
| 20260508075701 | 53 | 72 | 2.0 | 5.0 | 0.00 | 0.01 | 0.00 | 81 | 1014.3 |
| 20260508075621 | 53 | 74 | 2.0 | 5.0 | 0.00 | 0.01 | 0.00 | 81 | 1014.3 |
| 20260508075520 | 53 | 70 | 2.0 | 5.0 | 0.00 | 0.01 | 0.00 | 81 | 1014.3 |
| 20260508075420 | 53 | 64 | 2.0 | 5.0 | 0.00 | 0.01 | 0.00 | 81 | 1014.3 |
| 20260508075318 | 53 | 57 | 2.0 | 7.0 | 0.00 | 0.01 | 0.00 | 81 | 1014.3 |
| 20260508075201 | 53 | 61 | 2.0 | 10.0 | 0.00 | 0.01 | 0.00 | 82 | 1014.3 |
| 20260508075113 | 53 | 63 | 2.0 | 10.0 | 0.00 | 0.01 | 0.00 | 82 | 1014.4 |
| 20260508075013 | 53 | 66 | 2.0 | 10.0 | 0.00 | 0.01 | 0.00 | 82 | 1014.3 |
| 20260508074914 | 53 | 72 | 2.0 | 10.0 | 0.00 | 0.01 | 0.00 | 81 | 1014.3 |
| 20260508074814 | 52 | 71 | 2.0 | 10.0 | 0.00 | 0.01 | 0.00 | 81 | 1014.3 |
| 20260508074713 | 52 | 70 | 2.0 | 10.0 | 0.00 | 0.01 | 0.00 | 81 | 1014.3 |
| 20260508074701 | 52 | 69 | 2.0 | 10.0 | 0.00 | 0.01 | 0.00 | 81 | 1014.3 |
| 20260508074611 | 52 | 69 | 2.0 | 10.0 | 0.00 | 0.01 | 0.00 | 82 | 1014.3 |
| 20260508074511 | 52 | 59 | 2.0 | 10.0 | 0.00 | 0.01 | 0.00 | 82 | 1014.3 |
| 20260508074411 | 52 | 75 | 2.0 | 10.0 | 0.00 | 0.01 | 0.00 | 82 | 1014.3 |
| 20260508074311 | 52 | 88 | 2.0 | 10.0 | 0.00 | 0.01 | 0.00 | 81 | 1014.3 |
| 20260508074211 | 52 | 69 | 2.0 | 6.0 | 0.00 | 0.01 | 0.00 | 82 | 1014.3 |
| 20260508074201 | 52 | 60 | 2.0 | 6.0 | 0.00 | 0.01 | 0.00 | 82 | 1014.3 |
| 20260508074112 | 52 | 19 | 2.0 | 6.0 | 0.00 | 0.01 | 0.00 | 82 | 1014.3 |
| 20260508074012 | 52 | 65 | 2.0 | 6.0 | 0.00 | 0.01 | 0.00 | 82 | 1014.3 |
| 20260508073924 | 52 | 63 | 2.0 | 6.0 | 0.00 | 0.01 | 0.00 | 82 | 1014.3 |
| 20260508073916 | 52 | 57 | 2.0 | 6.0 | 0.00 | 0.01 | 0.00 | 82 | 1014.3 |
| 20260508073912 | 52 | 57 | 2.0 | 6.0 | 0.00 | 0.01 | 0.00 | 82 | 1014.3 |
| 20260508073608 | 52 | 61 | 2.0 | 6.0 | 0.00 | 0.01 | 0.00 | 82 | 1014.4 |
| 20260508073508 | 52 | 59 | 2.0 | 6.0 | 0.00 | 0.01 | 0.00 | 82 | 1014.4 |
| 20260508073406 | 52 | 67 | 2.0 | 6.0 | 0.00 | 0.01 | 0.00 | 82 | 1014.4 |
| 20260508073306 | 51 | 63 | 2.0 | 6.0 | 0.00 | 0.01 | 0.00 | 84 | 1014.4 |
| 20260508073200 | 51 | 63 | 2.0 | 6.0 | 0.00 | 0.01 | 0.00 | 84 | 1014.4 |
| 20260508073105 | 51 | 60 | 2.0 | 6.0 | 0.00 | 0.01 | 0.00 | 83 | 1014.4 |
| 20260508073005 | 51 | 61 | 2.0 | 6.0 | 0.00 | 0.01 | 0.00 | 84 | 1014.4 |
| 20260508072906 | 51 | 65 | 2.0 | 6.0 | 0.00 | 0.01 | 0.00 | 83 | 1014.3 |
| 20260508072806 | 51 | 65 | 2.0 | 5.0 | 0.00 | 0.01 | 0.00 | 83 | 1014.3 |
| 20260508072700 | 51 | 59 | 2.0 | 5.0 | 0.00 | 0.01 | 0.00 | 82 | 1014.3 |
| 20260508072650 | 51 | 60 | 2.0 | 5.0 | 0.00 | 0.01 | 0.00 | 82 | 1014.3 |
| 20260508072644 | 51 | 64 | 2.0 | 5.0 | 0.00 | 0.01 | 0.00 | 83 | 1014.4 |
| 20260508072640 | 51 | 63 | 2.0 | 5.0 | 0.00 | 0.01 | 0.00 | 82 | 1014.3 |
| 20260508072425 | 51 | 57 | 2.0 | 5.0 | 0.00 | 0.01 | 0.00 | 82 | 1014.3 |
| 20260508072416 | 51 | 64 | 2.0 | 5.0 | 0.00 | 0.01 | 0.00 | 82 | 1014.3 |
| 20260508072412 | 51 | 60 | 2.0 | 5.0 | 0.00 | 0.01 | 0.00 | 82 | 1014.3 |
| 20260508072101 | 51 | 61 | 2.0 | 5.0 | 0.00 | 0.01 | 0.00 | 84 | 1014.3 |
| 20260508072001 | 51 | 61 | 2.0 | 5.0 | 0.00 | 0.01 | 0.00 | 84 | 1014.3 |
| 20260508071901 | 51 | 64 | 2.0 | 5.0 | 0.00 | 0.01 | 0.00 | 84 | 1014.3 |
| 20260508071801 | 51 | 63 | 2.0 | 5.0 | 0.00 | 0.01 | 0.00 | 84 | 1014.3 |
| 20260508071701 | 51 | 62 | 2.0 | 5.0 | 0.00 | 0.01 | 0.00 | 84 | 1014.2 |
| 20260508071601 | 50 | 59 | 2.0 | 5.0 | 0.00 | 0.01 | 0.00 | 84 | 1014.2 |
| 20260508071501 | 50 | 62 | 1.0 | 5.0 | 0.00 | 0.01 | 0.00 | 85 | 1014.2 |
| 20260508071400 | 50 | 57 | 1.0 | 5.0 | 0.00 | 0.01 | 0.00 | 85 | 1014.2 |
| 20260508071300 | 50 | 57 | 1.0 | 5.0 | 0.00 | 0.01 | 0.00 | 86 | 1014.2 |
| 20260508071201 | 50 | 57 | 1.0 | 5.0 | 0.00 | 0.01 | 0.00 | 86 | 1014.2 |
| 20260508071101 | 50 | 60 | 2.0 | 5.0 | 0.00 | 0.01 | 0.00 | 86 | 1014.2 |
| 20260508071001 | 50 | 60 | 1.0 | 5.0 | 0.00 | 0.01 | 0.00 | 86 | 1014.2 |
| 20260508070901 | 50 | 59 | 1.0 | 5.0 | 0.00 | 0.01 | 0.00 | 86 | 1014.2 |
| 20260508070801 | 50 | 61 | 1.0 | 5.0 | 0.00 | 0.01 | 0.00 | 86 | 1014.2 |
| 20260508070701 | 50 | 61 | 2.0 | 5.0 | 0.00 | 0.01 | 0.00 | 87 | 1014.2 |
| 20260508070600 | 49 | 57 | 2.0 | 5.0 | 0.00 | 0.01 | 0.00 | 87 | 1014.1 |
| 20260508070500 | 49 | 60 | 2.0 | 5.0 | 0.00 | 0.01 | 0.00 | 87 | 1014.1 |
| 20260508070400 | 49 | 59 | 2.0 | 5.0 | 0.00 | 0.01 | 0.00 | 87 | 1014.1 |
| 20260508070301 | 49 | 57 | 2.0 | 5.0 | 0.00 | 0.01 | 0.00 | 87 | 1014.2 |
| 20260508070200 | 49 | 60 | 2.0 | 5.0 | 0.00 | 0.01 | 0.00 | 87 | 1014.2 |
| 20260508070100 | 49 | 61 | 1.0 | 5.0 | 0.00 | 0.01 | 0.00 | 89 | 1014.2 |
| 20260508070001 | 49 | 58 | 2.0 | 5.0 | 0.00 | 0.01 | 0.00 | 89 | 1014.2 |
| 20260508065901 | 49 | 58 | 2.0 | 5.0 | 0.00 | 0.01 | 0.00 | 89 | 1014.2 |
| 20260508065800 | 49 | 57 | 2.0 | 5.0 | 0.00 | 0.01 | 0.00 | 89 | 1014.2 |
| 20260508065700 | 49 | 63 | 1.0 | 5.0 | 0.00 | 0.01 | 0.00 | 89 | 1014.2 |
| 20260508065600 | 49 | 58 | 1.0 | 4.0 | 0.00 | 0.01 | 0.00 | 89 | 1014.2 |
| 20260508065500 | 49 | 59 | 1.0 | 4.0 | 0.00 | 0.01 | 0.00 | 89 | 1014.2 |
| 20260508065401 | 49 | 59 | 1.0 | 4.0 | 0.00 | 0.01 | 0.00 | 90 | 1014.2 |
| 20260508065301 | 49 | 61 | 1.0 | 3.0 | 0.00 | 0.01 | 0.00 | 90 | 1014.2 |
| 20260508065201 | 48 | 57 | 1.0 | 3.0 | 0.00 | 0.01 | 0.00 | 90 | 1014.2 |
| 20260508065101 | 48 | 59 | 1.0 | 3.0 | 0.00 | 0.01 | 0.00 | 90 | 1014.3 |
| 20260508065001 | 48 | 60 | 1.0 | 4.0 | 0.00 | 0.01 | 0.00 | 92 | 1014.2 |
| 20260508064901 | 48 | 58 | 1.0 | 6.0 | 0.00 | 0.01 | 0.00 | 92 | 1014.2 |
| 20260508064801 | 48 | 59 | 1.0 | 6.0 | 0.00 | 0.01 | 0.00 | 92 | 1014.2 |
| 20260508064702 | 48 | 59 | 1.0 | 6.0 | 0.00 | 0.01 | 0.00 | 93 | 1014.2 |
| 20260508064601 | 48 | 59 | 2.0 | 6.0 | 0.00 | 0.01 | 0.00 | 95 | 1014.2 |
| 20260508064501 | 47 | 57 | 2.0 | 6.0 | 0.00 | 0.01 | 0.00 | 95 | 1014.2 |
| 20260508064401 | 47 | 58 | 2.0 | 6.0 | 0.00 | 0.01 | 0.00 | 96 | 1014.2 |
| 20260508064301 | 47 | 59 | 2.0 | 6.0 | 0.00 | 0.01 | 0.00 | 96 | 1014.3 |
| 20260508064201 | 47 | 59 | 2.0 | 6.0 | 0.00 | 0.01 | 0.00 | 96 | 1014.3 |
| 20260508064101 | 47 | 62 | 2.0 | 6.0 | 0.00 | 0.01 | 0.00 | 96 | 1014.2 |
| 20260508064001 | 47 | 65 | 2.0 | 6.0 | 0.00 | 0.01 | 0.00 | 96 | 1014.2 |
| 20260508063901 | 47 | 63 | 2.0 | 5.0 | 0.00 | 0.01 | 0.00 | 96 | 1014.2 |
| 20260508063800 | 47 | 63 | 2.0 | 5.0 | 0.00 | 0.01 | 0.00 | 96 | 1014.2 |
| 20260508063700 | 47 | 63 | 2.0 | 5.0 | 0.00 | 0.01 | 0.00 | 96 | 1014.2 |
| 20260508063601 | 47 | 60 | 2.0 | 5.0 | 0.00 | 0.01 | 0.00 | 96 | 1014.2 |
| 20260508063501 | 46 | 61 | 2.0 | 5.0 | 0.00 | 0.01 | 0.00 | 96 | 1014.2 |
| 20260508063401 | 46 | 61 | 2.0 | 5.0 | 0.00 | 0.01 | 0.00 | 96 | 1014.2 |
| 20260508063301 | 46 | 62 | 2.0 | 7.0 | 0.00 | 0.01 | 0.00 | 96 | 1014.2 |
| 20260508063201 | 46 | 62 | 2.0 | 7.0 | 0.00 | 0.01 | 0.00 | 96 | 1014.2 |
| 20260508063100 | 46 | 62 | 2.0 | 7.0 | 0.00 | 0.01 | 0.00 | 96 | 1014.2 |
| 20260508063000 | 46 | 65 | 2.0 | 7.0 | 0.00 | 0.01 | 0.00 | 96 | 1014.2 |
| 20260508062900 | 46 | 63 | 2.0 | 7.0 | 0.00 | 0.01 | 0.00 | 96 | 1014.2 |
| 20260508062800 | 46 | 63 | 2.0 | 7.0 | 0.00 | 0.01 | 0.00 | 96 | 1014.2 |
| 20260508062701 | 46 | 62 | 2.0 | 7.0 | 0.00 | 0.01 | 0.00 | 96 | 1014.2 |
| 20260508062601 | 46 | 63 | 2.0 | 7.0 | 0.00 | 0.01 | 0.00 | 96 | 1014.2 |
| 20260508062502 | 46 | 67 | 2.0 | 7.0 | 0.00 | 0.01 | 0.00 | 96 | 1014.2 |
| 20260508062401 | 45 | 64 | 1.0 | 7.0 | 0.00 | 0.01 | 0.00 | 96 | 1014.2 |
| 20260508062305 | 45 | 67 | 1.0 | 5.0 | 0.00 | 0.01 | 0.00 | 96 | 1014.1 |
| 20260508062201 | 45 | 57 | 1.0 | 5.0 | 0.00 | 0.01 | 0.00 | 96 | 1014.1 |
| 20260508062101 | 45 | 58 | 1.0 | 5.0 | 0.00 | 0.01 | 0.00 | 96 | 1014.1 |
| 20260508062001 | 44 | 59 | 1.0 | 5.0 | 0.00 | 0.01 | 0.00 | 96 | 1014.1 |
| 20260508061901 | 44 | 64 | 0.0 | 5.0 | 0.00 | 0.01 | 0.00 | 96 | 1014.1 |
| 20260508061801 | 44 | 57 | 0.0 | 3.0 | 0.00 | 0.01 | 0.00 | 96 | 1014.1 |
| 20260508061701 | 44 | 59 | 0.0 | 3.0 | 0.00 | 0.01 | 0.00 | 96 | 1014.1 |
| 20260508061601 | 44 | 54 | 0.0 | 0.0 | 0.00 | 0.01 | 0.00 | 96 | 1014.1 |
| 20260508061501 | 44 | 54 | 0.0 | 0.0 | 0.00 | 0.01 | 0.00 | 96 | 1014.1 |
| 20260508061400 | 44 | 54 | 0.0 | 0.0 | 0.00 | 0.01 | 0.00 | 96 | 1014.1 |
| 20260508061301 | 44 | 54 | 0.0 | 0.0 | 0.00 | 0.01 | 0.00 | 95 | 1014.1 |
| 20260508061201 | 44 | 54 | 0.0 | 0.0 | 0.00 | 0.01 | 0.00 | 96 | 1014.1 |
| 20260508061101 | 44 | 54 | 0.0 | 1.0 | 0.00 | 0.01 | 0.00 | 96 | 1014.1 |
| 20260508061001 | 43 | 54 | 0.0 | 1.0 | 0.00 | 0.01 | 0.00 | 96 | 1014.1 |
| 20260508060925 | 43 | 54 | 0.0 | 1.0 | 0.00 | 0.01 | 0.00 | 96 | 1014.1 |
| 20260508060917 | 43 | 54 | 0.0 | 1.0 | 0.00 | 0.01 | 0.00 | 96 | 1014.1 |
| 20260508060913 | 43 | 54 | 0.0 | 1.0 | 0.00 | 0.01 | 0.00 | 96 | 1014.1 |
| 20260508060601 | 43 | 54 | 0.0 | 1.0 | 0.00 | 0.01 | 0.00 | 96 | 1014.1 |
| 20260508060501 | 43 | 54 | 0.0 | 1.0 | 0.00 | 0.01 | 0.00 | 96 | 1014.1 |
| 20260508060424 | 43 | 54 | 0.0 | 1.0 | 0.00 | 0.01 | 0.00 | 95 | 1014.1 |
| 20260508060416 | 43 | 54 | 0.0 | 1.0 | 0.00 | 0.01 | 0.00 | 95 | 1014.1 |
| 20260508060412 | 43 | 54 | 0.0 | 1.0 | 0.00 | 0.01 | 0.00 | 95 | 1014.1 |
| 20260508060152 | 42 | 57 | 0.0 | 1.0 | 0.00 | 0.01 | 0.00 | 96 | 1014.1 |
| 20260508060142 | 43 | 57 | 0.0 | 1.0 | 0.00 | 0.01 | 0.00 | 95 | 1014.1 |
| 20260508060138 | 43 | 57 | 0.0 | 1.0 | 0.00 | 0.01 | 0.00 | 96 | 1014.1 |
| 20260508055923 | 42 | 57 | 0.0 | 1.0 | 0.00 | 0.01 | 0.00 | 96 | 1014.1 |
| 20260508055915 | 42 | 57 | 0.0 | 1.0 | 0.00 | 0.01 | 0.00 | 96 | 1014.1 |
| 20260508055911 | 42 | 57 | 0.0 | 1.0 | 0.00 | 0.01 | 0.00 | 96 | 1014.1 |
| 20260508055601 | 42 | 57 | 0.0 | 1.0 | 0.00 | 0.01 | 0.00 | 95 | 1014.1 |
| 20260508055501 | 42 | 57 | 0.0 | 2.0 | 0.00 | 0.01 | 0.00 | 95 | 1014.1 |
| 20260508055401 | 42 | 57 | 0.0 | 2.0 | 0.00 | 0.01 | 0.00 | 95 | 1014.1 |
| 20260508055305 | 42 | 57 | 0.0 | 2.0 | 0.00 | 0.01 | 0.00 | 95 | 1013.9 |
| 20260508055201 | 42 | 57 | 0.0 | 2.0 | 0.00 | 0.01 | 0.00 | 95 | 1014.1 |
| 20260508055101 | 42 | 57 | 0.0 | 2.0 | 0.00 | 0.01 | 0.00 | 95 | 1013.9 |
| 20260508055001 | 42 | 57 | 0.0 | 2.0 | 0.00 | 0.01 | 0.00 | 95 | 1013.9 |
| 20260508054902 | 42 | 57 | 0.0 | 2.0 | 0.00 | 0.01 | 0.00 | 95 | 1013.9 |
| 20260508054804 | 42 | 57 | 0.0 | 2.0 | 0.00 | 0.01 | 0.00 | 95 | 1013.9 |
| 20260508054701 | 41 | 57 | 0.0 | 2.0 | 0.00 | 0.01 | 0.00 | 95 | 1013.9 |
| 20260508054601 | 41 | 57 | 0.0 | 2.0 | 0.00 | 0.01 | 0.00 | 95 | 1013.8 |
| 20260508054501 | 41 | 57 | 0.0 | 2.0 | 0.00 | 0.01 | 0.00 | 95 | 1013.8 |
| 20260508054401 | 41 | 57 | 0.0 | 2.0 | 0.00 | 0.01 | 0.00 | 95 | 1013.8 |
| 20260508054302 | 41 | 56 | 0.0 | 2.0 | 0.00 | 0.01 | 0.00 | 95 | 1013.8 |
| 20260508054201 | 41 | 56 | 0.0 | 2.0 | 0.00 | 0.01 | 0.00 | 95 | 1013.8 |
| 20260508054101 | 40 | 56 | 0.0 | 2.0 | 0.00 | 0.01 | 0.00 | 95 | 1013.8 |
| 20260508054001 | 40 | 56 | 0.0 | 2.0 | 0.00 | 0.01 | 0.00 | 95 | 1013.9 |
| 20260508053929 | 40 | 56 | 0.0 | 2.0 | 0.00 | 0.01 | 0.00 | 95 | 1013.9 |
| 20260508053925 | 40 | 56 | 0.0 | 2.0 | 0.00 | 0.01 | 0.00 | 95 | 1013.9 |
| 20260508053921 | 40 | 56 | 0.0 | 2.0 | 0.00 | 0.01 | 0.00 | 95 | 1013.9 |
| 20260508053601 | 40 | 57 | 0.0 | 2.0 | 0.00 | 0.01 | 0.00 | 95 | 1013.8 |
| 20260508053501 | 40 | 57 | 0.0 | 2.0 | 0.00 | 0.01 | 0.00 | 95 | 1013.9 |
| 20260508053401 | 40 | 57 | 0.0 | 2.0 | 0.00 | 0.01 | 0.00 | 95 | 1013.8 |
| 20260508053301 | 40 | 56 | 0.0 | 2.0 | 0.00 | 0.01 | 0.00 | 95 | 1013.9 |
| 20260508053201 | 40 | 57 | 0.0 | 2.0 | 0.00 | 0.01 | 0.00 | 95 | 1013.8 |
| 20260508053101 | 40 | 56 | 0.0 | 2.0 | 0.00 | 0.01 | 0.00 | 95 | 1013.8 |
| 20260508053001 | 39 | 55 | 0.0 | 1.0 | 0.00 | 0.01 | 0.00 | 95 | 1013.8 |
| 20260508052900 | 39 | 55 | 0.0 | 1.0 | 0.00 | 0.01 | 0.00 | 95 | 1013.8 |
| 20260508052800 | 39 | 55 | 0.0 | 1.0 | 0.00 | 0.01 | 0.00 | 95 | 1013.8 |
| 20260508052701 | 39 | 55 | 0.0 | 1.0 | 0.00 | 0.01 | 0.00 | 95 | 1013.8 |
| 20260508052602 | 39 | 55 | 0.0 | 1.0 | 0.00 | 0.01 | 0.00 | 95 | 1013.8 |
| 20260508052502 | 39 | 55 | 0.0 | 1.0 | 0.00 | 0.01 | 0.00 | 95 | 1013.8 |
| 20260508052426 | 39 | 55 | 0.0 | 2.0 | 0.00 | 0.01 | 0.00 | 95 | 1013.8 |
| 20260508052422 | 39 | 55 | 0.0 | 2.0 | 0.00 | 0.01 | 0.00 | 94 | 1013.8 |
| 20260508052414 | 39 | 55 | 0.0 | 2.0 | 0.00 | 0.01 | 0.00 | 94 | 1013.8 |
| 20260508052102 | 39 | 55 | 0.0 | 2.0 | 0.00 | 0.01 | 0.00 | 94 | 1013.8 |
| 20260508052001 | 39 | 56 | 0.0 | 2.0 | 0.00 | 0.01 | 0.00 | 94 | 1013.8 |
| 20260508051901 | 39 | 57 | 1.0 | 3.0 | 0.00 | 0.01 | 0.00 | 94 | 1013.8 |
| 20260508051801 | 38 | 57 | 1.0 | 3.0 | 0.00 | 0.01 | 0.00 | 94 | 1013.8 |
| 20260508051702 | 38 | 57 | 1.0 | 3.0 | 0.00 | 0.01 | 0.00 | 94 | 1013.8 |
| 20260508051601 | 38 | 57 | 1.0 | 3.0 | 0.00 | 0.01 | 0.00 | 94 | 1013.8 |
| 20260508051501 | 38 | 57 | 1.0 | 3.0 | 0.00 | 0.01 | 0.00 | 94 | 1013.8 |
| 20260508051400 | 38 | 57 | 1.0 | 3.0 | 0.00 | 0.01 | 0.00 | 94 | 1013.8 |
| 20260508051301 | 38 | 57 | 1.0 | 3.0 | 0.00 | 0.01 | 0.00 | 94 | 1013.8 |
| 20260508051201 | 38 | 57 | 1.0 | 3.0 | 0.00 | 0.01 | 0.00 | 94 | 1013.8 |
| 20260508051101 | 38 | 57 | 1.0 | 3.0 | 0.00 | 0.01 | 0.00 | 94 | 1013.7 |
| 20260508051001 | 38 | 57 | 1.0 | 3.0 | 0.00 | 0.01 | 0.00 | 94 | 1013.7 |
| 20260508050901 | 38 | 57 | 1.0 | 2.0 | 0.00 | 0.01 | 0.00 | 94 | 1013.7 |
| 20260508050800 | 38 | 57 | 1.0 | 2.0 | 0.00 | 0.01 | 0.00 | 94 | 1013.7 |
| 20260508050700 | 38 | 57 | 0.0 | 2.0 | 0.00 | 0.01 | 0.00 | 94 | 1013.7 |
| 20260508050600 | 38 | 57 | 0.0 | 2.0 | 0.00 | 0.01 | 0.00 | 94 | 1013.7 |
| 20260508050500 | 38 | 57 | 0.0 | 2.0 | 0.00 | 0.01 | 0.00 | 94 | 1013.6 |
| 20260508050400 | 38 | 57 | 0.0 | 2.0 | 0.00 | 0.01 | 0.00 | 94 | 1013.6 |
| 20260508050301 | 38 | 57 | 0.0 | 2.0 | 0.00 | 0.01 | 0.00 | 94 | 1013.6 |
| 20260508050200 | 38 | 57 | 0.0 | 1.0 | 0.00 | 0.01 | 0.00 | 94 | 1013.5 |
| 20260508050100 | 38 | 57 | 0.0 | 1.0 | 0.00 | 0.01 | 0.00 | 94 | 1013.5 |
| 20260508050001 | 38 | 57 | 0.0 | 1.0 | 0.00 | 0.01 | 0.00 | 94 | 1013.5 |
| 20260508045901 | 38 | 57 | 0.0 | 1.0 | 0.00 | 0.01 | 0.00 | 94 | 1013.5 |
| 20260508045801 | 38 | 57 | 0.0 | 1.0 | 0.00 | 0.01 | 0.00 | 94 | 1013.5 |
| 20260508045706 | 38 | 57 | 0.0 | 1.0 | 0.00 | 0.01 | 0.00 | 94 | 1013.4 |
| 20260508045654 | 38 | 57 | 0.0 | 2.0 | 0.00 | 0.01 | 0.00 | 93 | 1013.4 |
| 20260508045643 | 38 | 57 | 0.0 | 1.0 | 0.00 | 0.01 | 0.00 | 94 | 1013.4 |
| 20260508045639 | 38 | 57 | 0.0 | 1.0 | 0.00 | 0.01 | 0.00 | 94 | 1013.4 |
| 20260508045418 | 38 | 57 | 0.0 | 2.0 | 0.00 | 0.01 | 0.00 | 94 | 1013.4 |
| 20260508045414 | 38 | 57 | 0.0 | 2.0 | 0.00 | 0.01 | 0.00 | 94 | 1013.4 |
| 20260508045409 | 38 | 57 | 0.0 | 2.0 | 0.00 | 0.01 | 0.00 | 93 | 1013.4 |
| 20260508045049 | 38 | 57 | 0.0 | 2.0 | 0.00 | 0.01 | 0.00 | 93 | 1013.4 |
| 20260508044949 | 38 | 58 | 0.0 | 2.0 | 0.00 | 0.01 | 0.00 | 93 | 1013.4 |
| 20260508044849 | 38 | 58 | 1.0 | 2.0 | 0.00 | 0.01 | 0.00 | 93 | 1013.5 |
| 20260508044749 | 38 | 58 | 1.0 | 2.0 | 0.00 | 0.01 | 0.00 | 93 | 1013.5 |
| 20260508044653 | 38 | 58 | 1.0 | 2.0 | 0.00 | 0.01 | 0.00 | 93 | 1013.5 |
| 20260508044549 | 38 | 58 | 1.0 | 2.0 | 0.00 | 0.01 | 0.00 | 93 | 1013.5 |
| 20260508044447 | 38 | 58 | 1.0 | 2.0 | 0.00 | 0.01 | 0.00 | 93 | 1013.5 |
| 20260508044345 | 38 | 58 | 1.0 | 2.0 | 0.00 | 0.01 | 0.00 | 93 | 1013.4 |
| 20260508044244 | 38 | 58 | 1.0 | 2.0 | 0.00 | 0.01 | 0.00 | 93 | 1013.4 |
| 20260508044147 | 38 | 58 | 1.0 | 2.0 | 0.00 | 0.01 | 0.00 | 93 | 1013.4 |
| 20260508044039 | 38 | 58 | 1.0 | 2.0 | 0.00 | 0.01 | 0.00 | 93 | 1013.4 |
| 20260508043940 | 38 | 58 | 0.0 | 2.0 | 0.00 | 0.01 | 0.00 | 93 | 1013.3 |
| 20260508043839 | 38 | 58 | 0.0 | 2.0 | 0.00 | 0.01 | 0.00 | 93 | 1013.3 |
| 20260508043739 | 38 | 58 | 0.0 | 2.0 | 0.00 | 0.01 | 0.00 | 93 | 1013.3 |
| 20260508043641 | 38 | 58 | 0.0 | 2.0 | 0.00 | 0.01 | 0.00 | 93 | 1013.3 |
| 20260508043620 | 38 | 58 | 0.0 | 0.0 | 0.00 | 0.01 | 0.00 | 93 | 1013.3 |
| 20260508043614 | 38 | 58 | 0.0 | 2.0 | 0.00 | 0.01 | 0.00 | 93 | 1013.3 |
| 20260508043610 | 38 | 58 | 0.0 | 0.0 | 0.00 | 0.01 | 0.00 | 93 | 1013.3 |
| 20260508043353 | 38 | 58 | 0.0 | 0.0 | 0.00 | 0.01 | 0.00 | 93 | 1013.3 |
| 20260508043349 | 38 | 57 | 0.0 | 0.0 | 0.00 | 0.01 | 0.00 | 93 | 1013.3 |
| 20260508043345 | 38 | 58 | 0.0 | 0.0 | 0.00 | 0.01 | 0.00 | 93 | 1013.3 |
| 20260508043035 | 38 | 58 | 0.0 | 0.0 | 0.00 | 0.01 | 0.00 | 93 | 1013.3 |
| 20260508042933 | 38 | 58 | 0.0 | 0.0 | 0.00 | 0.01 | 0.00 | 93 | 1013.4 |
| 20260508042833 | 38 | 57 | 0.0 | 0.0 | 0.00 | 0.01 | 0.00 | 93 | 1013.4 |
| 20260508042732 | 38 | 58 | 0.0 | 0.0 | 0.00 | 0.01 | 0.00 | 93 | 1013.3 |
| 20260508042629 | 38 | 59 | 0.0 | 0.0 | 0.00 | 0.01 | 0.00 | 93 | 1013.3 |
| 20260508042529 | 38 | 59 | 0.0 | 0.0 | 0.00 | 0.01 | 0.00 | 93 | 1013.3 |
| 20260508042429 | 38 | 59 | 0.0 | 0.0 | 0.00 | 0.01 | 0.00 | 93 | 1013.3 |
| 20260508042329 | 38 | 59 | 0.0 | 0.0 | 0.00 | 0.01 | 0.00 | 93 | 1013.3 |
| 20260508042229 | 38 | 59 | 0.0 | 0.0 | 0.00 | 0.01 | 0.00 | 93 | 1013.3 |
| 20260508042129 | 38 | 59 | 0.0 | 0.0 | 0.00 | 0.01 | 0.00 | 93 | 1013.3 |
| 20260508042029 | 38 | 59 | 0.0 | 0.0 | 0.00 | 0.01 | 0.00 | 93 | 1013.3 |
| 20260508041929 | 38 | 59 | 0.0 | 0.0 | 0.00 | 0.01 | 0.00 | 93 | 1013.3 |
| 20260508041829 | 38 | 59 | 0.0 | 0.0 | 0.00 | 0.01 | 0.00 | 93 | 1013.3 |
| 20260508041727 | 38 | 59 | 0.0 | 0.0 | 0.00 | 0.01 | 0.00 | 93 | 1013.3 |
| 20260508041627 | 38 | 59 | 0.0 | 0.0 | 0.00 | 0.01 | 0.00 | 93 | 1013.3 |
| 20260508041525 | 38 | 59 | 0.0 | 0.0 | 0.00 | 0.01 | 0.00 | 93 | 1013.3 |
| 20260508041423 | 38 | 59 | 0.0 | 0.0 | 0.00 | 0.01 | 0.00 | 93 | 1013.3 |
| 20260508041323 | 38 | 59 | 0.0 | 0.0 | 0.00 | 0.01 | 0.00 | 93 | 1013.3 |
| 20260508041221 | 38 | 59 | 0.0 | 0.0 | 0.00 | 0.01 | 0.00 | 93 | 1013.3 |
| 20260508041121 | 38 | 59 | 0.0 | 0.0 | 0.00 | 0.01 | 0.00 | 93 | 1013.3 |
| 20260508041116 | 38 | 59 | 0.0 | 0.0 | 0.00 | 0.01 | 0.00 | 93 | 1013.3 |
| 20260508041107 | 38 | 59 | 0.0 | 0.0 | 0.00 | 0.01 | 0.00 | 93 | 1013.3 |
| 20260508041103 | 38 | 59 | 0.0 | 0.0 | 0.00 | 0.01 | 0.00 | 93 | 1013.3 |
| 20260508040843 | 38 | 59 | 0.0 | 0.0 | 0.00 | 0.01 | 0.00 | 93 | 1013.3 |
| 20260508040840 | 38 | 59 | 0.0 | 0.0 | 0.00 | 0.01 | 0.00 | 93 | 1013.3 |
| 20260508040613 | 38 | 59 | 0.0 | 0.0 | 0.00 | 0.01 | 0.00 | 93 | 1013.3 |
| 20260508040513 | 38 | 59 | 0.0 | 0.0 | 0.00 | 0.01 | 0.00 | 93 | 1013.3 |
| 20260508040411 | 38 | 59 | 0.0 | 0.0 | 0.00 | 0.01 | 0.00 | 93 | 1013.3 |
| 20260508040311 | 38 | 59 | 0.0 | 0.0 | 0.00 | 0.01 | 0.00 | 93 | 1013.2 |
| 20260508040209 | 38 | 59 | 0.0 | 0.0 | 0.00 | 0.01 | 0.00 | 93 | 1013.3 |
| 20260508040109 | 38 | 59 | 0.0 | 0.0 | 0.00 | 0.01 | 0.00 | 93 | 1013.3 |
| 20260508040007 | 38 | 59 | 0.0 | 0.0 | 0.00 | 0.01 | 0.00 | 93 | 1013.3 |
| 20260508035905 | 38 | 59 | 0.0 | 0.0 | 0.00 | 0.01 | 0.00 | 93 | 1013.3 |
| 20260508035805 | 38 | 59 | 0.0 | 0.0 | 0.00 | 0.01 | 0.00 | 93 | 1013.3 |
| 20260508035701 | 38 | 59 | 0.0 | 0.0 | 0.00 | 0.01 | 0.00 | 93 | 1013.3 |
| 20260508035602 | 38 | 59 | 0.0 | 0.0 | 0.00 | 0.01 | 0.00 | 93 | 1013.3 |
| 20260508035501 | 38 | 59 | 0.0 | 0.0 | 0.00 | 0.01 | 0.00 | 93 | 1013.3 |
| 20260508035401 | 38 | 59 | 0.0 | 0.0 | 0.00 | 0.01 | 0.00 | 93 | 1013.3 |
| 20260508035302 | 38 | 59 | 0.0 | 0.0 | 0.00 | 0.01 | 0.00 | 93 | 1013.3 |
| 20260508035200 | 38 | 59 | 0.0 | 0.0 | 0.00 | 0.01 | 0.00 | 93 | 1013.3 |
| 20260508035101 | 38 | 59 | 0.0 | 0.0 | 0.00 | 0.01 | 0.00 | 93 | 1013.3 |
| 20260508035001 | 38 | 59 | 0.0 | 0.0 | 0.00 | 0.01 | 0.00 | 93 | 1013.3 |
| 20260508034901 | 38 | 59 | 0.0 | 0.0 | 0.00 | 0.01 | 0.00 | 93 | 1013.3 |
| 20260508034801 | 38 | 59 | 0.0 | 0.0 | 0.00 | 0.01 | 0.00 | 93 | 1013.3 |
| 20260508034701 | 38 | 59 | 0.0 | 0.0 | 0.00 | 0.01 | 0.00 | 93 | 1013.3 |
| 20260508034600 | 38 | 59 | 0.0 | 0.0 | 0.00 | 0.01 | 0.00 | 93 | 1013.3 |
| 20260508034501 | 38 | 59 | 0.0 | 0.0 | 0.00 | 0.01 | 0.00 | 93 | 1013.3 |
| 20260508034400 | 38 | 59 | 0.0 | 0.0 | 0.00 | 0.01 | 0.00 | 93 | 1013.3 |
| 20260508034300 | 38 | 59 | 0.0 | 0.0 | 0.00 | 0.01 | 0.00 | 93 | 1013.2 |
| 20260508034200 | 38 | 59 | 0.0 | 0.0 | 0.00 | 0.01 | 0.00 | 93 | 1013.2 |
| 20260508034101 | 38 | 59 | 0.0 | 0.0 | 0.00 | 0.01 | 0.00 | 93 | 1013.2 |
| 20260508034001 | 38 | 59 | 0.0 | 1.0 | 0.00 | 0.01 | 0.00 | 93 | 1013.2 |
| 20260508033901 | 38 | 59 | 0.0 | 1.0 | 0.00 | 0.01 | 0.00 | 93 | 1013.2 |
| 20260508033801 | 38 | 59 | 0.0 | 1.0 | 0.00 | 0.01 | 0.00 | 93 | 1013.2 |
| 20260508033701 | 38 | 59 | 0.0 | 1.0 | 0.00 | 0.01 | 0.00 | 93 | 1013.2 |
| 20260508033600 | 38 | 59 | 0.0 | 1.0 | 0.00 | 0.01 | 0.00 | 93 | 1013.2 |
| 20260508033500 | 38 | 59 | 0.0 | 1.0 | 0.00 | 0.01 | 0.00 | 93 | 1013.2 |
| 20260508033401 | 38 | 59 | 0.0 | 1.0 | 0.00 | 0.01 | 0.00 | 93 | 1013.2 |
| 20260508033301 | 38 | 59 | 0.0 | 1.0 | 0.00 | 0.01 | 0.00 | 93 | 1013.2 |
| 20260508033201 | 38 | 59 | 0.0 | 1.0 | 0.00 | 0.01 | 0.00 | 93 | 1013.2 |
| 20260508033101 | 38 | 59 | 0.0 | 1.0 | 0.00 | 0.01 | 0.00 | 93 | 1013.2 |
| 20260508033000 | 38 | 59 | 0.0 | 1.0 | 0.00 | 0.01 | 0.00 | 93 | 1013.1 |
| 20260508032900 | 38 | 59 | 0.0 | 1.0 | 0.00 | 0.01 | 0.00 | 93 | 1013.1 |
| 20260508032801 | 38 | 59 | 0.0 | 1.0 | 0.00 | 0.01 | 0.00 | 93 | 1013.1 |
| 20260508032701 | 38 | 59 | 0.0 | 1.0 | 0.00 | 0.01 | 0.00 | 93 | 1013.1 |
| 20260508032600 | 38 | 59 | 0.0 | 1.0 | 0.00 | 0.01 | 0.00 | 93 | 1013.1 |
| 20260508032501 | 38 | 59 | 0.0 | 1.0 | 0.00 | 0.01 | 0.00 | 93 | 1013.1 |
| 20260508032401 | 38 | 59 | 0.0 | 1.0 | 0.00 | 0.01 | 0.00 | 93 | 1013.1 |
| 20260508032305 | 38 | 59 | 0.0 | 1.0 | 0.00 | 0.01 | 0.00 | 93 | 1013.1 |
| 20260508032201 | 38 | 59 | 0.0 | 1.0 | 0.00 | 0.01 | 0.00 | 93 | 1013.1 |
| 20260508032101 | 38 | 61 | 0.0 | 1.0 | 0.00 | 0.01 | 0.00 | 93 | 1013.0 |
| 20260508032001 | 38 | 61 | 0.0 | 1.0 | 0.00 | 0.01 | 0.00 | 93 | 1013.1 |
| 20260508031901 | 38 | 61 | 0.0 | 1.0 | 0.00 | 0.01 | 0.00 | 93 | 1013.1 |
| 20260508031801 | 38 | 61 | 0.0 | 1.0 | 0.00 | 0.01 | 0.00 | 93 | 1013.1 |
| 20260508031700 | 38 | 61 | 0.0 | 1.0 | 0.00 | 0.01 | 0.00 | 93 | 1013.1 |
| 20260508031601 | 38 | 61 | 0.0 | 1.0 | 0.00 | 0.01 | 0.00 | 93 | 1013.1 |
| 20260508031506 | 38 | 61 | 0.0 | 1.0 | 0.00 | 0.01 | 0.00 | 93 | 1013.1 |
| 20260508031401 | 38 | 61 | 0.0 | 1.0 | 0.00 | 0.01 | 0.00 | 93 | 1013.1 |
| 20260508031201 | 38 | 61 | 0.0 | 1.0 | 0.00 | 0.01 | 0.00 | 93 | 1013.1 |
| 20260508031101 | 38 | 61 | 0.0 | 0.0 | 0.00 | 0.01 | 0.00 | 93 | 1013.1 |
| 20260508031001 | 38 | 61 | 0.0 | 0.0 | 0.00 | 0.01 | 0.00 | 92 | 1013.0 |
| 20260508030902 | 38 | 61 | 0.0 | 0.0 | 0.00 | 0.01 | 0.00 | 92 | 1013.1 |
| 20260508030801 | 38 | 61 | 0.0 | 0.0 | 0.00 | 0.01 | 0.00 | 92 | 1013.1 |
| 20260508030700 | 38 | 61 | 0.0 | 0.0 | 0.00 | 0.01 | 0.00 | 92 | 1013.1 |
| 20260508030600 | 38 | 61 | 0.0 | 0.0 | 0.00 | 0.01 | 0.00 | 92 | 1013.0 |
| 20260508030500 | 38 | 61 | 0.0 | 0.0 | 0.00 | 0.01 | 0.00 | 92 | 1013.1 |
| 20260508030400 | 38 | 61 | 0.0 | 0.0 | 0.00 | 0.01 | 0.00 | 92 | 1013.1 |
| 20260508030300 | 38 | 61 | 0.0 | 0.0 | 0.00 | 0.01 | 0.00 | 92 | 1013.1 |
| 20260508030200 | 38 | 61 | 0.0 | 0.0 | 0.00 | 0.01 | 0.00 | 92 | 1013.1 |
| 20260508030001 | 38 | 61 | 0.0 | 0.0 | 0.00 | 0.01 | 0.00 | 92 | 1013.0 |
| 20260508025900 | 38 | 61 | 0.0 | 0.0 | 0.00 | 0.01 | 0.00 | 92 | 1013.0 |
| 20260508025800 | 38 | 61 | 0.0 | 0.0 | 0.00 | 0.01 | 0.00 | 92 | 1013.0 |
| 20260508025701 | 38 | 61 | 0.0 | 0.0 | 0.00 | 0.01 | 0.00 | 92 | 1013.0 |
| 20260508025601 | 38 | 61 | 0.0 | 0.0 | 0.00 | 0.01 | 0.00 | 92 | 1013.0 |
| 20260508025501 | 38 | 61 | 0.0 | 0.0 | 0.00 | 0.01 | 0.00 | 92 | 1013.0 |
| 20260508025401 | 38 | 61 | 0.0 | 1.0 | 0.00 | 0.01 | 0.00 | 92 | 1013.0 |
| 20260508025301 | 38 | 61 | 0.0 | 1.0 | 0.00 | 0.01 | 0.00 | 92 | 1013.0 |
| 20260508025200 | 38 | 61 | 0.0 | 1.0 | 0.00 | 0.01 | 0.00 | 92 | 1013.0 |
| 20260508025101 | 38 | 61 | 0.0 | 1.0 | 0.00 | 0.01 | 0.00 | 92 | 1013.0 |
| 20260508025001 | 38 | 61 | 0.0 | 1.0 | 0.00 | 0.01 | 0.00 | 92 | 1013.0 |
| 20260508024901 | 38 | 61 | 0.0 | 1.0 | 0.00 | 0.01 | 0.00 | 92 | 1013.0 |
| 20260508024850 | 38 | 61 | 0.0 | 1.0 | 0.00 | 0.01 | 0.00 | 92 | 1013.0 |
| 20260508024845 | 38 | 61 | 0.0 | 1.0 | 0.00 | 0.01 | 0.00 | 92 | 1013.0 |
| 20260508024841 | 38 | 61 | 0.0 | 1.0 | 0.00 | 0.01 | 0.00 | 92 | 1013.0 |
| 20260508024601 | 38 | 61 | 0.0 | 1.0 | 0.00 | 0.01 | 0.00 | 92 | 1013.0 |
| 20260508024501 | 38 | 61 | 0.0 | 1.0 | 0.00 | 0.01 | 0.00 | 92 | 1013.0 |
| 20260508024401 | 38 | 61 | 0.0 | 0.0 | 0.00 | 0.01 | 0.00 | 92 | 1013.0 |
| 20260508024301 | 38 | 61 | 0.0 | 0.0 | 0.00 | 0.01 | 0.00 | 92 | 1013.0 |
| 20260508024200 | 38 | 61 | 0.0 | 0.0 | 0.00 | 0.01 | 0.00 | 92 | 1013.0 |
| 20260508024100 | 38 | 61 | 0.0 | 1.0 | 0.00 | 0.01 | 0.00 | 92 | 1013.0 |
| 20260508024001 | 38 | 61 | 0.0 | 1.0 | 0.00 | 0.01 | 0.00 | 92 | 1013.0 |
| 20260508023900 | 38 | 61 | 0.0 | 1.0 | 0.00 | 0.01 | 0.00 | 92 | 1013.0 |
| 20260508023800 | 38 | 61 | 0.0 | 1.0 | 0.00 | 0.01 | 0.00 | 92 | 1013.0 |
| 20260508023701 | 38 | 61 | 0.0 | 1.0 | 0.00 | 0.01 | 0.00 | 92 | 1013.0 |
| 20260508023601 | 38 | 61 | 0.0 | 1.0 | 0.00 | 0.01 | 0.00 | 92 | 1013.0 |
| 20260508023501 | 38 | 61 | 0.0 | 1.0 | 0.00 | 0.01 | 0.00 | 92 | 1013.0 |
| 20260508023401 | 38 | 61 | 0.0 | 1.0 | 0.00 | 0.01 | 0.00 | 92 | 1013.0 |
| 20260508023301 | 38 | 61 | 0.0 | 1.0 | 0.00 | 0.01 | 0.00 | 92 | 1013.1 |
| 20260508023200 | 38 | 61 | 0.0 | 1.0 | 0.00 | 0.01 | 0.00 | 92 | 1013.1 |
| 20260508023100 | 38 | 61 | 0.0 | 1.0 | 0.00 | 0.01 | 0.00 | 92 | 1013.0 |
| 20260508023000 | 38 | 61 | 0.0 | 1.0 | 0.00 | 0.01 | 0.00 | 92 | 1013.1 |
| 20260508022900 | 38 | 61 | 0.0 | 1.0 | 0.00 | 0.01 | 0.00 | 92 | 1013.1 |
| 20260508022801 | 38 | 61 | 0.0 | 1.0 | 0.00 | 0.01 | 0.00 | 92 | 1013.1 |
| 20260508022701 | 38 | 61 | 0.0 | 1.0 | 0.00 | 0.01 | 0.00 | 92 | 1013.1 |
| 20260508022601 | 38 | 61 | 0.0 | 1.0 | 0.00 | 0.01 | 0.00 | 92 | 1013.1 |
| 20260508022501 | 38 | 61 | 0.0 | 1.0 | 0.00 | 0.01 | 0.00 | 92 | 1013.0 |
| 20260508022406 | 38 | 61 | 0.0 | 1.0 | 0.00 | 0.01 | 0.00 | 92 | 1013.0 |
| 20260508022255 | 38 | 61 | 0.0 | 1.0 | 0.00 | 0.01 | 0.00 | 92 | 1013.1 |
| 20260508022129 | 38 | 61 | 0.0 | 1.0 | 0.00 | 0.01 | 0.00 | 92 | 1013.0 |
| 20260508022055 | 38 | 61 | 0.0 | 1.0 | 0.00 | 0.01 | 0.00 | 92 | 1013.0 |
| 20260508021955 | 38 | 61 | 0.0 | 1.0 | 0.00 | 0.01 | 0.00 | 92 | 1013.0 |
| 20260508021858 | 38 | 61 | 0.0 | 1.0 | 0.00 | 0.01 | 0.00 | 92 | 1013.1 |
| 20260508021751 | 38 | 61 | 0.0 | 1.0 | 0.00 | 0.01 | 0.00 | 92 | 1013.0 |
| 20260508021649 | 38 | 61 | 0.0 | 1.0 | 0.00 | 0.01 | 0.00 | 92 | 1013.0 |
| 20260508021629 | 38 | 61 | 0.0 | 1.0 | 0.00 | 0.01 | 0.00 | 91 | 1013.0 |
| 20260508021549 | 38 | 61 | 0.0 | 1.0 | 0.00 | 0.01 | 0.00 | 92 | 1013.0 |
| 20260508021449 | 38 | 61 | 0.0 | 1.0 | 0.00 | 0.01 | 0.00 | 91 | 1013.0 |
| 20260508021354 | 38 | 61 | 0.0 | 1.0 | 0.00 | 0.01 | 0.00 | 91 | 1013.0 |
| 20260508021245 | 38 | 61 | 0.0 | 1.0 | 0.00 | 0.01 | 0.00 | 91 | 1013.0 |
| 20260508021129 | 38 | 61 | 0.0 | 1.0 | 0.00 | 0.01 | 0.00 | 91 | 1013.1 |
| 20260508021043 | 38 | 61 | 0.0 | 1.0 | 0.00 | 0.01 | 0.00 | 91 | 1013.1 |
| 20260508020943 | 38 | 61 | 0.0 | 1.0 | 0.00 | 0.01 | 0.00 | 92 | 1013.1 |
| 20260508020847 | 38 | 61 | 0.0 | 2.0 | 0.00 | 0.01 | 0.00 | 92 | 1013.1 |
| 20260508020743 | 38 | 61 | 1.0 | 2.0 | 0.00 | 0.01 | 0.00 | 92 | 1013.1 |
| 20260508020628 | 38 | 61 | 1.0 | 2.0 | 0.00 | 0.01 | 0.00 | 92 | 1013.1 |
| 20260508020540 | 38 | 61 | 1.0 | 2.0 | 0.00 | 0.01 | 0.00 | 92 | 1013.2 |
| 20260508020439 | 38 | 61 | 1.0 | 2.0 | 0.00 | 0.01 | 0.00 | 92 | 1013.2 |
| 20260508020340 | 38 | 61 | 1.0 | 2.0 | 0.00 | 0.01 | 0.00 | 92 | 1013.2 |
| 20260508020237 | 38 | 61 | 1.0 | 2.0 | 0.00 | 0.01 | 0.00 | 92 | 1013.1 |
| 20260508020129 | 38 | 61 | 1.0 | 2.0 | 0.00 | 0.01 | 0.00 | 92 | 1013.1 |
| 20260508020035 | 38 | 61 | 1.0 | 2.0 | 0.00 | 0.01 | 0.00 | 92 | 1013.2 |
| 20260508015932 | 38 | 61 | 1.0 | 2.0 | 0.00 | 0.01 | 0.00 | 92 | 1013.2 |
| 20260508015833 | 38 | 61 | 1.0 | 2.0 | 0.00 | 0.01 | 0.00 | 92 | 1013.2 |
| 20260508015729 | 38 | 61 | 1.0 | 2.0 | 0.00 | 0.01 | 0.00 | 92 | 1013.1 |
| 20260508015629 | 38 | 61 | 1.0 | 2.0 | 0.00 | 0.01 | 0.00 | 92 | 1013.2 |
| 20260508015529 | 38 | 61 | 1.0 | 2.0 | 0.00 | 0.01 | 0.00 | 91 | 1013.2 |
| 20260508015429 | 38 | 61 | 1.0 | 2.0 | 0.00 | 0.01 | 0.00 | 91 | 1013.1 |
| 20260508015352 | 38 | 61 | 1.0 | 2.0 | 0.00 | 0.01 | 0.00 | 91 | 1013.2 |
| 20260508015344 | 38 | 61 | 1.0 | 2.0 | 0.00 | 0.01 | 0.00 | 91 | 1013.1 |
| 20260508015340 | 38 | 61 | 1.0 | 2.0 | 0.00 | 0.01 | 0.00 | 91 | 1013.2 |
| 20260508015029 | 38 | 61 | 1.0 | 2.0 | 0.00 | 0.01 | 0.00 | 91 | 1013.2 |
| 20260508014929 | 38 | 61 | 0.0 | 2.0 | 0.00 | 0.01 | 0.00 | 91 | 1013.2 |
| 20260508014829 | 38 | 61 | 0.0 | 2.0 | 0.00 | 0.01 | 0.00 | 91 | 1013.2 |
| 20260508014729 | 38 | 61 | 0.0 | 2.0 | 0.00 | 0.01 | 0.00 | 91 | 1013.2 |
| 20260508014628 | 38 | 61 | 0.0 | 2.0 | 0.00 | 0.01 | 0.00 | 91 | 1013.2 |
| 20260508014528 | 38 | 61 | 0.0 | 2.0 | 0.00 | 0.01 | 0.00 | 91 | 1013.2 |
| 20260508014429 | 38 | 61 | 0.0 | 2.0 | 0.00 | 0.01 | 0.00 | 91 | 1013.2 |
| 20260508014328 | 38 | 61 | 0.0 | 2.0 | 0.00 | 0.01 | 0.00 | 91 | 1013.2 |
| 20260508014229 | 38 | 61 | 0.0 | 2.0 | 0.00 | 0.01 | 0.00 | 91 | 1013.2 |
| 20260508014129 | 38 | 61 | 0.0 | 1.0 | 0.00 | 0.01 | 0.00 | 91 | 1013.2 |
| 20260508014029 | 38 | 61 | 0.0 | 1.0 | 0.00 | 0.01 | 0.00 | 91 | 1013.2 |
| 20260508013929 | 38 | 61 | 0.0 | 1.0 | 0.00 | 0.01 | 0.00 | 90 | 1013.2 |
| 20260508013828 | 38 | 61 | 0.0 | 1.0 | 0.00 | 0.01 | 0.00 | 90 | 1013.2 |
| 20260508013729 | 39 | 61 | 0.0 | 1.0 | 0.00 | 0.01 | 0.00 | 90 | 1013.2 |
| 20260508013629 | 39 | 61 | 0.0 | 2.0 | 0.00 | 0.01 | 0.00 | 90 | 1013.2 |
| 20260508013528 | 39 | 61 | 0.0 | 2.0 | 0.00 | 0.01 | 0.00 | 90 | 1013.2 |
| 20260508013428 | 39 | 61 | 0.0 | 2.0 | 0.00 | 0.01 | 0.00 | 90 | 1013.2 |
| 20260508013351 | 39 | 61 | 0.0 | 2.0 | 0.00 | 0.01 | 0.00 | 90 | 1013.2 |
| 20260508013344 | 39 | 61 | 0.0 | 2.0 | 0.00 | 0.01 | 0.00 | 89 | 1013.2 |
| 20260508013340 | 39 | 61 | 0.0 | 2.0 | 0.00 | 0.01 | 0.00 | 89 | 1013.2 |
| 20260508013029 | 39 | 61 | 1.0 | 2.0 | 0.00 | 0.01 | 0.00 | 90 | 1013.2 |
| 20260508012928 | 39 | 61 | 1.0 | 2.0 | 0.00 | 0.01 | 0.00 | 89 | 1013.2 |
| 20260508012828 | 39 | 61 | 1.0 | 3.0 | 0.00 | 0.01 | 0.00 | 89 | 1013.2 |
| 20260508012729 | 39 | 61 | 1.0 | 3.0 | 0.00 | 0.01 | 0.00 | 89 | 1013.2 |
| 20260508012629 | 39 | 61 | 1.0 | 3.0 | 0.00 | 0.01 | 0.00 | 89 | 1013.2 |
| 20260508012528 | 39 | 61 | 1.0 | 3.0 | 0.00 | 0.01 | 0.00 | 89 | 1013.2 |
| 20260508012429 | 39 | 61 | 1.0 | 3.0 | 0.00 | 0.01 | 0.00 | 90 | 1013.2 |
| 20260508012329 | 39 | 61 | 1.0 | 3.0 | 0.00 | 0.01 | 0.00 | 90 | 1013.2 |
| 20260508012229 | 39 | 61 | 1.0 | 3.0 | 0.00 | 0.01 | 0.00 | 90 | 1013.2 |
| 20260508012129 | 39 | 61 | 1.0 | 3.0 | 0.00 | 0.01 | 0.00 | 91 | 1013.2 |
| 20260508012028 | 40 | 61 | 1.0 | 3.0 | 0.00 | 0.01 | 0.00 | 91 | 1013.2 |
| 20260508011928 | 40 | 61 | 1.0 | 3.0 | 0.00 | 0.01 | 0.00 | 91 | 1013.2 |
| 20260508011829 | 40 | 61 | 1.0 | 3.0 | 0.00 | 0.01 | 0.00 | 91 | 1013.2 |
| 20260508011729 | 40 | 61 | 1.0 | 3.0 | 0.00 | 0.01 | 0.00 | 91 | 1013.2 |
| 20260508011629 | 40 | 61 | 1.0 | 3.0 | 0.00 | 0.01 | 0.00 | 91 | 1013.2 |
| 20260508011529 | 40 | 61 | 1.0 | 3.0 | 0.00 | 0.01 | 0.00 | 91 | 1013.2 |
| 20260508011429 | 40 | 61 | 1.0 | 3.0 | 0.00 | 0.01 | 0.00 | 91 | 1013.2 |
| 20260508011329 | 40 | 61 | 1.0 | 3.0 | 0.00 | 0.01 | 0.00 | 91 | 1013.2 |
| 20260508011229 | 40 | 61 | 1.0 | 3.0 | 0.00 | 0.01 | 0.00 | 91 | 1013.2 |
| 20260508011128 | 40 | 61 | 1.0 | 3.0 | 0.00 | 0.01 | 0.00 | 91 | 1013.1 |
| 20260508011028 | 40 | 61 | 2.0 | 3.0 | 0.00 | 0.01 | 0.00 | 91 | 1013.1 |
| 20260508010929 | 40 | 61 | 2.0 | 3.0 | 0.00 | 0.01 | 0.00 | 91 | 1013.1 |
| 20260508010829 | 40 | 61 | 1.0 | 3.0 | 0.00 | 0.01 | 0.00 | 91 | 1013.2 |
| 20260508010733 | 40 | 61 | 1.0 | 3.0 | 0.00 | 0.01 | 0.00 | 91 | 1013.1 |
| 20260508010629 | 40 | 61 | 1.0 | 3.0 | 0.00 | 0.01 | 0.00 | 91 | 1013.1 |
| 20260508010528 | 40 | 61 | 1.0 | 3.0 | 0.00 | 0.01 | 0.00 | 91 | 1013.2 |
| 20260508010428 | 40 | 61 | 1.0 | 3.0 | 0.00 | 0.01 | 0.00 | 91 | 1013.2 |
| 20260508010328 | 40 | 61 | 1.0 | 3.0 | 0.00 | 0.01 | 0.00 | 90 | 1013.2 |
| 20260508010228 | 40 | 61 | 0.0 | 1.0 | 0.00 | 0.01 | 0.00 | 90 | 1013.2 |
| 20260508010128 | 40 | 61 | 0.0 | 1.0 | 0.00 | 0.01 | 0.00 | 90 | 1013.2 |
| 20260508010028 | 40 | 61 | 0.0 | 1.0 | 0.00 | 0.01 | 0.00 | 90 | 1013.2 |
| 20260508005929 | 40 | 61 | 0.0 | 1.0 | 0.00 | 0.01 | 0.00 | 90 | 1013.2 |
| 20260508005829 | 40 | 61 | 0.0 | 1.0 | 0.00 | 0.01 | 0.00 | 90 | 1013.2 |
| 20260508005729 | 40 | 61 | 0.0 | 1.0 | 0.00 | 0.01 | 0.00 | 90 | 1013.1 |
| 20260508005630 | 40 | 61 | 0.0 | 1.0 | 0.00 | 0.01 | 0.00 | 90 | 1013.2 |
| 20260508005529 | 40 | 61 | 0.0 | 1.0 | 0.00 | 0.01 | 0.00 | 90 | 1013.2 |
| 20260508005428 | 40 | 61 | 0.0 | 1.0 | 0.00 | 0.01 | 0.00 | 90 | 1013.2 |
| 20260508005328 | 40 | 61 | 0.0 | 0.0 | 0.00 | 0.01 | 0.00 | 90 | 1013.2 |
| 20260508005229 | 40 | 61 | 0.0 | 0.0 | 0.00 | 0.01 | 0.00 | 89 | 1013.3 |
| 20260508005129 | 40 | 61 | 0.0 | 0.0 | 0.00 | 0.01 | 0.00 | 89 | 1013.3 |
| 20260508005029 | 40 | 61 | 0.0 | 0.0 | 0.00 | 0.01 | 0.00 | 89 | 1013.3 |
| 20260508004929 | 40 | 61 | 0.0 | 0.0 | 0.00 | 0.01 | 0.00 | 89 | 1013.3 |
| 20260508004829 | 40 | 61 | 0.0 | 0.0 | 0.00 | 0.01 | 0.00 | 89 | 1013.3 |
| 20260508004729 | 40 | 61 | 0.0 | 0.0 | 0.00 | 0.01 | 0.00 | 89 | 1013.4 |
| 20260508004629 | 40 | 61 | 0.0 | 1.0 | 0.00 | 0.01 | 0.00 | 89 | 1013.3 |
| 20260508004529 | 40 | 61 | 0.0 | 1.0 | 0.00 | 0.01 | 0.00 | 89 | 1013.4 |
| 20260508004429 | 40 | 61 | 0.0 | 1.0 | 0.00 | 0.01 | 0.00 | 89 | 1013.4 |
| 20260508004328 | 40 | 61 | 0.0 | 1.0 | 0.00 | 0.01 | 0.00 | 89 | 1013.4 |
| 20260508004228 | 40 | 61 | 0.0 | 1.0 | 0.00 | 0.01 | 0.00 | 89 | 1013.4 |
| 20260508004129 | 40 | 61 | 0.0 | 2.0 | 0.00 | 0.01 | 0.00 | 89 | 1013.4 |
| 20260508004029 | 40 | 61 | 1.0 | 2.0 | 0.00 | 0.01 | 0.00 | 89 | 1013.4 |
| 20260508003929 | 40 | 61 | 1.0 | 2.0 | 0.00 | 0.01 | 0.00 | 89 | 1013.4 |
| 20260508003829 | 40 | 61 | 1.0 | 2.0 | 0.00 | 0.01 | 0.00 | 89 | 1013.4 |
| 20260508003728 | 40 | 61 | 1.0 | 2.0 | 0.00 | 0.01 | 0.00 | 89 | 1013.4 |
| 20260508003628 | 40 | 61 | 1.0 | 2.0 | 0.00 | 0.01 | 0.00 | 89 | 1013.4 |
| 20260508003528 | 40 | 61 | 1.0 | 2.0 | 0.00 | 0.01 | 0.00 | 89 | 1013.5 |
| 20260508003428 | 40 | 61 | 1.0 | 2.0 | 0.00 | 0.01 | 0.00 | 89 | 1013.4 |
| 20260508003351 | 41 | 61 | 1.0 | 2.0 | 0.00 | 0.01 | 0.00 | 89 | 1013.4 |
| 20260508003347 | 41 | 61 | 1.0 | 2.0 | 0.00 | 0.01 | 0.00 | 90 | 1013.4 |
| 20260508003339 | 41 | 61 | 1.0 | 2.0 | 0.00 | 0.01 | 0.00 | 90 | 1013.4 |
| 20260508003029 | 41 | 61 | 1.0 | 2.0 | 0.00 | 0.01 | 0.00 | 90 | 1013.4 |
| 20260508002930 | 41 | 61 | 1.0 | 2.0 | 0.00 | 0.01 | 0.00 | 90 | 1013.4 |
| 20260508002828 | 41 | 61 | 1.0 | 2.0 | 0.00 | 0.01 | 0.00 | 90 | 1013.4 |
| 20260508002728 | 41 | 61 | 1.0 | 2.0 | 0.00 | 0.01 | 0.00 | 90 | 1013.4 |
| 20260508002629 | 41 | 61 | 1.0 | 2.0 | 0.00 | 0.01 | 0.00 | 90 | 1013.4 |
| 20260508002527 | 41 | 61 | 0.0 | 2.0 | 0.00 | 0.01 | 0.00 | 90 | 1013.4 |
| 20260508002427 | 41 | 61 | 0.0 | 2.0 | 0.00 | 0.01 | 0.00 | 90 | 1013.4 |
| 20260508002324 | 41 | 61 | 0.0 | 2.0 | 0.00 | 0.01 | 0.00 | 90 | 1013.4 |
| 20260508002224 | 41 | 61 | 0.0 | 2.0 | 0.00 | 0.01 | 0.00 | 90 | 1013.4 |
| 20260508002129 | 41 | 61 | 0.0 | 2.0 | 0.00 | 0.01 | 0.00 | 90 | 1013.4 |
| 20260508002125 | 41 | 61 | 0.0 | 2.0 | 0.00 | 0.01 | 0.00 | 89 | 1013.4 |
| 20260508002021 | 41 | 61 | 0.0 | 2.0 | 0.00 | 0.01 | 0.00 | 89 | 1013.4 |
| 20260508001920 | 41 | 61 | 0.0 | 1.0 | 0.00 | 0.01 | 0.00 | 89 | 1013.4 |
| 20260508001820 | 41 | 61 | 0.0 | 1.0 | 0.00 | 0.01 | 0.00 | 89 | 1013.4 |
| 20260508001720 | 41 | 61 | 0.0 | 1.0 | 0.00 | 0.01 | 0.00 | 89 | 1013.5 |
| 20260508001620 | 41 | 61 | 0.0 | 1.0 | 0.00 | 0.01 | 0.00 | 89 | 1013.5 |
| 20260508001521 | 41 | 61 | 0.0 | 1.0 | 0.00 | 0.01 | 0.00 | 89 | 1013.5 |
| 20260508001419 | 41 | 61 | 0.0 | 1.0 | 0.00 | 0.01 | 0.00 | 88 | 1013.5 |
| 20260508001319 | 41 | 61 | 0.0 | 1.0 | 0.00 | 0.01 | 0.00 | 88 | 1013.5 |
| 20260508001219 | 41 | 61 | 0.0 | 1.0 | 0.00 | 0.01 | 0.00 | 88 | 1013.5 |
| 20260508001118 | 41 | 61 | 0.0 | 1.0 | 0.00 | 0.01 | 0.00 | 87 | 1013.5 |
| 20260508000919 | 41 | 61 | 0.0 | 1.0 | 0.00 | 0.01 | 0.00 | 86 | 1013.5 |
| 20260508000819 | 41 | 61 | 0.0 | 1.0 | 0.00 | 0.01 | 0.00 | 87 | 1013.5 |
| 20260508000717 | 41 | 61 | 0.0 | 2.0 | 0.00 | 0.01 | 0.00 | 86 | 1013.5 |
| 20260508000617 | 41 | 61 | 0.0 | 2.0 | 0.00 | 0.01 | 0.00 | 87 | 1013.6 |
| 20260508000515 | 42 | 61 | 0.0 | 2.0 | 0.00 | 0.01 | 0.00 | 87 | 1013.6 |
| 20260508000414 | 42 | 61 | 0.0 | 2.0 | 0.00 | 0.01 | 0.00 | 86 | 1013.6 |
| 20260508000314 | 42 | 61 | 0.0 | 2.0 | 0.00 | 0.01 | 0.00 | 86 | 1013.6 |
| 20260508000214 | 42 | 61 | 0.0 | 2.0 | 0.00 | 0.01 | 0.00 | 86 | 1013.6 |
| 20260508000115 | 42 | 61 | 0.0 | 2.0 | 0.00 | 0.01 | 0.00 | 86 | 1013.6 |
| 20260508000015 | 42 | 61 | 0.0 | 2.0 | 0.00 | 0.01 | 0.00 | 87 | 1013.7 |
| 20260507235915 | 42 | 61 | 0.0 | 2.0 | 0.00 | 0.01 | 0.00 | 87 | 1013.7 |
| 20260507235815 | 42 | 61 | 0.0 | 2.0 | 0.00 | 0.01 | 0.00 | 87 | 1013.7 |
| 20260507235715 | 42 | 61 | 0.0 | 1.0 | 0.00 | 0.01 | 0.00 | 87 | 1013.7 |
| 20260507235610 | 42 | 61 | 0.0 | 0.0 | 0.00 | 0.01 | 0.00 | 87 | 1013.7 |
| 20260507235510 | 42 | 61 | 0.0 | 0.0 | 0.00 | 0.01 | 0.00 | 88 | 1013.7 |
| 20260507235411 | 42 | 61 | 0.0 | 0.0 | 0.00 | 0.01 | 0.00 | 88 | 1013.8 |
| 20260507235311 | 42 | 61 | 0.0 | 0.0 | 0.00 | 0.01 | 0.00 | 88 | 1013.7 |
| 20260507235211 | 42 | 61 | 0.0 | 0.0 | 0.00 | 0.01 | 0.00 | 88 | 1013.8 |
| 20260507235111 | 42 | 61 | 0.0 | 0.0 | 0.00 | 0.01 | 0.00 | 89 | 1013.8 |
| 20260507235010 | 43 | 61 | 0.0 | 0.0 | 0.00 | 0.01 | 0.00 | 88 | 1013.8 |
| 20260507234910 | 43 | 61 | 0.0 | 0.0 | 0.00 | 0.01 | 0.00 | 88 | 1013.8 |
| 20260507234810 | 43 | 61 | 0.0 | 0.0 | 0.00 | 0.01 | 0.00 | 88 | 1013.8 |
| 20260507234710 | 43 | 61 | 0.0 | 0.0 | 0.00 | 0.01 | 0.00 | 88 | 1013.8 |
| 20260507234615 | 43 | 61 | 0.0 | 0.0 | 0.00 | 0.01 | 0.00 | 88 | 1013.8 |
| 20260507234511 | 43 | 61 | 0.0 | 0.0 | 0.00 | 0.01 | 0.00 | 88 | 1013.8 |
| 20260507234411 | 43 | 61 | 0.0 | 0.0 | 0.00 | 0.01 | 0.00 | 88 | 1013.8 |
| 20260507234311 | 43 | 61 | 0.0 | 0.0 | 0.00 | 0.01 | 0.00 | 88 | 1013.8 |
| 20260507234211 | 43 | 61 | 0.0 | 0.0 | 0.00 | 0.01 | 0.00 | 88 | 1013.8 |
| 20260507234110 | 43 | 61 | 0.0 | 0.0 | 0.00 | 0.01 | 0.00 | 88 | 1013.8 |
| 20260507234010 | 43 | 61 | 0.0 | 0.0 | 0.00 | 0.01 | 0.00 | 89 | 1013.8 |
| 20260507233910 | 43 | 61 | 0.0 | 0.0 | 0.00 | 0.01 | 0.00 | 88 | 1013.8 |
| 20260507233810 | 43 | 61 | 0.0 | 0.0 | 0.00 | 0.01 | 0.00 | 89 | 1013.8 |
| 20260507233706 | 43 | 61 | 0.0 | 0.0 | 0.00 | 0.01 | 0.00 | 88 | 1013.8 |
| 20260507233628 | 43 | 61 | 0.0 | 0.0 | 0.00 | 0.01 | 0.00 | 89 | 1013.8 |
| 20260507233608 | 43 | 61 | 0.0 | 0.0 | 0.00 | 0.01 | 0.00 | 88 | 1013.8 |
| 20260507233507 | 43 | 61 | 0.0 | 0.0 | 0.00 | 0.01 | 0.00 | 88 | 1013.9 |
| 20260507233407 | 43 | 61 | 0.0 | 0.0 | 0.00 | 0.01 | 0.00 | 88 | 1013.9 |
| 20260507233307 | 43 | 61 | 0.0 | 0.0 | 0.00 | 0.01 | 0.00 | 88 | 1013.9 |
| 20260507233206 | 43 | 61 | 0.0 | 0.0 | 0.00 | 0.01 | 0.00 | 88 | 1013.9 |
| 20260507233106 | 43 | 61 | 0.0 | 0.0 | 0.00 | 0.01 | 0.00 | 88 | 1013.9 |
| 20260507233006 | 43 | 61 | 0.0 | 0.0 | 0.00 | 0.01 | 0.00 | 88 | 1013.9 |
| 20260507232906 | 43 | 61 | 0.0 | 0.0 | 0.00 | 0.01 | 0.00 | 88 | 1013.9 |
| 20260507232807 | 43 | 61 | 0.0 | 0.0 | 0.00 | 0.01 | 0.00 | 88 | 1013.9 |
| 20260507232707 | 43 | 61 | 0.0 | 0.0 | 0.00 | 0.01 | 0.00 | 88 | 1014.1 |
| 20260507232612 | 43 | 61 | 0.0 | 0.0 | 0.00 | 0.01 | 0.00 | 88 | 1013.9 |
| 20260507232507 | 43 | 61 | 0.0 | 0.0 | 0.00 | 0.01 | 0.00 | 88 | 1013.9 |
| 20260507232407 | 43 | 61 | 0.0 | 0.0 | 0.00 | 0.01 | 0.00 | 88 | 1014.1 |
| 20260507232307 | 43 | 61 | 0.0 | 0.0 | 0.00 | 0.01 | 0.00 | 88 | 1013.9 |
| 20260507232206 | 43 | 61 | 0.0 | 0.0 | 0.00 | 0.01 | 0.00 | 88 | 1014.1 |
| 20260507232129 | 43 | 61 | 0.0 | 0.0 | 0.00 | 0.01 | 0.00 | 88 | 1014.1 |
| 20260507232107 | 43 | 61 | 0.0 | 1.0 | 0.00 | 0.01 | 0.00 | 88 | 1014.1 |
| 20260507232006 | 43 | 61 | 0.0 | 1.0 | 0.00 | 0.01 | 0.00 | 88 | 1014.1 |
| 20260507231907 | 43 | 63 | 0.0 | 1.0 | 0.00 | 0.01 | 0.00 | 88 | 1013.9 |
| 20260507231803 | 43 | 63 | 0.0 | 1.0 | 0.00 | 0.01 | 0.00 | 87 | 1014.1 |
| 20260507231703 | 43 | 63 | 0.0 | 1.0 | 0.00 | 0.01 | 0.00 | 87 | 1014.1 |
| 20260507231602 | 43 | 63 | 0.0 | 1.0 | 0.00 | 0.01 | 0.00 | 87 | 1014.1 |
| 20260507231502 | 43 | 63 | 0.0 | 1.0 | 0.00 | 0.01 | 0.00 | 87 | 1014.1 |
| 20260507231402 | 43 | 63 | 0.0 | 1.0 | 0.00 | 0.01 | 0.00 | 87 | 1014.1 |
| 20260507231302 | 44 | 63 | 0.0 | 1.0 | 0.00 | 0.01 | 0.00 | 87 | 1014.1 |
| 20260507231202 | 44 | 63 | 0.0 | 1.0 | 0.00 | 0.01 | 0.00 | 87 | 1014.1 |
| 20260507231102 | 44 | 63 | 0.0 | 1.0 | 0.00 | 0.01 | 0.00 | 87 | 1014.2 |
| 20260507231003 | 44 | 63 | 0.0 | 1.0 | 0.00 | 0.01 | 0.00 | 87 | 1014.1 |
| 20260507230903 | 44 | 63 | 0.0 | 1.0 | 0.00 | 0.01 | 0.00 | 87 | 1014.1 |
| 20260507230803 | 44 | 63 | 0.0 | 1.0 | 0.00 | 0.01 | 0.00 | 87 | 1014.1 |
| 20260507230702 | 44 | 63 | 0.0 | 1.0 | 0.00 | 0.01 | 0.00 | 87 | 1014.2 |
| 20260507230602 | 44 | 63 | 0.0 | 1.0 | 0.00 | 0.01 | 0.00 | 87 | 1014.1 |
| 20260507230502 | 44 | 63 | 0.0 | 1.0 | 0.00 | 0.01 | 0.00 | 86 | 1014.1 |
| 20260507230402 | 44 | 63 | 0.0 | 1.0 | 0.00 | 0.01 | 0.00 | 86 | 1014.1 |
| 20260507230302 | 44 | 63 | 0.0 | 1.0 | 0.00 | 0.01 | 0.00 | 86 | 1014.1 |
| 20260507230202 | 44 | 63 | 0.0 | 2.0 | 0.00 | 0.01 | 0.00 | 86 | 1014.1 |
| 20260507230101 | 44 | 63 | 0.0 | 2.0 | 0.00 | 0.01 | 0.00 | 85 | 1014.1 |
| 20260507230001 | 44 | 63 | 0.0 | 2.0 | 0.00 | 0.01 | 0.00 | 86 | 1013.9 |
| 20260507225901 | 44 | 63 | 1.0 | 2.0 | 0.00 | 0.01 | 0.00 | 86 | 1013.9 |
| 20260507225848 | 44 | 63 | 1.0 | 2.0 | 0.00 | 0.01 | 0.00 | 86 | 1014.1 |
| 20260507225844 | 44 | 63 | 1.0 | 2.0 | 0.00 | 0.01 | 0.00 | 86 | 1014.1 |
| 20260507225840 | 44 | 63 | 1.0 | 2.0 | 0.00 | 0.01 | 0.00 | 86 | 1014.1 |
| 20260507225601 | 44 | 63 | 1.0 | 2.0 | 0.00 | 0.01 | 0.00 | 86 | 1014.1 |
| 20260507225501 | 44 | 63 | 1.0 | 2.0 | 0.00 | 0.01 | 0.00 | 86 | 1014.1 |
| 20260507225401 | 45 | 63 | 1.0 | 2.0 | 0.00 | 0.01 | 0.00 | 86 | 1014.1 |
| 20260507225301 | 45 | 63 | 1.0 | 2.0 | 0.00 | 0.01 | 0.00 | 86 | 1014.1 |
| 20260507225201 | 45 | 63 | 1.0 | 2.0 | 0.00 | 0.01 | 0.00 | 86 | 1014.2 |
| 20260507225100 | 45 | 63 | 1.0 | 2.0 | 0.00 | 0.01 | 0.00 | 86 | 1014.1 |
| 20260507225001 | 45 | 63 | 1.0 | 2.0 | 0.00 | 0.01 | 0.00 | 86 | 1014.1 |
| 20260507224901 | 45 | 63 | 1.0 | 2.0 | 0.00 | 0.01 | 0.00 | 86 | 1014.1 |
| 20260507224853 | 45 | 65 | 0.0 | 2.0 | 0.00 | 0.01 | 0.00 | 86 | 1014.1 |
| 20260507224844 | 45 | 63 | 1.0 | 2.0 | 0.00 | 0.01 | 0.00 | 86 | 1014.1 |
| 20260507224840 | 45 | 63 | 0.0 | 2.0 | 0.00 | 0.01 | 0.00 | 86 | 1014.1 |
| 20260507224601 | 45 | 65 | 0.0 | 2.0 | 0.00 | 0.01 | 0.00 | 86 | 1014.1 |
| 20260507224501 | 45 | 65 | 0.0 | 2.0 | 0.00 | 0.01 | 0.00 | 86 | 1014.1 |
| 20260507224401 | 45 | 65 | 0.0 | 2.0 | 0.00 | 0.01 | 0.00 | 86 | 1013.9 |
| 20260507224347 | 45 | 65 | 0.0 | 2.0 | 0.00 | 0.01 | 0.00 | 86 | 1014.1 |
| 20260507224342 | 45 | 65 | 0.0 | 2.0 | 0.00 | 0.01 | 0.00 | 86 | 1013.9 |
| 20260507224339 | 45 | 65 | 0.0 | 2.0 | 0.00 | 0.01 | 0.00 | 86 | 1013.9 |
| 20260507224101 | 45 | 65 | 0.0 | 2.0 | 0.00 | 0.01 | 0.00 | 86 | 1014.1 |
| 20260507224001 | 45 | 66 | 0.0 | 2.0 | 0.00 | 0.01 | 0.00 | 86 | 1013.9 |
| 20260507223901 | 45 | 66 | 0.0 | 2.0 | 0.00 | 0.01 | 0.00 | 86 | 1013.9 |
| 20260507223801 | 45 | 66 | 0.0 | 2.0 | 0.00 | 0.01 | 0.00 | 86 | 1013.9 |
| 20260507223700 | 46 | 66 | 0.0 | 2.0 | 0.00 | 0.01 | 0.00 | 86 | 1013.9 |
| 20260507223600 | 46 | 66 | 0.0 | 2.0 | 0.00 | 0.01 | 0.00 | 86 | 1013.9 |
| 20260507223500 | 46 | 66 | 0.0 | 2.0 | 0.00 | 0.01 | 0.00 | 86 | 1013.9 |
| 20260507223400 | 46 | 66 | 0.0 | 2.0 | 0.00 | 0.01 | 0.00 | 86 | 1013.9 |
| 20260507223300 | 46 | 66 | 0.0 | 2.0 | 0.00 | 0.01 | 0.00 | 86 | 1013.9 |
| 20260507223200 | 46 | 66 | 0.0 | 2.0 | 0.00 | 0.01 | 0.00 | 85 | 1013.9 |
| 20260507223101 | 46 | 66 | 0.0 | 2.0 | 0.00 | 0.01 | 0.00 | 85 | 1013.8 |
| 20260507223001 | 46 | 68 | 0.0 | 2.0 | 0.00 | 0.01 | 0.00 | 85 | 1013.8 |
| 20260507222901 | 46 | 68 | 0.0 | 2.0 | 0.00 | 0.01 | 0.00 | 85 | 1013.8 |
| 20260507222852 | 46 | 71 | 0.0 | 2.0 | 0.00 | 0.01 | 0.00 | 85 | 1013.9 |
| 20260507222845 | 46 | 70 | 0.0 | 2.0 | 0.00 | 0.01 | 0.00 | 85 | 1013.8 |
| 20260507222841 | 46 | 70 | 0.0 | 2.0 | 0.00 | 0.01 | 0.00 | 85 | 1013.9 |